     2              OBSERVATION DATA    GPS                 RINEX VERSION / TYPE
teqc 2002Apr3 20041109 01:33:14UTC                          PGM / RUN BY / DATE
                                                            COMMENT
L2: 1 -> 1; 5 -> 5; 60 -> 9                                 COMMENT
L2: 1 -> 1; 5 -> 5; 60 -> 9                                 COMMENT
L2: 1 -> 1; 5 -> 5; 60 -> 9                                 COMMENT
L2: 1 -> 1; 5 -> 5; 60 -> 9                                 COMMENT
L2: 1 -> 1; 5 -> 5; 60 -> 9                                 COMMENT
Original Marker Name: 8761                                  COMMENT
Campaign Name: CSRC/Caltrans post-San Simeon                COMMENT
4-Character Station Name: YORK                              COMMENT
6-Character Antenna Code: TRZEPH                            COMMENT
Vertical Measurement Point: BPA                             COMMENT
Vertical Offset to Rinex Ref. Point: 0.0000                 COMMENT
Radial Measurement Point: RRP                               COMMENT
Radial Offset to Rinex Ref. Point: 0.0000                   COMMENT
Antenna Height from Field Measurement: 1.8000 m             COMMENT
Original XYZ: -2664400.1031 -4461400.3552 3686512.3455      COMMENT
New XYZ position is based on association with SCEC monument COMMENT
E1F1B0H2+0011. Position of that monument is believed to be  COMMENT
valid to within 1 m horizontally; vertical accuracy         COMMENT
should be no worse than 3-times this value.                 COMMENT
                                                            COMMENT
Revised Rinex header created by UCSD GPS archive for        COMMENT
GSAC on 11-Feb-2005 (2005:042) 22:03:05 GMT                 COMMENT
For assistance contact dagnew@ucsd.edu                      COMMENT
or anderson@python.ucsd.edu                                 COMMENT
                                                            COMMENT
YORK                                                        MARKER NAME
8761                                                        MARKER NUMBER
R. Zogate CALIF DEPT TRANSPORTATION DISTRICT 5              OBSERVER / AGENCY
0220308761 TRIMBLE 5700 NP 2.01 / SP 0.00                   REC # / TYPE / VERS
12422923 TRM41249.00                                        ANT # / TYPE
 -2664401.0000 -4461401.0000  3686512.0000                  APPROX POSITION XYZ
        1.8000        0.0000        0.0000                  ANTENNA: DELTA H/E/N
     1     1     0                                          WAVELENGTH FACT L1/2
     7    C1    L1    L2    P1    P2    S1    S2            # / TYPES OF OBSERV
     0                                                      INTERVAL
  2004     7    12    22    10   30.000000                  TIME OF FIRST OBS
  2004     7    12    23    15   45.000000                  TIME OF LAST OBS
                                                            END OF HEADER
 04  7 12 22 10 30.0000000  0  7G 1G11G13G16G20G23G25
  20909822.9504    -779921.05149   -596941.57848                  20909820.3444
        52.0004         40.7504
  23600395.4764     696621.80949    524937.25846                  23600394.7104
        43.7504         25.0004
  23949999.5834   -1478392.87949  -1134646.20746                  23949997.9974
        39.0004         21.0004
  22060326.6844   -1284347.84049   -979042.62547                  22060323.1444
        47.7504         34.2504
  20265932.5514    -807995.09449   -617684.34048                  20265929.0454
        51.2504         42.0004
  20576742.4254    -676455.86349   -518245.58248                  20576737.1894
        51.2504         41.5004
  22746531.8874     664494.58649    500354.73847                  22746528.5984
        48.0004         32.7504
 04  7 12 22 10 45.0000000  0  7G 1G11G13G16G20G23G25
  20904567.4074    -807537.76249   -618461.09048                  20904565.5024
        52.0004         41.0004
  23605248.2074     722122.62949    544808.01246                  23605247.2534
        44.7504         24.7504
  23939825.7784   -1531860.04349  -1176308.89546                  23939823.7584
        38.7504         20.0004
  22051787.6244   -1329220.37949  -1014008.23447                  22051784.6954
        47.5004         35.0004
  20260716.5984    -835405.63749   -639043.20748                  20260713.2064
        50.5004         42.0004
  20572237.6384    -700129.96149   -536692.93748                  20572232.0304
        51.5004         40.7504
  22751196.0564     689006.48849    519454.92247                  22751193.1594
        48.0004         32.7504
 04  7 12 22 11  0.0000000  0  7G 1G11G13G16G20G23G25
  20899320.7254    -835109.66849   -639945.69148                  20899318.7474
        52.0004         40.5004
  23610105.7564     747647.43849    564697.43047                  23610104.3794
        41.5004         26.5004
  23929653.4394   -1585310.62149  -1217958.64546                  23929653.0274
        38.0004         21.5004
  22043270.1574   -1373978.63349  -1048884.78947                  22043267.6774
        47.5004         34.5004
  20255525.5074    -862685.37949   -660300.14548                  20255521.8284
        50.5004         41.7504
  20567743.4724    -723744.88349   -555094.17648                  20567738.3164
        51.0004         41.0004
  22755868.3954     713555.58249    538584.05147                  22755865.7934
        46.7504         33.2504
 04  7 12 22 11 15.0000000  0  7G 1G11G13G16G20G23G25
  20894082.1874    -862637.85549   -661396.22748                  20894080.2444
        51.5004         40.5004
  23614967.2614     773194.86349    584604.48446                  23614965.1094
        42.5004         23.7504
  23919485.7024   -1638745.75449  -1259596.42646                  23919484.4994
        40.0004         21.0004
  22034774.3264   -1418623.43049  -1083672.92247                  22034771.9974
        48.0004         34.0004
  20250358.9274    -889835.19149   -681455.85248                  20250355.8304
        50.0004         42.0004
  20563260.9324    -747301.74249   -573450.17248                  20563255.5214
        51.0004         41.0004
  22760546.2204     738140.46149    557741.09047                  22760543.3064
        47.0004         32.7504
 04  7 12 22 11 30.0000000  0  7G 1G11G13G16G20G23G25
  20888852.0104    -890123.54749   -682813.64548                  20888849.9354
        52.2504         41.2504
  23619831.8924     798763.31649    604527.91046                  23619830.8984
        43.5004         24.5004
  23909320.5324   -1692166.68849  -1301223.13746                  23909318.6934
        39.5004         19.2504
  22026300.3804   -1463155.61349  -1118373.32047                  22026297.7174
        49.0004         34.7504
  20245216.7444    -916856.12149   -702511.12948                  20245214.1314
        50.2504         42.0004
  20558789.0794    -770801.69149   -591761.82048                  20558783.5564
        51.0004         40.5004
  22765230.3434     762759.55949    576924.81347                  22765227.8784
        46.5004         32.5004
 04  7 12 22 11 45.0000000  0  7G 1G11G13G16G20G23G25
  20883630.4084    -917563.57049   -704195.48048                  20883628.0324
        52.0004         41.2504
  23624702.1014     824355.60949    624469.90646                  23624701.3314
        44.0004         25.0004
  23899157.3694   -1745570.19549  -1342836.16446                  23899155.8154
        41.2504         19.5004
  22017848.3894   -1507571.80149  -1152983.34047                  22017845.4314
        48.2504         34.7504
  20240100.2134    -943744.87949   -723463.41048                  20240097.2454
        50.7504         42.5004
  20554328.7064    -794241.53149   -610026.64148                  20554323.3934
        50.7504         40.5004
  22769922.2444     787415.90649    596137.52747                  22769920.2324
        47.2504         33.0004
 04  7 12 22 12  0.0000000  0  7G 1G11G13G16G20G23G25
  20878417.3074    -944958.59849   -725542.25848                  20878415.3084
        52.2504         41.0004
  23629576.6364     849970.78149    644429.71946                  23629575.2324
        43.7504         23.5004
  23888998.1384   -1798956.81249  -1384436.16046                  23888997.0484
        40.5004         21.0004
  22009417.9574   -1551872.25049  -1187503.15247                  22009415.3094
        48.2504         34.5004
  20235008.6624    -970501.90649   -744313.04748                  20235005.5654
        51.0004         42.2504
  20549879.8324    -817621.98449   -628245.17248                  20549874.5154
        51.5004         40.7504
  22774621.6344     812108.60249    615378.56347                  22774618.9884
        48.2504         33.2504
 04  7 12 22 12 15.0000000  0  7G 1G11G13G16G20G23G25
  20873212.8924    -972306.53949   -746852.35248                  20873211.0564
        52.0004         41.5004
  23634455.9464     875610.46549    664408.67246                  23634454.3874
        44.5004         24.2504
  23878842.9434   -1852324.56649  -1426021.37146                  23878842.1684
        39.2504         21.7504
  22001010.7004   -1596054.66449  -1221930.98847                  22001007.6354
        49.0004         34.5004
  20229942.2664    -997125.03549   -765058.34448                  20229939.1094
        50.7504         42.5004
  20545441.8424    -840940.93449   -646415.78948                  20545436.8854
        51.2504         40.5004
  22779327.7814     836839.41849    634649.30547                  22779326.5864
        48.0004         33.2504
 04  7 12 22 12 30.0000000  0  7G 1G11G13G16G20G23G25
  20868017.7924    -999607.86349   -768126.10548                  20868015.7454
        51.2504         41.5004
  23639339.7954     901273.89849    684406.11746                  23639337.8674
        43.2504         25.5004
  23868690.7514   -1905673.94549  -1467592.29346                  23868688.6924
        42.0004         21.0004
  21992625.1934   -1640119.11349  -1256266.91847                  21992622.3784
        48.2504         34.5004
  20224901.4374   -1023614.55149   -785699.53148                  20224898.4814
        48.7504         42.0004
  20541016.5714    -864198.79749   -664538.79748                  20541011.0834
        51.7504         41.0004
  22784041.1634     861607.77049    653949.31347                  22784038.7094
        46.7504         33.7504
 04  7 12 22 12 45.0000000  0  7G 1G11G13G16G20G23G25
  20862831.1994   -1026862.75849   -789363.68448                  20862829.1534
        47.5004         41.5004
  23644227.6624     926960.33249    704421.49646                  23644226.0424
        41.0004         22.7504
  23858542.5924   -1959005.11349  -1509149.01646                  23858541.3084
        41.5004         22.5004
  21984262.7514   -1684065.55949  -1290510.89147                  21984259.7234
        49.2504         34.7504
  20219886.1834   -1049970.35549   -806236.52748                  20219883.1064
        45.0004         42.5004
  20536602.1374    -887395.76649   -682614.36348                  20536597.1424
        51.0004         40.5004
  22788761.3194     886413.08649    673278.09047                  22788759.4724
        45.5004         33.2504
 04  7 12 22 13  0.0000000  0  7G 1G11G13G16G20G23G25
  20857653.9804   -1054071.22749   -810565.08648                  20857651.6304
        50.5004         41.0004
  23649120.4044     952669.53549    724454.59446                  23649118.5914
        43.2504         25.2504
  23848397.1684   -2012318.20349  -1550691.62946                  23848396.8564
        41.7504         23.0004
  21975921.9744   -1727893.78549  -1324662.74247                  21975919.4254
        48.2504         35.2504
  20214896.2364   -1076192.43749   -826669.32048                  20214893.2644
        48.7504         41.7504
  20532199.3434    -910531.88349   -700642.51248                  20532194.5104
        50.5004         41.2504
  22793489.4614     911255.02749    692635.41447                  22793486.2794
        47.5004         33.2504
 04  7 12 22 13 15.0000000  0  7G 1G11G13G16G20G23G25
  20852485.1624   -1081232.12549   -831729.42248                  20852482.8694
        52.0004         41.2504
  23654016.5984     978402.34049    744506.08246                  23654015.1094
        45.0004         24.0004
  23838255.7734   -2065612.04749  -1592219.28146                  23838254.1884
        42.2504         22.5004
  21967604.8834   -1771602.24649  -1358721.27747                  21967601.3714
        48.7504         34.2504
  20209932.4144   -1102279.38749   -846996.82048                  20209929.0124
        51.0004         42.0004
  20527808.4624    -933605.87949   -718622.24248                  20527803.0404
        51.0004         41.0004
  22798223.1194     936134.64149    712022.12147                  22798221.7304
        47.0004         33.5004
 04  7 12 22 13 30.0000000  0  7G 1G11G13G16G20G23G25
  20847325.3394   -1108345.77749   -852856.93748                  20847323.3774
        52.2504         40.7504
  23658917.8734    1004158.06349    764575.44546                  23658916.4984
        44.0004         24.7504
  23828117.7584   -2118886.86749  -1633732.12546                  23828116.6054
        41.2504         24.0004
  21959309.8954   -1815191.01649  -1392686.53947                  21959306.4104
        48.5004         34.5004
  20204993.8084   -1128231.34449   -867219.12148                  20204990.5804
        50.7504         41.7504
  20523429.6394    -956618.14849   -736553.88748                  20523424.1494
        50.2504         40.5004
  22802964.4714     961051.45349    731437.81347                  22802962.2674
        47.7504         33.0004
 04  7 12 22 13 45.0000000  0  7G 1G11G13G16G20G23G25
  20842174.7794   -1135412.72349   -873948.05948                  20842172.7564
        51.5004         40.5004
  23663823.4524    1029935.77349    784661.93846                  23663821.5194
        44.2504         24.0004
  23817983.4494   -2172143.34849  -1675230.64846                  23817981.8784
        41.5004         22.5004
  21951038.0774   -1858660.34049  -1426558.74247                  21951034.8314
        48.7504         34.7504
  20200080.9204   -1154048.64549   -887336.51248                  20200077.1484
        49.5004         42.0004
  20519061.8314    -979569.27049   -754437.87148                  20519056.4414
        51.0004         40.7504
  22807712.8694     986004.53549    750881.74647                  22807711.0404
        47.0004         33.0004
 04  7 12 22 14  0.0000000  0  7G 1G11G13G16G20G23G25
  20837033.2404   -1162432.62149   -895002.52748                  20837030.7764
        51.0004         40.7504
  23668733.2794    1055735.48849    804765.57846                  23668730.6904
        45.2504         22.7504
  23807852.4784   -2225381.00049  -1716714.50046                  23807851.5774
        41.0004         23.0004
  21942789.1014   -1902009.53149  -1460337.31647                  21942785.9084
        49.0004         34.2504
  20195193.8344   -1179730.85249   -907348.63348                  20195190.5284
        50.2504         42.0004
  20514705.7364   -1002458.63349   -772273.74248                  20514700.7704
        51.0004         41.0004
  22812468.0114    1010994.10549    770354.12947                  22812466.5004
        48.0004         33.0004
 04  7 12 22 14 15.0000000  0  7G 1G11G13G16G20G23G25
  20831900.4664   -1189405.87549   -916020.64848                  20831898.0774
        51.2504         40.5004
  23673646.2834    1081556.39849    824885.73446                  23673645.0034
        44.5004         22.7504
  23797725.5484   -2278600.35549  -1758184.09046                  23797724.1024
        42.0004         24.7504
  21934563.0844   -1945238.74649  -1494022.41447                  21934559.1274
        48.7504         35.0004
  20190332.3654   -1205278.28149   -927255.71548                  20190329.0764
        51.0004         42.2504
  20510362.2504   -1025286.71949   -790061.86748                  20510356.9094
        51.0004         41.2504
  22817230.8064    1036019.50849    789854.40247                  22817228.8454
        48.7504         32.7504
 04  7 12 22 14 30.0000000  0  7G 1G11G13G16G20G23G25
  20826776.1384   -1216334.29349   -937003.83248                  20826773.4924
        52.0004         40.7504
  23678563.5904    1107396.48449    845020.82046                  23678562.4434
        45.2504         25.2504
  23787601.1344   -2331803.19549  -1799640.80546                  23787600.2334
        41.5004         25.0004
  21926359.6464   -1988349.48849  -1527615.19547                  21926355.5554
        49.0004         35.5004
  20185495.9464   -1230692.43749   -947058.96948                  20185492.8444
        50.5004         41.7504
  20506029.4504   -1048055.43749   -807803.72348                  20506024.2824
        50.0004         41.2504
  22821999.0434    1061078.63349    809380.96547                  22821996.8564
        47.7504         32.7504
 04  7 12 22 14 45.0000000  0  7G 1G11G13G16G20G23G25
  20821660.5904   -1243215.85249   -957950.49248                  20821658.3344
        51.2504         40.5004
  23683484.9734    1133257.37949    865172.09846                  23683483.7474
        43.5004         25.0004
  23777480.5214   -2384987.56649  -1841083.15646                  23777479.4964
        42.7504         23.7504
  21918178.1354   -2031339.43049  -1561113.83647                  21918174.9854
        48.0004         34.7504
  20180685.7814   -1255971.16049   -966756.67648                  20180682.4804
        50.0004         41.5004
  20501708.4574   -1070762.64149   -825497.65248                  20501703.1574
        51.0004         41.5004
  22826774.8864    1086173.21149    828935.17647                  22826772.8794
        48.0004         32.5004
 04  7 12 22 15  0.0000000  0  8G 1G11G13G16G20G23G25G 4
  20816554.1864   -1270050.48849   -978860.59848                  20816552.3284
        51.0004         40.7504
  23688410.4334    1159138.53549    885339.21547                  23688408.7734
        42.0004         27.2504
  23767363.5724   -2438153.28949  -1882510.95747                  23767361.4994
        42.2504         25.7504
  21910020.5574   -2074208.21149  -1594518.06247                  21910017.1274
        47.7504         35.0004
  20175901.1434   -1281114.28949   -986348.72348                  20175897.8344
        50.2504         41.7504
  20497398.9874   -1093408.35249   -843143.67248                  20497394.0564
        50.5004         41.2504
  22831557.0874    1111303.17649    848516.93447                  22831553.9564
        45.5004         32.2504
  24728783.0474     -34083.45359    -26419.21556                  24728781.9384
        38.5004         20.0004
 04  7 12 22 15 15.0000000  0  8G 1G11G13G16G20G23G25G 4
  20811456.6684   -1296840.18749   -999735.68748                  20811454.2654
        51.7504         41.0004
  23693338.6334    1185037.80149    905520.42647                  23693337.1854
        41.2504         26.2504
  23757249.4294   -2491302.22349  -1923925.69547                  23757247.8954
        41.7504         27.2504
  21901885.8124   -2116957.60549  -1627829.27747                  21901882.3704
        47.0004         35.0004
  20171141.7804   -1306123.61349  -1005836.51248                  20171138.8434
        50.0004         41.7504
  20493101.0384   -1115994.46149   -860743.23048                  20493095.5944
        49.7504         40.7504
  22836345.3024    1136466.26649    868124.52747                  22836342.5944
        44.2504         33.0004
  24720695.9704     -76581.03548    -59534.19146                  24720695.5584
        33.5004         19.0004
 04  7 12 22 15 30.0000000  0  8G 1G11G13G16G20G23G25G 4
  20806367.3094   -1323583.79749  -1020574.87548                  20806365.0624
        51.0004         41.2504
  23698270.7044    1210955.88349    925716.27746                  23698269.6194
        40.2504         25.5004
  23747139.0714   -2544433.43449  -1965326.59847                  23747137.9974
        43.5004         26.7504
  21893773.4454   -2159586.18449  -1661046.33647                  21893770.4874
        45.7504         34.2504
  20166408.6044   -1330997.80549  -1025219.00448                  20166405.4254
        50.2504         42.0004
  20488814.5704   -1138519.81249   -878295.45348                  20488809.1694
        51.0004         41.0004
  22841140.5224    1161663.21149    887758.46947                  22841138.3834
        45.0004         32.7504
  24712632.4604    -118958.10248    -92555.26646                  24712632.5074
        34.2504         20.0004
 04  7 12 22 15 45.0000000  0  8G 1G11G13G16G20G23G25G 4
  20801286.4764   -1350283.18449  -1041379.59448                  20801284.3894
        50.0004         41.0004
  23703205.8734    1236890.69549    945925.17247                  23703204.8894
        42.5004         27.0004
  23737031.8374   -2597548.77349  -2006715.14847                  23737030.0314
        42.0004         26.0004
  21885684.5004   -2202095.45749  -1694170.44547                  21885681.3094
        43.5004         34.2504
  20161700.5844   -1355738.59449  -1044497.55148                  20161697.7224
        50.5004         42.0004
  20484539.4214   -1160986.21149   -895801.73848                  20484533.7524
        50.5004         41.0004
  22845940.0154    1186891.91849    907417.22347                  22845937.5864
        44.2504         31.7504
  24704590.9624    -161216.40649   -125483.78146                  24704591.2434
        38.0004         20.5004
 04  7 12 22 16  0.0000000  0  8G 1G11G13G16G20G23G25G 4
  20796214.1924   -1376938.94549  -1062150.31648                  20796212.0504
        51.2504         41.2504
  23708144.3284    1262841.09449    966146.21147                  23708143.1194
        45.5004         27.0004
  23726926.4124   -2650649.01649  -2048091.91046                  23726924.8844
        43.0004         23.5004
  21877617.6654   -2244485.80949  -1727201.87147                  21877614.8624
        47.0004         34.5004
  20157017.7824   -1380346.54749  -1063672.57448                  20157014.8014
        49.7504         42.0004
  20480275.1544   -1183394.37149   -913262.64148                  20480270.0284
        50.5004         40.5004
  22850747.5274    1212151.69549    927100.14147                  22850745.5344
        47.2504         32.0004
  24696572.7104    -203356.27049   -158320.01646                  24696572.3024
        38.5004         21.0004
 04  7 12 22 16 15.0000000  0  8G 1G11G13G16G20G23G25G 4
  20791150.1074   -1403550.73449  -1082886.77348                  20791148.1404
        51.0004         41.0004
  23713085.8064    1288807.05549    986379.39847                  23713084.2514
        46.5004         27.5004
  23716825.4354   -2703733.80149  -2089456.64147                  23716823.2254
        43.0004         26.5004
  21869574.0354   -2286756.58249  -1760140.12547                  21869570.9584
        46.5004         34.5004
  20152360.4874   -1404821.13349  -1082743.68748                  20152357.1684
        49.2504         42.0004
  20476022.1764   -1205743.93449   -930677.88748                  20476017.1534
        50.2504         40.7504
  22855560.1084    1237442.57849    946807.30547                  22855557.8284
        46.7504         31.2504
  24688576.0374    -245377.30149   -191063.67246                  24688575.8654
        37.5004         21.0004
 04  7 12 22 16 30.0000000  0  8G 1G11G13G16G20G23G25G 4
  20786094.3014   -1430119.35249  -1103589.59048                  20786091.8704
        50.5004         41.0004
  23718029.0634    1314787.37549   1006623.77047                  23718028.0434
        46.2504         27.2504
  23706725.8374   -2756803.69149  -2130809.81247                  23706724.3494
        42.0004         25.7504
  21861552.6674   -2328908.30149  -1792985.60947                  21861549.7444
        45.5004         34.5004
  20147728.2484   -1429162.96549  -1101711.35548                  20147725.0294
        50.2504         42.2504
  20471780.2684   -1228035.60249   -948048.02048                  20471774.9254
        51.2504         40.7504
  22860378.3814    1262763.80149    966538.11347                  22860376.5124
        47.5004         31.5004
  24680602.9794    -287280.10249   -223715.17646                  24680602.1604
        39.5004         21.0004
 04  7 12 22 16 45.0000000  0  8G 1G11G13G16G20G23G25G 4
  20781046.7234   -1456643.82849  -1124258.00848                  20781044.7004
        51.7504         41.5004
  23722976.7074    1340783.02749   1026880.07847                  23722975.2734
        45.0004         26.2504
  23696630.0764   -2809857.84849  -2172150.66447                  23696629.7084
        42.5004         26.5004
  21853554.5974   -2370939.73849  -1825737.37147                  21853551.6924
        47.7504         34.7504
  20143121.7424   -1453370.91849  -1120574.69548                  20143118.5184
        50.2504         41.7504
  20467549.6134   -1250268.34449   -965372.23448                  20467544.3944
        51.0004         40.7504
  22865203.1054    1288115.73849    986292.83247                  22865200.7404
        47.2504         32.0004
  24672651.2324    -329063.37549   -256273.57046                  24672651.3054
        37.7504         21.7504
 04  7 12 22 17  0.0000000  0  8G 1G11G13G16G20G23G25G 4
  20776007.6014   -1483125.10949  -1144892.77048                  20776005.4634
        51.2504         40.5004
  23727925.8014    1366792.55149   1047147.19547                  23727924.7604
        45.0004         26.0004
  23686537.5244   -2862897.18449  -2213479.98446                  23686535.8854
        43.0004         24.7504
  21845579.5524   -2412851.64849  -1858395.98047                  21845576.3694
        47.5004         34.7504
  20138540.6294   -1477445.75049  -1139334.31248                  20138537.4424
        50.7504         41.5004
  20463329.7014   -1272443.06249   -982651.23048                  20463324.5454
        50.7504         41.0004
  22870032.8634    1313497.25049   1006070.62947                  22870031.5434
        47.2504         31.5004
  24664722.4364    -370728.12548   -288739.60946                  24664722.5784
        35.0004         19.2504
 04  7 12 22 17 15.0000000  0  8G 1G11G13G16G20G23G25G 4
  20770976.7574   -1509562.39149  -1165493.25448                  20770974.4824
        51.5004         40.5004
  23732877.1554    1392816.26649   1067425.37946                  23732876.7884
        44.0004         25.2504
  23676446.6204   -2915921.00849  -2254797.21147                  23676445.7894
        43.0004         26.5004
  21837626.3024   -2454642.85949  -1890960.56247                  21837623.6314
        47.7504         34.7504
  20133984.8054   -1501386.58649  -1157989.52048                  20133981.5234
        50.2504         41.7504
  20459121.2994   -1294559.02349   -999884.45348                  20459116.0274
        50.7504         41.5004
  22874868.9734    1338908.86749   1025871.85947                  22874865.4804
        47.2504         31.7504
  24656817.5154    -412273.40649   -321112.49646                  24656816.8474
        37.0004         18.5004
 04  7 12 22 17 30.0000000  0  8G 1G11G13G16G20G23G25G 4
  20765953.9534   -1535956.09449  -1186059.77048                  20765952.0624
        50.7504         40.7504
  23737832.2624    1418853.52749   1087714.10946                  23737830.9564
        43.2504         23.2504
  23666359.5574   -2968929.71549  -2296102.67246                  23666358.6474
        40.5004         25.5004
  21829696.2674   -2496313.59049  -1923431.24647                  21829694.1594
        47.7504         35.0004
  20129454.1474   -1525193.64549  -1176540.47348                  20129451.3654
        50.5004         41.7504
  20454923.8334   -1316616.65649  -1017072.22348                  20454918.4644
        51.5004         41.2504
  22879710.3444    1364350.01249   1045696.10947                  22879707.9944
        47.0004         32.0004
  24648932.9044    -453699.30949   -353392.41846                  24648932.9484
        37.0004         19.5004
 04  7 12 22 17 45.0000000  0  8G 1G11G13G16G20G23G25G 4
  20760940.2884   -1562304.48849  -1206590.99248                  20760938.2314
        52.0004         41.2504
  23742789.6774    1444905.68449   1108014.45346                  23742788.5504
        43.7504         25.5004
  23656275.7014   -3021921.52049  -2337394.94146                  23656274.6794
        41.2504         24.7504
  21821790.2664   -2537861.82049  -1955806.47747                  21821787.2124
        48.2504         34.7504
  20124949.7884   -1548865.16449  -1194985.82048                  20124946.6324
        50.2504         41.7504
  20450738.0374   -1338614.22349  -1034213.18448                  20450732.4604
        50.7504         41.0004
  22884557.6254    1389822.18449   1065544.52347                  22884555.5324
        47.5004         32.2504
  24641073.9374    -495003.94149   -385577.82046                  24641072.5444
        36.5004         19.5004
 04  7 12 22 18  0.0000000  0  8G 1G11G13G16G20G23G25G 4
  20755934.5714   -1588608.56649  -1227087.67648                  20755932.6264
        52.0004         41.0004
  23747749.9054    1470971.33649   1128325.29746                  23747748.9294
        43.0004         23.0004
  23646194.5394   -3074897.50049  -2378674.93747                  23646193.8484
        41.5004         26.0004
  21813906.8674   -2579288.23849  -1988086.79747                  21813904.1134
        48.0004         35.5004
  20120470.9754   -1572401.78149  -1213326.05148                  20120467.6844
        50.0004         41.2504
  20446562.9864   -1360552.64549  -1051308.06648                  20446557.9074
        52.0004         41.2504
  22889409.3264    1415324.13349   1085416.17247                  22889408.0374
        46.0004         31.5004
  24633236.6324    -536188.18048   -417669.45746                  24633236.1854
        35.0004         18.5004
 04  7 12 22 18 15.0000000  0  8G 1G11G13G16G20G23G25G 4
  20750937.4734   -1614868.59849  -1247550.03948                  20750935.5384
        52.2504         41.7504
  23752713.0724    1497049.87149   1148646.18446                  23752711.2154
        44.0004         22.5004
  23636116.0664   -3127858.00449  -2419942.83647                  23636115.3274
        41.5004         26.7504
  21806047.0494   -2620592.82849  -2020272.18747                  21806044.5744
        48.0004         35.2504
  20116017.7614   -1595803.61749  -1231561.25048                  20116014.6224
        49.7504         41.2504
  20442399.7264   -1382432.14549  -1068357.02748                  20442394.6024
        51.0004         41.0004
  22894268.2754    1440855.39149   1105310.63747                  22894267.0194
        47.0004         31.7504
  24625423.0984    -577252.28148   -449667.44146                  24625421.8594
        35.5004         19.5004
 04  7 12 22 18 30.0000000  0  8G 1G11G13G16G20G23G25G 4
  20745948.5074   -1641084.62549  -1267978.10948                  20745946.9194
        52.0004         41.5004
  23757677.9924    1523140.75049   1168976.69546                  23757676.3864
        43.5004         23.0004
  23626041.3634   -3180802.96549  -2461198.57447                  23626040.5774
        40.5004         26.7504
  21798210.3434   -2661775.36749  -2052362.45347                  21798207.8464
        47.5004         36.2504
  20111590.4154   -1619070.71949  -1249691.46548                  20111586.9624
        49.2504         42.0004
  20438247.5374   -1404252.78149  -1085360.12148                  20438242.0094
        50.5004         41.0004
  22899132.3584    1466415.59049   1125227.65247                  22899129.7904
        45.5004         30.7504
  24617631.3334    -618196.11749   -481571.69946                  24617629.6004
        36.0004         20.0004
 04  7 12 22 18 45.0000000  0  8G 1G11G13G16G20G23G25G 4
  20740968.1114   -1667256.81249  -1288372.02348                  20740966.4044
        51.0004         40.7504
  23762644.8594    1549243.55149   1189316.49646                  23762643.6144
        43.2504         24.0004
  23615969.3984   -3233732.50449  -2502442.35947                  23615967.8784
        40.7504         26.5004
  21790396.8014   -2702835.77749  -2084357.56647                  21790394.0654
        46.5004         35.0004
  20107188.2014   -1642203.02749  -1267716.64848                  20107184.9764
        49.7504         42.0004
  20434106.2964   -1426014.63349  -1102317.41048                  20434101.1494
        51.0004         40.7504
  22904001.5714    1492004.37549   1145166.97347                  22903999.8464
        46.7504         31.5004
  24609862.2134    -659019.41449   -513382.08646                  24609860.9224
        36.5004         20.0004
 04  7 12 22 19  0.0000000  0  8G 1G11G13G16G20G23G25G 4
  20735996.4924   -1693384.70349  -1308731.41448                  20735994.4704
        51.2504         40.7504
  23767614.3464    1575358.39849   1209665.67646                  23767613.7964
        44.0004         23.5004
  23605900.3624   -3286646.32049  -2543673.87146                  23605898.4404
        41.7504         24.2504
  21782606.2084   -2743773.39149  -2116256.98847                  21782603.6594
        47.7504         35.0004
  20102811.8674   -1665200.09849  -1285636.44548                  20102808.9244
        49.7504         41.7504
  20429976.4184   -1447717.39549  -1119228.64548                  20429971.3784
        50.7504         40.5004
  22908876.6514    1517622.01249   1165128.72347                  22908874.3774
        46.0004         30.5004
  24602117.5914    -699721.94148   -545098.32446                  24602115.8974
        34.7504         20.5004
 04  7 12 22 19 15.0000000  0  8G 1G11G13G16G20G23G25G 4
  20731032.7184   -1719468.66849  -1329056.58648                  20731030.3904
        51.0004         41.0004
  23772586.5434    1601484.55549   1230023.66446                  23772585.7894
        43.5004         25.0004
  23595833.5254   -3339544.80949  -2584893.45346                  23595832.6494
        40.0004         24.7504
  21774839.4484   -2784588.27049  -2148060.79747                  21774836.4694
        46.5004         35.2504
  20098461.4344   -1688062.12949  -1303451.02348                  20098458.1214
        48.7504         41.5004
  20425857.5894   -1469361.35249  -1136094.07048                  20425852.5524
        50.2504         41.2504
  22913757.0854    1543267.82449   1185112.44547                  22913755.5284
        46.2504         31.2504
  24594395.1704    -740303.68448   -576720.43746                  24594394.3494
        35.0004         20.5004
 04  7 12 22 19 30.0000000  0  8G 1G11G13G16G20G23G25G 4
  21025870.6524   -1745506.17249  -1349345.55548                  21025867.9864
        51.0004         40.7504
  24077352.1704    1627620.79349   1250389.52346                  24077351.6144
        43.0004         22.2504
  23885563.7124   -3392423.59049  -2626097.65646                  23885562.5154
        41.2504         25.0004
  22066889.4774   -2825276.71549  -2179766.05947                  22066886.7354
        46.2504         34.7504
  20393929.6504   -1710786.68049  -1321158.46948                  20393926.3764
        50.0004         41.7504
  20721542.9634   -1490944.34849  -1152911.98448                  20721537.8824
        51.5004         40.7504
  23218435.0674    1568940.56649   1205117.16047                  23218432.4934
        47.2504         31.2504
  24886488.8274    -780761.00849   -608245.61346                  24886487.7064
        37.0004         19.2504
 04  7 12 22 19 45.0000000  0  8G 1G11G13G16G20G23G25G 4
  21020923.8054   -1771501.47349  -1369601.63748                  21020921.4964
        51.0004         40.7504
  24082328.4344    1653769.29749   1270764.93046                  24082326.9064
        43.5004         23.2504
  23875502.8434   -3445290.58649  -2667292.64846                  23875502.3734
        40.5004         23.5004
  22059169.7744   -2865844.62149  -2211377.41047                  22059166.8974
        47.0004         35.2504
  20389630.7794   -1733377.46949  -1338761.68748                  20389627.7394
        50.2504         41.7504
  20717446.6734   -1512469.93049  -1169685.17248                  20717441.5064
        51.7504         41.2504
  23223325.3964    1594642.64549   1225144.74247                  23223323.9174
        45.7504         30.5004
  24878812.8454    -821100.07849   -639678.63746                  24878811.1164
        39.0004         21.7504
 04  7 12 22 20  0.0000000  0  8G 1G11G13G16G20G23G25G 4
  21015985.0784   -1797454.31249  -1389824.63348                  21015982.9654
        51.5004         41.2504
  24087305.4114    1679926.54349   1291147.17246                  24087304.6724
        42.0004         24.5004
  23865445.9844   -3498143.58649  -2708476.77746                  23865444.7224
        41.5004         25.5004
  22051472.6324   -2906290.48849  -2242893.66047                  22051469.7334
        47.2504         35.0004
  20385357.5054   -1755834.26249  -1356260.48448                  20385354.2444
        50.0004         41.7504
  20713361.3644   -1533938.14149  -1186413.64548                  20713355.7964
        51.0004         41.0004
  23228222.0074    1620370.73849   1245192.57047                  23228219.4694
        45.7504         30.5004
  24871157.7364    -861319.49649   -671018.43446                  24871157.7904
        39.0004         20.5004
 04  7 12 22 20 15.0000000  0  8G 1G11G13G16G20G23G25G 4
  21011055.1134   -1823361.96149  -1410012.40648                  21011052.6864
        51.5004         40.5004
  24092285.5484    1706094.90649   1311538.01647                  24092284.7434
        41.0004         25.7504
  23855391.0624   -3550980.05149  -2749648.03546                  23855390.3324
        41.2504         25.5004
  22043799.5924   -2946611.42649  -2274312.55947                  22043796.8004
        47.5004         35.5004
  20381110.3794   -1778154.25849  -1373652.69548                  20381106.7864
        50.5004         42.0004
  20709287.4344   -1555346.28549  -1203095.32448                  20709282.2514
        51.0004         41.5004
  23233122.5884    1646127.16049   1265262.50447                  23233120.7874
        45.5004         30.5004
  24863529.0964    -901416.50849   -702262.80946                  24863527.4474
        38.7504         20.5004
 04  7 12 22 20 30.0000000  0  8G 1G11G13G16G20G23G25G 4
  21006133.3904   -1849225.98049  -1430166.18748                  21006131.2054
        51.5004         40.7504
  24097267.1714    1732272.37149   1331936.00446                  24097266.1764
        40.5004         23.0004
  23845340.0684   -3603801.50449  -2790807.54746                  23845338.6124
        42.7504         22.7504
  22036151.0734   -2986808.70349  -2305635.09847                  22036147.4814
        47.7504         35.7504
  20376888.4064   -1800338.77349  -1390939.33248                  20376885.3454
        50.2504         42.0004
  20705224.9354   -1576695.84049  -1219731.34048                  20705219.7894
        51.0004         41.5004
  23238029.3874    1671910.27349   1285353.23047                  23238027.0624
        44.5004         30.5004
  24855921.2364    -941392.24249   -733412.72346                  24855920.4974
        37.7504         20.0004
 04  7 12 22 20 45.0000000  0  8G 1G11G13G16G20G23G25G 4
  21001219.6204   -1875046.10249  -1450285.76648                  21001217.6474
        51.0004         41.2504
  24102250.2434    1758458.89149   1352341.04746                  24102249.2574
        41.2504         24.5004
  23835290.7334   -3656607.69549  -2831955.21546                  23835289.2614
        41.5004         23.0004
  22028525.3234   -3026881.71949  -2336860.82447                  22028522.2154
        46.7504         35.2504
  20372692.8274   -1822387.45349  -1408120.12548                  20372689.5704
        49.5004         42.5004
  20701173.3584   -1597986.59449  -1236321.53948                  20701168.2374
        51.5004         41.5004
  23242940.8594    1697720.01249   1305464.69947                  23242937.8074
        45.7504         30.0004
  24848337.2734    -981246.62949   -764468.10246                  24848336.3924
        37.5004         21.5004
 04  7 12 22 21  0.0000000  0  8G 1G11G13G16G20G23G25G 4
  20996314.6964   -1900822.44549  -1470371.22348                  20996312.9754
        50.2504         41.0004
  24107234.4644    1784654.10249   1372752.85246                  24107234.1424
        41.7504         23.0004
  23825245.2034   -3709398.69949  -2873091.04346                  23825244.5084
        43.0004         24.5004
  22020923.4144   -3066830.51649  -2367989.74247                  22020920.0504
        45.5004         34.5004
  20368523.0924   -1844300.34049  -1425195.11348                  20368519.8864
        50.2504         42.2504
  20697133.2944   -1619218.60549  -1252865.97348                  20697127.9884
        51.5004         42.0004
  23247857.3124    1723556.06349   1325596.66047                  23247855.9164
        46.7504         30.2504
  24840777.6734   -1020979.40649   -795428.67246                  24840775.9274
        37.5004         21.0004
 04  7 12 22 21 15.0000000  0  8G 1G11G13G16G20G23G25G 4
  20991418.1174   -1926555.00849  -1490422.57848                  20991415.8634
        50.2504         40.5004
  24112221.6734    1810857.62149   1393171.10546                  24112220.6144
        42.7504         24.0004
  23815202.2424   -3762174.63749  -2914215.14546                  23815200.5934
        43.5004         23.0004
  22013345.0374   -3106654.74649  -2399021.59047                  22013341.3214
        46.2504         35.0004
  20364378.8644   -1866077.28949  -1442164.16848                  20364375.9154
        50.0004         42.2504
  20693104.0484   -1640391.87949  -1269364.62548                  20693098.6774
        51.5004         41.7504
  23252778.7514    1749418.19549   1345748.96547                  23252775.4754
        46.5004         30.2504
  24833239.0174   -1060590.52749   -826294.44546                  24833238.3624
        38.5004         22.0004
 04  7 12 22 21 30.0000000  0  8G 1G11G13G16G20G23G25G 4
  20986529.4014   -1952243.97749  -1510439.94948                  20986527.7514
        51.0004         40.2504
  24117209.2474    1837068.84849   1413595.39546                  24117208.6954
        43.7504         24.5004
  23805161.8874   -3814935.59049  -2955327.50846                  23805160.7804
        42.5004         25.5004
  22005790.2854   -3146354.24249  -2429956.25847                  22005787.0464
        47.2504         34.7504
  20360260.6984   -1887718.35249  -1459027.33648                  20360257.5044
        50.2504         42.0004
  20689085.8944   -1661506.54749  -1285817.61748                  20689080.9384
        51.0004         41.2504
  23257704.9414    1775306.00049   1365921.28147                  23257703.8834
        46.0004         30.2504
  24825724.2144   -1100079.96149   -857065.43746                  24825723.2374
        37.0004         21.0004
 04  7 12 22 21 45.0000000  0  8G 1G11G13G16G20G23G25G 4
  20981649.2154   -1977890.14849  -1530423.98848                  20981647.0774
        52.0004         40.7504
  24122198.2594    1863286.63749   1434024.78546                  24122198.0294
        43.5004         25.0004
  23795124.5244   -3867682.45349  -2996428.93446                  23795123.1734
        43.5004         25.0004
  21998259.4394   -3185929.69149  -2460794.25447                  21998256.1704
        47.5004         34.5004
  20356168.2354   -1909224.34849  -1475785.25448                  20356165.0234
        50.2504         42.0004
  20685078.7834   -1682563.46549  -1302225.59848                  20685073.6174
        50.7504         41.2504
  23262636.0064    1801218.37149   1386112.71147                  23262633.6564
        48.0004         31.0004
  24818232.4624   -1139448.61349   -887742.30146                  24818231.3524
        36.7504         20.5004
 04  7 12 22 22  0.0000000  0  8G 1G11G13G16G20G23G25G 4
  20976777.2724   -2003493.41849  -1550374.59048                  20976775.1614
        51.2504         41.0004
  24127188.2934    1889510.71549   1454459.07846                  24127188.1174
        42.2504         25.2504
  23785090.2984   -3920415.08649  -3037519.28546                  23785088.8774
        42.7504         24.7504
  21990751.9734   -3225380.57849  -2491535.19147                  21990748.5514
        46.5004         34.0004
  20352101.5074   -1930594.85249  -1492437.60248                  20352098.6504
        49.5004         42.0004
  20681083.1504   -1703562.34049  -1318588.36348                  20681077.8424
        51.5004         41.2504
  23267571.6724    1827155.25849   1406323.25047                  23267569.0644
        46.5004         30.2504
  24810763.9214   -1178695.89849   -918324.60246                  24810762.8494
        37.2504         21.5004
 04  7 12 22 22 15.0000000  0  8G 1G11G13G16G20G23G25G 4
  20971913.1694   -2029052.49649  -1570290.73848                  20971911.3924
        51.5004         41.0004
  24132180.3904    1915741.96549   1474898.94146                  24132179.5784
        42.7504         24.2504
  23775057.8284   -3973132.22749  -3078597.56646                  23775056.2164
        43.0004         24.5004
  21983268.8244   -3264705.53549  -2522178.01247                  21983265.4764
        47.5004         34.5004
  20348061.1364   -1951828.55549  -1508983.35248                  20348057.8474
        49.7504         42.0004
  20677098.5334   -1724502.00849  -1334904.99248                  20677093.3894
        51.5004         41.5004
  23272512.0544    1853117.53149   1426553.57047                  23272510.9884
        47.0004         30.5004
  24803318.5164   -1217820.57448   -948811.37546                  24803318.0084
        35.5004         21.7504
 04  7 12 22 22 30.0000000  0  8G 1G11G13G16G20G23G25G 4
  20967057.5434   -2054569.81649  -1590174.37548                  20967055.2744
        52.0004         41.0004
  24137173.1654    1941977.60949   1495342.28546                  24137171.6114
        43.0004         25.0004
  23765028.7964   -4025836.37149  -3119665.69146                  23765026.7664
        44.0004         24.0004
  21975809.2604   -3303906.83249  -2552724.46947                  21975805.5794
        47.5004         34.5004
  20344046.0284   -1972927.80949  -1525424.33648                  20344042.6614
        50.5004         42.0004
  20673124.4074   -1745384.91049  -1351177.38348                  20673119.2104
        51.5004         41.5004
  23277456.9044    1879102.59849   1446801.64847                  23277454.3624
        45.2504         30.0004
  24795897.0104   -1256825.09849   -979204.49646                  24795895.7084
        36.5004         21.2504
 04  7 12 22 22 45.0000000  0  8G 1G11G13G16G20G23G25G 4
  20962209.8364   -2080044.70749  -1610024.92648                  20962207.6684
        51.5004         41.2504
  24142165.8444    1968218.05949   1515789.33246                  24142165.2874
        41.5004         25.0004
  23755002.7144   -4078526.82049  -3160723.17646                  23755000.3034
        44.5004         23.0004
  21968373.1424   -3342983.35249  -2583173.69547                  21968369.7474
        48.2504         34.2504
  20340056.5694   -1993891.77049  -1541759.89148                  20340053.1464
        50.5004         41.5004
  20669161.5444   -1766210.25849  -1367404.92648                  20669156.1774
        51.5004         41.0004
  23282405.3954    1905110.84849   1467067.80947                  23282405.5664
        46.0004         31.7504
  24788497.4924   -1295708.54749  -1009503.26646                  24788496.6804
        36.0004         22.0004
 04  7 12 22 23  0.0000000  0  8G 1G11G13G16G20G23G25G 4
  20957370.1874   -2105475.56649  -1629841.18048                  20957368.4214
        52.0004         40.7504
  24147160.7074    1994464.42249   1536240.97746                  24147159.6934
        41.5004         22.7504
  23744978.3234   -4131202.10549  -3201768.81646                  23744976.8704
        43.5004         22.5004
  21960961.1534   -3381933.48449  -2613524.42647                  21960957.7184
        48.5004         34.2504
  20336093.0474   -2014718.87949  -1557988.80548                  20336090.3674
        50.5004         41.7504
  20665210.0464   -1786976.66849  -1383586.55148                  20665204.3914
        51.5004         41.0004
  23287360.3064    1931143.62949   1487353.06347                  23287357.8244
        45.5004         30.0004
  24781120.7284   -1334468.99248  -1039706.18746                  24781120.8924
        35.2504         21.5004
 04  7 12 22 23 15.0000000  0  8G 1G11G13G16G20G23G25G 4
  20952539.1004   -2130864.46149  -1649624.73848                  20952537.1474
        51.5004         41.2504
  24152156.5404    2020714.32049   1556695.39146                  24152155.6554
        41.7504         23.0004
  23734957.7224   -4183864.15249  -3242804.15646                  23734955.4754
        44.2504         24.5004
  21953572.9714   -3420758.92649  -2643778.01247                  21953569.3494
        49.0004         34.2504
  20332155.8134   -2035410.90249  -1574112.46548                  20332152.2174
        50.5004         42.0004
  20661269.0144   -1807685.99249  -1399723.68748                  20661263.6924
        50.7504         41.0004
  23292318.5024    1957198.75849   1507655.77047                  23292316.5624
        46.2504         30.7504
  24773768.2004   -1373108.72349  -1069815.02746                  24773767.6494
        36.5004         20.5004
 04  7 12 22 23 30.0000000  0  8G 1G11G13G16G20G23G25G 4
  20947716.3024   -2156209.60249  -1669374.19548                  20947714.0334
        51.7504         41.7504
  24157152.3254    2046968.99249   1577153.52346                  24157151.0884
        42.2504         23.5004
  23724939.2154   -4236511.17649  -3283827.77746                  23724936.2754
        43.7504         23.5004
  21946208.5034   -3459457.58649  -2673932.80547                  21946205.4464
        48.0004         34.2504
  20328244.0844   -2055966.05549  -1590129.46948                  20328240.8364
        49.7504         41.7504
  20657339.6164   -1828336.46549  -1415814.96548                  20657334.0034
        51.0004         41.0004
  23297281.2724    1983277.72349   1527976.98847                  23297278.7484
        47.0004         30.5004
  24766439.2934   -1411625.70749  -1099828.27746                  24766438.3504
        38.5004         21.7504
 04  7 12 22 23 45.0000000  0  8G 1G11G13G16G20G23G25G 4
  20942901.1434   -2181512.24649  -1689090.54348                  20942899.3994
        51.7504         41.0004
  24162149.1704    2073227.10949   1597614.34446                  24162148.2244
        43.0004         24.7504
  23714923.4094   -4289144.60549  -3324840.81646                  23714921.3194
        44.0004         24.0004
  21938868.5104   -3498030.59449  -2703989.67647                  21938865.2374
        47.5004         34.0004
  20324358.6334   -2076385.39549  -1606040.64548                  20324355.3314
        50.0004         41.5004
  20653420.5824   -1848929.32449  -1431861.34048                  20653415.4804
        51.5004         41.2504
  23302247.9204    2009379.00449   1548315.66847                  23302245.4344
        47.2504         31.0004
  24759131.7644   -1450020.98449  -1129746.65646                  24759131.6714
        38.0004         21.7504
 04  7 12 22 24  0.0000000  0  8G 1G11G13G16G20G23G25G 4
  20938094.4074   -2206772.29349  -1708773.68748                  20938092.5274
        51.7504         41.0004
  24167146.0304    2099488.43449   1618077.64146                  24167145.8604
        41.0004         23.0004
  23704909.7584   -4341764.30549  -3365843.18046                  23704908.6174
        43.0004         23.5004
  21931551.9214   -3536477.68449  -2733948.44947                  21931548.3574
        48.5004         34.7504
  20320498.7964   -2096668.85549  -1621845.94548                  20320495.5894
        49.7504         42.0004
  20649513.0614   -1869464.56649  -1447862.83248                  20649507.5204
        51.2504         41.2504
  23307219.1554    2035502.47349   1568671.56647                  23307217.9764
        46.0004         31.5004
  24751848.6564   -1488294.39149  -1159570.09046                  24751848.9384
        39.5004         21.0004
 04  7 12 22 24 15.0000000  0  8G 1G11G13G16G20G23G25G 4
  20933295.7024   -2231989.24649  -1728423.26248                  20933293.3424
        52.2504         41.5004
  24172144.4224    2125752.93849   1638543.46146                  24172143.9814
        41.5004         23.0004
  23694899.7384   -4394369.80949  -3406834.41846                  23694898.4604
        44.5004         25.2504
  21924259.9074   -3574798.09449  -2763808.50447                  21924256.3854
        47.5004         34.5004
  20316664.9264   -2116815.74649  -1637544.82448                  20316661.7544
        50.0004         41.7504
  20645616.2084   -1889941.63349  -1463818.98848                  20645611.2674
        52.0004         41.2504
  23312194.2994    2061648.22749   1589044.90647                  23312191.8294
        46.2504         31.5004
  24744589.6494   -1526445.38749  -1189298.14146                  24744588.7904
        40.7504         21.2504
 04  7 12 22 24 30.0000000  0  8G 1G11G13G16G20G23G25G 4
  20928505.3734   -2257163.02749  -1748039.20748                  20928503.1884
        51.5004         41.2504
  24177143.2584    2152020.32049   1659011.50046                  24177142.7124
        42.5004         22.0004
  23684891.9974   -4446960.95349  -3447814.52046                  23684889.8084
        45.0004         25.5004
  21916992.2564   -3612991.45749  -2793569.54747                  21916989.1414
        48.2504         34.5004
  20312857.1954   -2136825.89149  -1653137.15248                  20312853.7544
        50.2504         41.5004
  20641730.7614   -1910360.34849  -1479729.68048                  20641725.4114
        51.2504         41.5004
  23317174.0664    2087816.40249   1609435.64147                  23317172.2974
        46.7504         30.5004
  24737353.0744   -1564473.68449  -1218930.58246                  24737352.3804
        39.5004         21.0004
 04  7 12 22 24 45.0000000  0  8G 1G11G13G16G20G23G25G 4
  20923723.0054   -2282294.32849  -1767622.03148                  20923720.8404
        51.5004         41.5004
  24182142.0234    2178289.53149   1679480.97346                  24182141.5104
        43.5004         23.0004
  23674886.0754   -4499538.43449  -3488783.96546                  23674884.3054
        42.2504         23.5004
  21909748.3884   -3651058.15249  -2823231.90247                  21909745.4244
        48.0004         34.0004
  20309075.0324   -2156699.91449  -1668623.40648                  20309072.1004
        49.7504         41.2504
  20637856.1324   -1930721.37949  -1495595.41848                  20637850.7714
        51.2504         41.0004
  23322157.4214    2114005.97349   1629843.09447                  23322155.7024
        46.7504         29.5004
  24730139.5774   -1602379.82849  -1248467.82846                  24730138.6324
        39.5004         21.7504
 04  7 12 22 25  0.0000000  0  8G 1G11G13G16G20G23G25G 4
  20918948.9804   -2307382.12149  -1787170.96148                  20918946.7444
        52.0004         41.2504
  24187141.7594    2204561.33249   1699952.44946                  24187140.9104
        42.5004         22.5004
  23664884.1594   -4552101.31249  -3529742.02746                  23664882.3604
        44.7504         23.0004
  21902528.8014   -3688997.19549  -2852794.78547                  21902525.2234
        49.0004         35.2504
  20305319.9604   -2176436.67649  -1684002.69948                  20305316.3494
        49.5004         42.0004
  20633992.5934   -1951023.77749  -1511415.46548                  20633987.6764
        51.0004         41.7504
  23327145.0294    2140217.65649   1650267.76247                  23327143.3064
        45.7504         30.2504
  24722950.1724   -1640162.81249  -1277909.08646                  24722949.4384
        41.0004         22.2504
 04  7 12 22 25 15.0000000  0  8G 1G11G13G16G20G23G25G 4
  20914183.1134   -2332427.53149  -1806686.86748                  20914180.8284
        51.7504         41.2504
  24192140.7124    2230834.14849   1720424.70346                  24192139.7634
        42.5004         22.5004
  23654884.1864   -4604650.58249  -3570689.50446                  23654882.9374
        44.5004         25.0004
  21895333.4084   -3726809.28549  -2882258.73847                  21895330.2424
        49.5004         35.0004
  20301589.5404   -2196037.22349  -1699275.85948                  20301586.3924
        50.0004         42.0004
  20630140.2774   -1971268.60949  -1527190.66048                  20630135.0634
        51.2504         41.5004
  23332137.5194    2166450.17249   1670708.65647                  23332135.5174
        46.0004         30.5004
  24715783.0514   -1677823.52349  -1307255.12946                  24715782.6034
        39.7504         22.2504
 04  7 12 22 25 30.0000000  0  8G 1G11G13G16G20G23G25G 4
  20909425.0584   -2357431.05949  -1826170.13748                  20909422.6424
        50.7504         41.2504
  24197141.1914    2257107.12549   1740897.14546                  24197140.0914
        42.2504         22.5004
  23644887.1794   -4657186.90649  -3611626.85247                  23644885.1174
        44.5004         25.7504
  21888162.2174   -3764494.69949  -2911623.99247                  21888159.0654
        48.2504         36.0004
  20297885.7184   -2215501.85549  -1714443.11748                  20297882.4584
        49.0004         42.0004
  20626298.6574   -1991456.41849  -1542921.42248                  20626293.5004
        51.2504         42.0004
  23337133.2364    2192702.73849   1691165.17247                  23337130.7744
        45.7504         30.5004
  24708639.9894   -1715362.36349  -1336506.12946                  24708639.4734
        41.0004         22.2504
 04  7 12 22 25 45.0000000  0  8G 1G11G13G16G20G23G25G 4
  20904675.0634   -2382391.75849  -1845620.02748                  20904673.0514
        51.7504         40.7504
  24202140.3264    2283380.91049   1761370.16046                  24202140.0444
        42.5004         22.7504
  23634892.0554   -4709709.36449  -3652553.46947                  23634890.6514
        44.0004         27.0004
  21881015.1604   -3802052.21549  -2940889.57847                  21881011.9974
        49.0004         35.5004
  20294207.7624   -2234829.55149  -1729503.65248                  20294204.5504
        49.2504         41.7504
  20622468.2894   -2011586.20349  -1558606.97348                  20622462.7884
        51.7504         41.0004
  23342132.5084    2218976.14149   1711637.93847                  23342131.5794
        44.5004         29.5004
  24701519.6104   -1752778.34849  -1365661.45346                  24701519.3074
        40.5004         22.2504
 04  7 12 22 26  0.0000000  0  8G 1G11G13G16G20G23G25G 4
  20899933.7034   -2407309.14149  -1865036.16848                  20899931.3314
        51.5004         41.7504
  24207140.3504    2309655.52349   1781843.84046                  24207139.4874
        41.0004         23.0004
  23624899.9624   -4762217.64149  -3693468.92246                  23624898.0554
        42.5004         23.5004
  21873892.3364   -3839481.34449  -2970055.12547                  21873889.4584
        48.5004         36.0004
  20290555.7884   -2254019.85949  -1744457.14548                  20290552.8014
        48.7504         42.0004
  20618648.5714   -2031657.58249  -1574247.00048                  20618643.5314
        51.2504         41.2504
  23347136.7054    2245270.52049   1732127.04747                  23347134.0964
        44.0004         30.2504
  24694422.8554   -1790070.81249  -1394720.50046                  24694422.5624
        41.0004         21.5004
 04  7 12 22 26 15.0000000  0  8G 1G11G13G16G20G23G25G 4
  20895199.7484   -2432185.20749  -1884420.11348                  20895197.7024
        51.7504         41.5004
  24212139.4254    2335928.67249   1802316.38346                  24212139.2744
        41.2504         22.2504
  23614910.6904   -4814713.41849  -3734374.70347                  23614908.6514
        44.5004         26.0004
  21866794.1204   -3876783.68449  -2999121.87147                  21866790.9004
        50.0004         36.2504
  20286929.6754   -2273074.67649  -1759305.06248                  20286926.5954
        49.2504         41.5004
  20614839.9474   -2051672.29749  -1589842.88348                  20614834.6844
        51.0004         41.2504
  23352143.5044    2271583.53949   1752630.68047                  23352141.4714
        44.5004         29.5004
  24687349.0144   -1827241.69949  -1423684.83246                  24687349.2164
        39.5004         21.7504
 04  7 12 22 26 30.0000000  0  8G 1G11G13G16G20G23G25G 4
  20890473.9254   -2457018.72749  -1903770.90248                  20890472.0164
        52.0004         40.7504
  24217139.1694    2362201.27049   1822788.50046                  24217138.5994
        40.7504         21.7504
  23604923.3284   -4867195.66049  -3775269.93447                  23604921.1754
        44.5004         25.7504
  21859720.5274   -3913957.89549  -3028088.78547                  21859716.6054
        48.7504         35.5004
  20283329.8724   -2291992.62549  -1774046.31648                  20283326.3954
        48.2504         41.5004
  20611042.4834   -2071629.32849  -1605393.81248                  20611036.8214
        51.5004         41.2504
  23357155.0254    2297916.37149   1773149.75847                  23357151.8704
        42.7504         30.0004
  24680299.5334   -1864289.80149  -1452553.48046                  24680298.7304
        39.0004         21.2504
 04  7 12 22 26 45.0000000  0  8G 1G11G13G16G20G23G25G 4
  20885756.3144   -2481810.13349  -1923088.88348                  20885754.5414
        52.2504         41.0004
  24222138.6644    2388472.57849   1843259.60246                  24222138.2524
        40.7504         22.2504
  23594938.4494   -4919664.77049  -3816154.93746                  23594936.4274
        43.5004         25.0004
  21852670.7384   -3951004.07449  -3056955.92247                  21852667.3264
        49.5004         35.5004
  20279756.1034   -2310774.01649  -1788681.16848                  20279752.5734
        49.0004         41.7504
  20607255.2404   -2091529.10249  -1620900.12548                  20607250.1574
        51.0004         41.2504
  23362169.1494    2324268.22349   1793683.66447                  23362166.9054
        44.5004         30.5004
  24673273.0524   -1901215.32449  -1481326.60546                  24673272.1424
        40.5004         21.7504
 04  7 12 22 27  0.0000000  0  8G 1G11G13G16G20G23G25G 4
  20881046.8624   -2506558.03949  -1942372.96148                  20881045.4294
        52.5004         41.2504
  24227138.1724    2414743.44149   1863730.33646                  24227137.3294
        39.7504         22.0004
  23584956.8184   -4972119.35249  -3857028.59046                  23584955.5954
        42.2504         25.0004
  21845645.7564   -3987920.74249  -3085722.14547                  21845642.3244
        49.2504         36.2504
  20276207.9284   -2329417.45749  -1803208.52348                  20276205.0534
        48.5004         41.7504
  20603479.9594   -2111370.14849  -1636360.68448                  20603474.5234
        50.5004         41.0004
  23367187.6334    2350640.27349   1814233.28547                  23367186.2074
        45.5004         30.5004
  24666270.1124   -1938016.75849  -1510003.07446                  24666269.0354
        39.7504         21.7504
 04  7 12 22 27 15.0000000  0  8G 1G11G13G16G20G23G25G 4
  20876345.7324   -2531263.14849  -1961623.69948                  20876343.7384
        52.0004         41.0004
  24232136.5854    2441012.95749   1884200.07046                  24232136.2964
        39.2504         21.5004
  23574978.3384   -5024560.16849  -3897891.55947                  23574976.0754
        43.7504         26.7504
  21838645.2934   -4024708.28949  -3114387.76247                  21838642.1154
        49.0004         36.0004
  20272686.7844   -2347923.51249  -1817628.84048                  20272683.5314
        48.5004         41.7504
  20599715.5024   -2131153.11349  -1651775.98448                  20599709.9564
        50.7504         41.0004
  23372210.3644    2377031.54349   1834797.87147                  23372206.9744
        44.2504         30.2504
  24659289.5134   -1974694.82849  -1538583.36346                  24659290.0764
        40.0004         22.5004
 04  7 12 22 27 30.0000000  0  8G 1G11G13G16G20G23G25G 4
  20871652.4394   -2555926.12149  -1980841.59448                  20871650.4534
        51.5004         41.0004
  24237135.1244    2467279.99249   1904667.80946                  24237134.6104
        39.2504         21.2504
  23565001.4524   -5076987.96549  -3938744.31646                  23564999.9724
        43.0004         25.5004
  21831669.0334   -4061367.29749  -3142953.20347                  21831666.0274
        49.5004         36.0004
  20269191.2014   -2366292.73849  -1831942.52748                  20269188.1244
        49.2504         41.5004
  20595961.3334   -2150878.67249  -1667146.54748                  20595956.5184
        51.0004         41.5004
  23377235.0644    2403441.12949   1855376.78547                  23377233.7234
        44.2504         29.0004
  24652334.0114   -2011249.92649  -1567067.85246                  24652333.8394
        41.5004         22.2504
 04  7 12 22 27 45.0000000  0  8G 1G11G13G16G20G23G25G 4
  20866967.4274   -2580547.17249  -2000026.83248                  20866965.2754
        52.5004         41.0004
  24242133.0384    2493543.84449   1925133.11746                  24242132.4794
        37.7504         21.7504
  23555026.7904   -5129402.92649  -3979587.12147                  23555025.2914
        43.5004         25.7504
  21824717.2604   -4097897.74649  -3171418.48447                  21824714.3724
        49.0004         35.7504
  20265721.7084   -2384525.34449  -1846149.75448                  20265718.2374
        49.5004         41.5004
  20592218.8114   -2170547.04349  -1682472.54748                  20592213.5424
        51.0004         41.7504
  23382264.1514    2429868.63349   1875969.61347                  23382262.1014
        43.5004         29.0004
  24645401.6554   -2047682.23049  -1595456.64546                  24645401.0044
        42.2504         22.5004
 04  7 12 22 28  0.0000000  0  8G 1G11G13G16G20G23G25G 4
  20862290.3134   -2605125.27349  -2019178.59448                  20862288.3404
        52.2504         40.7504
  24247130.2464    2519805.30549   1945596.48846                  24247129.8554
        36.2504         20.0004
  23545055.6984   -5181803.98449  -4020419.07447                  23545054.0114
        44.0004         26.2504
  21817790.4164   -4134298.35549  -3199782.58247                  21817787.6434
        49.5004         35.5004
  20262278.1284   -2402620.18449  -1860249.62548                  20262274.7334
        49.0004         41.7504
  20588487.1114   -2190157.19949  -1697753.18048                  20588481.7624
        51.2504         41.7504
  23387297.1114    2456314.85549   1896577.05947                  23387294.4314
        44.0004         28.5004
  24638491.5144   -2083990.64549  -1623748.91846                  24638490.7074
        40.5004         22.0004
 04  7 12 22 28 15.0000000  0  8G 1G11G13G16G20G23G25G 4
  20857621.5644   -2629661.29349  -2038297.57048                  20857619.2724
        52.2504         41.2504
  24252127.4224    2546063.22749   1966057.16446                  24252126.0284
        37.5004         19.5004
  23535085.3444   -5234192.10549  -4061240.97746                  23535084.4354
        43.5004         25.5004
  21810888.1334   -4170569.84449  -3228046.07447                  21810885.5024
        49.0004         36.5004
  20258860.9834   -2420578.07449  -1874242.78948                  20258858.0154
        49.2504         41.2504
  20584766.5114   -2209710.08249  -1712989.19148                  20584760.9414
        50.5004         41.7504
  23392333.0164    2482778.76649   1917198.23847                  23392331.4504
        43.2504         28.5004
  24631605.9194   -2120176.08649  -1651945.35946                  24631604.9274
        41.0004         21.2504
 04  7 12 22 28 30.0000000  0  8G 1G11G13G16G20G23G25G 4
  20852960.4654   -2654153.63749  -2057382.50848                  20852958.7304
        52.0004         41.0004
  24257124.1054    2572318.75049   1986515.96946                  24257121.2844
        38.2504         18.5004
  23525119.3404   -5286565.64149  -4102051.48047                  23525118.7004
        43.7504         26.5004
  21804011.0354   -4206710.41449  -3256207.54747                  21804008.2884
        48.5004         36.0004
  20255470.0334   -2438397.37549  -1888127.96148                  20255466.9424
        49.0004         41.5004
  20581056.4334   -2229203.99249  -1728179.25448                  20581051.4384
        50.5004         41.5004
  23397371.4504    2509261.50849   1937834.14847                  23397368.9814
        43.5004         28.0004
  24624743.9944   -2156236.69949  -1680044.54346                  24624743.4004
        40.2504         21.7504
 04  7 12 22 28 45.0000000  0  8G 1G11G13G16G20G23G25G 4
  20848308.0314   -2678602.98449  -2076433.94148                  20848305.9094
        52.0004         41.5004
  24262118.5364    2598570.80949   2006972.08646                  24262117.7494
        38.0004         19.5004
  23515156.3514   -5338925.32049  -4142851.19147                  23515154.6764
        44.0004         26.2504
  21797158.5174   -4242720.53949  -3284267.36747                  21797155.4994
        49.7504         36.2504
  20252105.3974   -2456078.68049  -1901905.60948                  20252102.5994
        50.0004         41.7504
  20577358.1814   -2248639.57449  -1743323.86348                  20577352.8524
        50.7504         41.0004
  23402415.3674    2535762.34849   1958484.13347                  23402412.9264
        44.0004         28.5004
  24617905.4044   -2192173.12549  -1708046.95346                  24617904.8964
        40.5004         21.2504
 04  7 12 22 29  0.0000000  0  8G 1G11G13G16G20G23G25G 4
  20843663.3284   -2703010.04349  -2095452.43748                  20843661.3294
        52.7504         41.5004
  24267114.2324    2624818.30549   2027424.62146                  24267112.8974
        37.5004         21.0004
  23505194.2504   -5391271.86349  -4183640.68447                  23505192.9314
        44.5004         26.2504
  21790330.9574   -4278600.73049  -3312225.96147                  21790327.5584
        49.2504         36.0004
  20248767.1144   -2473622.60249  -1915576.19948                  20248763.6644
        49.5004         41.7504
  20573670.7704   -2268017.57449  -1758423.60548                  20573665.6934
        50.2504         41.2504
  23407461.7074    2562280.27749   1979147.43047                  23407459.4894
        45.0004         27.7504
  24611090.4824   -2227985.98449  -1735953.04346                  24611089.2344
        41.0004         21.0004
 04  7 12 22 29 15.0000000  0  8G 1G11G13G16G20G23G25G 4
  20839026.9534   -2727374.76649  -2114437.93448                  20839024.9404
        52.0004         41.5004
  24272108.2094    2651060.94549   2047873.37546                  24272106.6504
        39.5004         20.5004
  23495235.8904   -5443605.31649  -4224419.96547                  23495234.1674
        43.2504         25.7504
  21783527.6774   -4314350.69549  -3340083.06647                  21783524.9024
        48.7504         36.2504
  20245454.5094   -2491029.04749  -1929139.66848                  20245451.5584
        49.5004         41.0004
  20569994.2984   -2287337.95349  -1773478.44148                  20569989.1694
        51.0004         41.2504
  23412511.1304    2588815.06349   1999823.88747                  23412507.0244
        43.7504         27.2504
  24604299.0224   -2263675.06649  -1763762.73046                  24604298.3424
        39.5004         21.0004
 04  7 12 22 29 30.0000000  0  8G 1G11G13G16G20G23G25G 4
  20834398.8754   -2751696.12549  -2133389.63348                  20834396.6894
        51.7504         41.5004
  24277101.1524    2677299.49649   2068318.96546                  24277099.6374
        40.0004         21.0004
  23485279.1064   -5495924.58249  -4265188.18047                  23485278.1114
        43.7504         27.5004
  21776749.6324   -4349969.23849  -3367837.76647                  21776746.4034
        48.0004         35.2504
  20242168.9064   -2508297.00449  -1942595.21948                  20242165.7064
        49.7504         41.2504
  20566328.8624   -2306599.69149  -1788487.58248                  20566323.7194
        50.5004         41.2504
  23417563.9694    2615367.46949   2020514.03547                  23417562.3194
        44.5004         28.5004
  24597531.5344   -2299239.45749  -1791475.22746                  24597531.1064
        39.5004         20.5004
 04  7 12 22 29 45.0000000  0  8G 1G11G13G16G20G23G25G 4
  20829778.6094   -2775975.33249  -2152308.50048                  20829776.4594
        52.2504         42.0004
  24282093.1524    2703532.32449   2088760.05946                  24282091.3634
        41.5004         20.0004
  23475326.0244   -5548230.91849  -4305946.34046                  23475325.0394
        43.7504         25.2504
  21769996.3364   -4385457.38749  -3395490.85947                  21769993.4214
        48.5004         36.0004
  20238908.5604   -2525427.43049  -1955943.60248                  20238905.4944
        48.5004         41.5004
  20562674.4214   -2325803.96549  -1803451.95348                  20562669.3274
        50.0004         41.5004
  23422619.3954    2641936.05149   2041216.79347                  23422616.7334
        43.0004         26.5004
  24590787.6764   -2334680.10249  -1819091.31246                  24590786.0484
        40.0004         20.0004
 04  7 12 22 30  0.0000000  0  8G 1G11G13G16G20G23G25G 4
  20825166.6754   -2800211.70349  -2171193.97748                  20825164.3174
        52.2504         41.7504
  24287083.6134    2729759.71149   2109197.00046                  24287082.6704
        39.5004         20.0004
  23465375.5784   -5600523.60549  -4346693.84446                  23465373.9114
        44.0004         25.5004
  21763268.2504   -4420814.34049  -3423041.72747                  21763265.3844
        48.2504         35.7504
  20235675.3264   -2542419.57849  -1969184.24248                  20235671.8924
        50.0004         41.7504
  20559031.2014   -2344950.09049  -1818371.00848                  20559025.8434
        49.5004         41.2504
  23427678.7534    2668521.32049   2061932.60247                  23427675.6594
        43.7504         28.0004
  24584067.1654   -2369996.33249  -1846610.43046                  24584065.6214
        40.2504         19.2504
 04  7 12 22 30 15.0000000  0  8G 1G11G13G16G20G23G25G 4
  20820562.7054   -2824405.36749  -2190046.18448                  20820560.6374
        52.0004         41.2504
  24292073.8834    2755981.26649   2129629.30946                  24292072.8744
        39.5004         20.0004
  23455426.9904   -5652802.74649  -4387430.82447                  23455425.4874
        43.5004         27.0004
  21756565.1494   -4456039.90649  -3450490.21547                  21756561.7044
        48.5004         35.7504
  20232468.4374   -2559273.57849  -1982317.22748                  20232465.1304
        49.5004         41.7504
  20555398.6514   -2364038.09449  -1833244.78148                  20555393.8224
        49.7504         41.0004
  23432740.0484    2695123.08249   2082661.20747                  23432739.4364
        42.7504         28.0004
  24577370.2944   -2405188.08649  -1874032.62546                  24577368.7434
        40.0004         21.0004
 04  7 12 22 30 30.0000000  0  8G 1G11G13G16G20G23G25G 4
  20815966.8504   -2848557.79749  -2208866.26248                  20815964.6664
        51.5004         41.2504
  24297061.8624    2782194.99249   2150055.57846                  24297061.7604
        39.5004         21.0004
  23445480.6924   -5705069.79749  -4428158.35547                  23445479.6284
        44.0004         26.0004
  21749887.0474   -4491135.41049  -3477837.34847                  21749883.3344
        48.0004         36.0004
  20229286.8094   -2575990.96549  -1995343.77348                  20229283.5964
        49.2504         41.5004
  20551776.9724   -2383069.40649  -1848074.37548                  20551771.9954
        50.0004         41.0004
  23437805.5334    2721739.47349   2103401.25047                  23437802.0204
        43.0004         28.2504
  24570696.5764   -2440256.89149  -1901358.93446                  24570695.6464
        39.7504         20.0004
 04  7 12 22 30 45.0000000  0  8G 1G11G13G16G20G23G25G 4
  20811378.6954   -2872667.59049  -2227653.10948                  20811376.7664
        52.5004         41.2504
  24302049.1354    2808401.94149   2170476.51646                  24302048.0904
        39.5004         21.0004
  23435536.7304   -5757323.43049  -4468875.44947                  23435535.5574
        45.0004         25.7504
  21743233.6344   -4526099.38349  -3505082.00047                  21743229.7734
        48.0004         36.0004
  20226132.0494   -2592570.22749  -2008262.68448                  20226128.6424
        49.0004         41.5004
  20548166.6064   -2402042.78149  -1862858.82448                  20548161.4494
        48.7504         41.2504
  23442873.2084    2748371.56349   2124153.51647                  23442871.5414
        42.5004         28.0004
  24564047.1294   -2475201.19549  -1928588.22746                  24564046.3624
        40.2504         20.5004
 04  7 12 22 31  0.0000000  0  8G 1G11G13G16G20G23G25G 4
  20806798.9354   -2896734.66049  -2246406.66048                  20806796.9014
        52.5004         41.0004
  24307034.9334    2834601.98749   2190892.09046                  24307033.3534
        39.5004         22.0004
  23425595.6854   -5809563.84049  -4509582.23447                  23425594.5534
        44.0004         27.5004
  21736604.9524   -4560931.45749  -3532223.87147                  21736601.5544
        48.0004         36.5004
  20223003.6134   -2609011.14549  -2021073.78148                  20222999.9784
        50.0004         41.7504
  20544567.5104   -2420958.13349  -1877598.05148                  20544561.9584
        50.2504         41.2504
  23447945.0674    2775019.21549   2144917.86747                  23447943.4774
        43.2504         28.5004
  24557421.0134   -2510020.85249  -1955720.41446                  24557419.7994
        38.5004         18.5004
 04  7 12 22 31 15.0000000  0  8G 1G11G13G16G20G23G25G 4
  20802227.4674   -2920757.82049  -2265126.00848                  20802225.5664
        52.2504         41.2504
  24312020.1624    2860795.79749   2211302.87146                  24312018.2624
        40.5004         22.0004
  23415657.6594   -5861789.83649  -4550277.78547                  23415656.5594
        44.0004         26.5004
  21730002.3324   -4595630.27749  -3559261.89547                  21729999.0694
        47.5004         36.5004
  20219901.2614   -2625312.46949  -2033776.11748                  20219897.9354
        49.7504         41.7504
  20540979.0074   -2439814.31649  -1892291.18448                  20540973.4634
        49.5004         41.0004
  23453018.8624    2801683.38749   2165695.14147                  23453015.6704
        43.0004         27.2504
  24550818.8934   -2544714.79349  -1982754.61746                  24550818.0924
        39.5004         18.5004
 04  7 12 22 31 30.0000000  0  8G 1G11G13G16G20G23G25G 4
  20797664.3524   -2944737.89149  -2283811.78948                  20797662.1654
        52.5004         41.2504
  24317002.3054    2886982.28949   2231707.87546                  24317001.8704
        38.5004         21.7504
  23405721.7304   -5914001.97349  -4590962.52747                  23405720.3624
        44.5004         27.5004
  21723424.7784   -4630196.50449  -3586196.60947                  21723420.9444
        48.0004         37.0004
  20216825.7314   -2641475.07849  -2046370.36348                  20216822.5404
        49.0004         42.2504
  20537402.1064   -2458612.05149  -1906938.77048                  20537396.1464
        49.2504         41.0004
  23458095.2224    2828362.92649   2186484.39147                  23458093.2464
        41.7504         28.5004
  24544239.3944   -2579283.63349  -2009691.38746                  24544239.7184
        39.2504         19.0004
 04  7 12 22 31 45.0000000  0  8G 1G11G13G16G20G23G25G 4
  20793108.9444   -2968676.43449  -2302465.19948                  20793106.6874
        52.5004         41.0004
  24321984.4344    2913159.56349   2252105.71546                  24321983.4304
        38.0004         20.5004
  23395789.4864   -5966201.99649  -4631637.85947                  23395786.9794
        45.2504         26.7504
  21716871.5424   -4664631.45749  -3613029.03147                  21716868.1174
        47.5004         36.0004
  20213775.9114   -2657500.33649  -2058857.58648                  20213772.9144
        50.2504         42.0004
  20533835.5104   -2477352.85949  -1921542.00448                  20533830.3294
        48.5004         40.5004
  23463175.9894    2855056.18049   2207284.27047                  23463173.2314
        42.2504         28.2504
  24537686.0484   -2613728.68448  -2036531.71546                  24537685.4554
        35.5004         19.2504
 04  7 12 22 32  0.0000000  0  8G 1G11G13G16G20G23G25G 4
  20788561.5944   -2992572.88749  -2321085.80948                  20788559.4564
        52.0004         41.0004
  24326963.3194    2939327.79349   2272496.49246                  24326963.4684
        37.5004         21.5004
  23385858.2674   -6018389.27749  -4672303.24647                  23385856.4044
        46.0004         27.0004
  21710344.1634   -4698934.32849  -3639758.53147                  21710340.8004
        47.5004         36.2504
  20210753.0914   -2673387.61749  -2071237.29748                  20210749.6644
        50.2504         41.7504
  20530280.2774   -2496036.16049  -1936100.42248                  20530274.3904
        47.5004         41.2504
  23468256.8994    2881763.46949   2228095.15647                  23468254.4704
        41.0004         28.7504
  24531155.2104   -2648049.43049  -2063275.13746                  24531154.3214
        37.0004         20.5004
 04  7 12 22 32 15.0000000  0  8G 1G11G13G16G20G23G25G 4
  20784022.0844   -3016427.84849  -2339674.08648                  20784019.9744
        51.7504         41.0004
  24331941.4024    2965485.82049   2292879.28546                  24331940.9664
        36.7504         21.0004
  23375928.8944   -6070564.39149  -4712959.14847                  23375928.0344
        45.0004         26.0004
  21703841.5504   -4733105.70749  -3666385.56647                  21703838.4224
        46.7504         36.7504
  20207755.5314   -2689137.53949  -2083509.96148                  20207752.7964
        49.2504         41.7504
  20526736.0124   -2514662.57849  -1950614.51648                  20526730.6634
        47.5004         41.5004
  23473342.7704    2908483.96949   2248916.28147                  23473340.5824
        42.5004         29.5004
  24524647.4494   -2682246.55149  -2089922.24246                  24524647.2924
        36.0004         20.5004
 04  7 12 22 32 30.0000000  0  8G 1G11G13G16G20G23G25G 4
  20779490.5254   -3040241.42249  -2358230.11348                  20779487.8294
        52.0004         41.2504
  24336917.7304    2991633.50048   2313254.04346                  24336916.9564
        34.5004         21.2504
  23366002.6974   -6122727.45349  -4753605.65247                  23366001.4364
        45.0004         26.5004
  21697363.5264   -4767145.38349  -3692909.98447                  21697360.8614
        47.0004         37.0004
  20204784.7564   -2704750.15249  -2095675.64148                  20204781.8234
        49.0004         41.7504
  20523202.2794   -2533232.24249  -1965084.37948                  20523196.7974
        48.2504         41.7504
  23478429.0564    2935217.20349   2269747.38347                  23478427.1524
        41.7504         29.0004
  24518162.9324   -2716319.91849  -2116472.90246                  24518162.3704
        37.5004         20.0004
 04  7 12 22 32 45.0000000  0  8G 1G11G13G16G20G23G25G 4
  20774966.9254   -3064012.09449  -2376752.71148                  20774964.3404
        52.2504         41.5004
  24341891.1294    3017771.94148   2333621.57046                  24341891.1724
        35.5004         22.2504
  23356079.4754   -6174877.05949  -4794241.67647                  23356077.4014
        45.7504         28.0004
  21690911.8194   -4801051.81249  -3719330.56247                  21690908.4614
        46.7504         36.5004
  20201840.2974   -2720223.94149  -2107733.14148                  20201836.8644
        50.0004         41.7504
  20519679.5374   -2551743.50449  -1979508.73048                  20519674.4894
        48.0004         41.2504
  23483518.8644    2961964.63749   2290589.49647                  23483517.1414
        42.5004         28.7504
  24511703.6684   -2750267.87949  -2142925.87946                  24511702.2444
        38.0004         20.0004
 04  7 12 22 33  0.0000000  0  8G 1G11G13G16G20G23G25G 4
  20770451.6924   -3087739.13749  -2395241.31248                  20770449.6624
        52.0004         41.7504
  24346863.5964    3043901.44949   2353982.15246                  24346863.0074
        37.0004         22.2504
  23346157.9144   -6227012.57449  -4834866.71947                  23346156.8104
        45.7504         27.2504
  21684484.9834   -4834824.05549  -3745646.59047                  21684481.7784
        48.2504         36.7504
  20198922.3294   -2735558.10949  -2119681.84848                  20198919.2074
        50.0004         41.7504
  20516168.2044   -2570195.80549  -1993887.14848                  20516163.3014
        50.2504         41.0004
  23488612.3794    2988726.70749   2311443.02747                  23488609.4744
        43.5004         29.7504
  24505266.7754   -2784089.78949  -2169280.61746                  24505266.6484
        37.2504         19.5004
 04  7 12 22 33 15.0000000  0  8G 1G11G13G16G20G23G25G 4
  20765944.7284   -3111424.27749  -2413697.27348                  20765942.2884
        52.0004         41.7504
  24351833.7734    3070019.85549   2374334.10546                  24351833.0464
        36.5004         23.0004
  23336238.8904   -6279135.59449  -4875482.02047                  23336238.2584
        45.5004         28.0004
  21678083.4034   -4868463.60249  -3771859.21547                  21678080.3534
        47.0004         36.5004
  20196030.5304   -2750754.28949  -2131523.03148                  20196027.3864
        49.5004         41.2504
  20512667.5314   -2588590.71149  -2008220.84448                  20512662.9194
        49.2504         41.2504
  23493707.1764    3015501.51249   2332306.50047                  23493704.9844
        41.5004         29.0004
  24498855.1394   -2817787.41849  -2195538.50046                  24498854.2174
        38.5004         19.2504
 04  7 12 22 33 30.0000000  0  8G 1G11G13G16G20G23G25G 4
  20761445.6594   -3135066.59849  -2432119.85548                  20761443.4084
        52.5004         41.2504
  24356802.8824    3096127.78149   2394677.85246                  24356802.2074
        39.5004         22.7504
  23326323.5204   -6331245.26249  -4916086.93047                  23326321.4264
        45.2504         27.7504
  21671707.4534   -4901969.34449  -3797967.56247                  21671704.6724
        49.2504         37.2504
  20193165.0244   -2765811.52349  -2143255.94548                  20193161.9454
        50.0004         41.5004
  20509178.4104   -2606927.36749  -2022509.14848                  20509173.1974
        49.0004         41.5004
  23498804.9104    3042289.64849   2353180.37147                  23498802.8754
        39.7504         29.0004
  24492466.3594   -2851359.60949  -2221698.62546                  24492465.2334
        36.7504         20.0004
 04  7 12 22 33 45.0000000  0  8G 1G11G13G16G20G23G25G 4
  20756955.4174   -3158665.99249  -2450509.00048                  20756952.8224
        52.0004         41.5004
  24361769.0144    3122224.98449   2415013.30147                  24361768.4414
        38.0004         26.0004
  23316409.8354   -6383341.44149  -4956681.34847                  23316408.0934
        44.5004         27.7504
  21665357.1974   -4935341.05549  -3823971.48847                  21665354.4074
        48.2504         37.0004
  20190326.8174   -2780729.71149  -2154880.50848                  20190323.4044
        50.5004         41.5004
  20505700.5294   -2625205.69949  -2036752.01248                  20505694.9744
        50.5004         41.5004
  23503905.3614    3069091.07049   2374064.55947                  23503902.9174
        43.0004         28.5004
  24486101.3374   -2884806.20349  -2247760.90646                  24486101.3424
        38.0004         20.5004
 04  7 12 22 34  0.0000000  0  8G 1G11G13G16G20G23G25G 4
  20752472.8714   -3182221.79749  -2468864.16848                  20752470.4864
        52.5004         41.7504
  24366733.0274    3148311.69949   2435340.55547                  24366732.6524
        39.5004         26.0004
  23306498.4674   -6435423.57449  -4997264.79347                  23306497.3714
        45.0004         27.0004
  21659031.9494   -4968577.89849  -3849870.32047                  21659029.3944
        48.2504         36.0004
  20187514.0384   -2795508.02349  -2166396.08648                  20187511.0214
        50.0004         41.5004
  20502233.3424   -2643424.99249  -2050948.86748                  20502227.8624
        49.5004         41.0004
  23509007.4264    3095906.11749   2394959.37947                  23509005.6074
        42.2504         27.7504
  24479760.6604   -2918126.57849  -2273724.81246                  24479759.8334
        38.5004         19.5004
 04  7 12 22 34 15.0000000  0  8G 1G11G13G16G20G23G25G 4
  20747997.8604   -3205735.83249  -2487186.79348                  20747995.6954
        52.0004         41.2504
  24371694.4084    3174385.70749   2455657.94147                  24371693.8494
        41.0004         26.0004
  23296590.5844   -6487493.56249  -5037838.77747                  23296588.8854
        45.7504         27.0004
  21652732.8784   -5001681.59849  -3875665.39847                  21652729.8894
        48.2504         36.2504
  20184728.4184   -2810148.41849  -2177804.18448                  20184724.7134
        49.2504         42.0004
  20498777.2144   -2661587.09849  -2065101.15248                  20498771.3534
        50.0004         41.5004
  23514112.2954    3122732.64849   2415863.15247                  23514110.3224
        42.5004         28.5004
  24473444.1114   -2951322.58649  -2299591.82446                  24473443.8384
        39.2504         21.0004
 04  7 12 22 34 30.0000000  0  8G 1G11G13G16G20G23G25G 4
  20743531.6724   -3229206.39849  -2505475.53948                  20743529.4494
        52.0004         41.2504
  24376654.0544    3200448.37149   2475966.46547                  24376653.9534
        42.5004         26.5004
  23286684.0724   -6539549.49649  -5078401.82047                  23286682.1994
        44.7504         25.7504
  21646458.9594   -5034650.18449  -3901355.19547                  21646456.4204
        46.2504         36.5004
  20181968.9324   -2824649.04749  -2189103.38348                  20181965.5964
        49.5004         41.5004
  20495332.2044   -2679690.28149  -2079207.52748                  20495326.9184
        48.5004         41.0004
  23519220.5454    3149572.36349   2436777.20747                  23519217.7284
        42.0004         29.0004
  24467150.6654   -2984392.27749  -2325360.40246                  24467150.9864
        38.7504         20.5004
 04  7 12 22 34 45.0000000  0  8G 1G11G13G16G20G23G25G 4
  20739073.2024   -3252635.19149  -2523731.75048                  20739071.3074
        52.5004         41.2504
  24381610.9944    3226497.64549   2496264.52747                  24381610.7864
        41.2504         27.0004
  23276780.5384   -6591593.16049  -5118955.30947                  23276779.2304
        44.5004         27.0004
  21640210.6954   -5067485.32849  -3926941.01647                  21640207.6114
        48.5004         35.7504
  20179235.5044   -2839011.73049  -2200295.08648                  20179232.5864
        50.5004         42.0004
  20491898.1944   -2697736.22349  -2093269.29748                  20491892.8034
        49.5004         41.0004
  23524329.2894    3176423.15249   2457699.87547                  23524327.7194
        42.0004         29.2504
  24460881.6654   -3017337.36349  -2351031.92246                  24460880.8454
        39.2504         21.0004
 04  7 12 22 35  0.0000000  0  8G 1G11G13G16G20G23G25G 4
  20734623.3174   -3276020.32849  -2541953.92648                  20734620.8814
        52.0004         41.5004
  24386565.6884    3252535.14849   2516553.44547                  24386565.9924
        41.5004         28.5004
  23266879.7194   -6643622.74249  -5159497.80547                  23266878.5524
        44.2504         26.5004
  21633988.0874   -5100184.98449  -3952421.25847                  21633984.9554
        46.7504         36.0004
  20176529.3284   -2853234.43749  -2211377.71948                  20176526.1034
        49.5004         42.0004
  20488475.1034   -2715723.11749  -2107285.05948                  20488469.7464
        48.7504         41.0004
  23529441.5744    3203286.60949   2478632.42647                  23529438.5364
        41.2504         29.0004
  24454636.4374   -3050155.94949  -2376604.82446                  24454636.7204
        37.0004         21.2504
 04  7 12 22 35 15.0000000  0  8G 1G11G13G16G20G23G25G 4
  20730181.1594   -3299362.27749  -2560142.45748                  20730179.4704
        52.0004         41.7504
  24391518.0614    3278560.00049   2536832.51247                  24391517.7514
        41.5004         27.5004
  23256981.5204   -6695638.80549  -5200029.77347                  23256979.9784
        46.0004         27.5004
  21627791.5884   -5132749.41849  -3977796.13747                  21627788.5244
        47.7504         36.0004
  20173849.4084   -2867317.64849  -2222351.65648                  20173846.0354
        49.5004         41.7504
  20485063.7644   -2733651.37949  -2121255.13748                  20485058.3944
        49.0004         41.2504
  23534555.3974    3230162.18849   2499574.41047                  23534553.6014
        41.5004         27.5004
  24448415.5204   -3082848.32449  -2402079.38346                  24448414.8204
        41.2504         22.2504
 04  7 12 22 35 30.0000000  0  8G 1G11G13G16G20G23G25G 4
  20725747.7754   -3322661.17249  -2578297.44148                  20725745.7954
        52.0004         41.2504
  24396467.9624    3304571.64149   2557101.28547                  24396467.7944
        41.7504         26.2504
  23247085.8104   -6747641.44149  -5240551.28947                  23247083.8724
        45.7504         27.0004
  21621620.2054   -5165178.51249  -4003065.54347                  21621617.3584
        47.5004         36.0004
  20171195.7844   -2881261.43449  -2233216.94548                  20171192.8034
        50.0004         42.0004
  20481663.0454   -2751521.08249  -2135179.58248                  20481658.0624
        49.5004         41.2504
  23539672.4984    3257049.41049   2520525.48447                  23539670.2664
        42.0004         29.0004
  24442218.9124   -3115414.75449  -2427455.84446                  24442216.3954
        41.0004         21.0004
 04  7 12 22 35 45.0000000  0  8G 1G11G13G16G20G23G25G 4
  20721321.9184   -3345918.00849  -2596419.64548                  20721320.1034
        51.7504         40.7504
  24401415.5464    3330568.68849   2577358.66847                  24401415.1874
        44.0004         27.5004
  23237192.7184   -6799631.60549  -5281063.09447                  23237190.3394
        44.5004         26.0004
  21615475.3874   -5197473.20749  -4028230.23847                  21615471.7154
        47.2504         36.0004
  20168568.8994   -2895066.70749  -2243974.31248                  20168565.5624
        50.0004         41.7504
  20478273.4284   -2769333.24649  -2149059.18448                  20478268.3524
        49.0004         41.7504
  23544790.6834    3283947.18049   2541484.75047                  23544788.9654
        42.0004         29.0004
  24436044.6634   -3147856.27049  -2452734.94546                  24436044.2194
        38.5004         20.5004
 04  7 12 22 36  0.0000000  0  8G 1G11G13G16G20G23G25G 4
  20716904.8354   -3369131.48849  -2614508.07048                  20716902.7594
        51.5004         41.0004
  24406359.3654    3356552.15649   2597605.49646                  24406360.1784
        43.7504         25.5004
  23227300.9914   -6851608.11349  -5321564.23047                  23227299.9474
        44.5004         25.7504
  21609355.6144   -5229632.08249  -4053289.09447                  21609352.0844
        45.5004         36.5004
  20165968.4544   -2908732.24649  -2254622.78148                  20165965.0884
        49.5004         42.0004
  20474895.3784   -2787086.76249  -2162893.10248                  20474890.0894
        47.2504         41.2504
  23549911.1634    3310856.39149   2562452.96147                  23549908.7234
        41.5004         27.7504
  24429895.8364   -3180171.39149  -2477915.55146                  24429895.1964
        38.7504         21.5004
 04  7 12 22 36 15.0000000  0  8G 1G11G13G16G20G23G25G 4
  20712494.9674   -3392303.21149  -2632563.94948                  20712493.1734
        51.7504         41.2504
  24411300.9634    3382519.97749   2617840.11346                  24411301.3704
        43.5004         24.5004
  23217412.4034   -6903572.60949  -5362056.02046                  23217410.8674
        44.0004         25.5004
  21603261.3394   -5261656.59449  -4078243.23047                  21603257.7564
        45.0004         36.5004
  20163394.1524   -2922259.64549  -2265163.61348                  20163391.0624
        50.0004         41.7504
  20471527.5634   -2804783.01649  -2176682.38748                  20471522.4454
        47.5004         41.5004
  23555033.6454    3337775.45349   2583428.83247                  23555032.0534
        41.5004         28.0004
  24423769.0964   -3212361.63749  -2502998.86746                  24423768.8134
        38.2504         21.7504
 04  7 12 22 36 30.0000000  0  8G 1G11G13G16G20G23G25G 4
  20708094.2514   -3415431.65649  -2650586.12148                  20708092.0914
        52.2504         41.7504
  24416240.3894    3408473.43049   2638063.53946                  24416239.9594
        44.5004         25.5004
  23207526.8434   -6955523.50449  -5402537.19547                  23207525.1744
        44.7504         26.7504
  21597193.2914   -5293545.04349  -4103091.37947                  21597189.7734
        47.0004         36.2504
  20160846.6414   -2935647.26649  -2275595.53148                  20160843.5244
        49.5004         41.7504
  20468171.3204   -2822420.53149  -2190425.91448                  20468166.2644
        49.0004         41.5004
  23560158.3354    3364705.37549   2604413.14147                  23560156.3814
        42.2504         28.5004
  24417669.3274   -3244425.62149  -2527983.78546                  24417668.3094
        40.2504         22.5004
 04  7 12 22 36 45.0000000  0  8G 1G11G13G16G20G23G25G 4
  20703701.3834   -3438517.07849  -2668574.75848                  20703699.1214
        52.0004         41.2504
  24421176.3594    3434411.84449   2658275.26646                  24421175.2424
        44.0004         24.0004
  23197643.4204   -7007461.12549  -5443008.04747                  23197641.3664
        44.2504         26.5004
  21591151.0014   -5325297.48449  -4127833.53547                  21591147.7484
        47.2504         36.0004
  20158325.5134   -2948895.49649  -2285918.81648                  20158322.4124
        50.0004         42.0004
  20464826.5364   -2839999.46549  -2204123.78148                  20464821.2334
        48.0004         41.5004
  23565284.5624    3391645.61749   2625405.55547                  23565283.1284
        42.5004         28.2504
  24411590.1634   -3276363.46149  -2552870.39146                  24411590.8364
        37.2504         21.7504
 04  7 12 22 37  0.0000000  0  8G 1G11G13G16G20G23G25G 4
  20699316.1224   -3461558.91049  -2686529.42648                  20699314.5824
        52.0004         41.2504
  24426108.6034    3460335.39849   2678475.39846                  24426108.6484
        43.5004         22.7504
  23187762.9234   -7059384.87949  -5483468.08246                  23187760.3504
        44.0004         24.7504
  21585134.2974   -5356913.28949  -4152469.20747                  21585131.3624
        48.5004         36.0004
  20155831.0724   -2962003.61349  -2296132.94148                  20155827.8974
        50.2504         42.0004
  20461492.4004   -2857519.30549  -2217775.60248                  20461487.2134
        49.5004         41.2504
  23570414.3174    3418596.60949   2646406.29347                  23570411.9954
        43.2504         28.5004
  24405537.2934   -3308174.59049  -2577658.27046                  24405536.7264
        39.5004         21.2504
 04  7 12 22 37 15.0000000  0  8G 1G11G13G16G20G23G25G 4
  20694939.5854   -3484558.13749  -2704450.90648                  20694937.9414
        52.2504         41.2504
  24431038.5434    3486242.85549   2698662.96546                  24431039.2624
        42.7504         22.2504
  23177883.6074   -7111295.74649  -5523918.09447                  23177882.2774
        44.2504         25.7504
  21579144.1214   -5388393.26649  -4176999.04347                  21579140.8984
        48.5004         36.0004
  20153363.2834   -2974972.55949  -2306238.61348                  20153359.9974
        50.0004         41.5004
  20458169.4104   -2874981.20349  -2231382.27748                  20458163.8854
        49.0004         41.5004
  23575544.0974    3445557.21149   2667414.55947                  23575542.1994
        43.0004         29.0004
  24399508.6114   -3339859.69949  -2602348.00446                  24399507.2714
        40.0004         22.7504
 04  7 12 22 37 30.0000000  0  8G 1G11G13G16G20G23G25G 4
  20690571.1684   -3507514.89849  -2722339.29348                  20690569.0094
        51.5004         41.2504
  24435966.3764    3512133.68049   2718837.59446                  24435966.1224
        43.2504         22.2504
  23168008.4004   -7163193.87149  -5564358.15647                  23168006.4884
        45.2504         27.2504
  21573179.3824   -5419737.43049  -4201423.06647                  21573176.0484
        48.7504         37.0004
  20150921.6414   -2987802.52749  -2316235.99648                  20150918.7184
        50.2504         42.2504
  20454857.4814   -2892385.07449  -2244943.73848                  20454852.2244
        49.7504         42.0004
  23580676.4214    3472527.15249   2688430.03547                  23580674.8284
        42.7504         27.0004
  24393502.3324   -3371419.18449  -2626939.79346                  24393502.1354
        40.7504         23.2504
 04  7 12 22 37 45.0000000  0  8G 1G11G13G16G20G23G25G 4
  20686211.0034   -3530428.24649  -2740193.85248                  20686208.5644
        52.2504         41.0004
  24440889.7814    3538008.39849   2738999.68446                  24440889.6694
        43.0004         20.5004
  23158134.8764   -7215078.35249  -5604787.61347                  23158133.3004
        45.0004         27.0004
  21567240.9314   -5450944.77049  -4225740.45747                  21567238.2664
        47.7504         36.2504
  20148507.2204   -3000492.45749  -2326124.25448                  20148503.6134
        50.2504         42.5004
  20451556.9244   -2909729.99649  -2258459.27048                  20451551.4594
        50.0004         41.7504
  23585811.7194    3499507.12549   2709453.40647                  23585808.1014
        45.2504         30.0004
  24387520.1324   -3402851.97349  -2651432.86346                  24387520.3644
        41.0004         23.0004
 04  7 12 22 38  0.0000000  0  8G 1G11G13G16G20G23G25G 4
  20681859.1084   -3553298.30949  -2758014.67248                  20681856.8584
        52.0004         41.2504
  24445810.5014    3563866.59849   2759148.89146                  24445809.5774
        41.2504         18.5004
  23148264.5144   -7266949.32449  -5645206.53147                  23148261.9414
        44.2504         26.5004
  21561328.6444   -5482015.16449  -4249951.13747                  21561325.3834
        48.5004         35.7504
  20146118.4544   -3013042.68049  -2335903.65648                  20146115.6274
        49.5004         42.0004
  20448267.6624   -2927016.17249  -2271929.01648                  20448262.3134
        51.0004         42.0004
  23590946.1674    3526496.52049   2730484.05947                  23590945.7714
        43.7504         29.0004
  24381562.9834   -3434158.15649  -2675827.29746                  24381562.6794
        39.0004         21.5004
 04  7 12 22 38 15.0000000  0  8G 1G11G13G16G20G23G25G 4
  20677515.2884   -3576124.20749  -2775801.08648                  20677513.0934
        52.0004         42.0004
  24450727.6084    3589708.73849   2779285.58646                  24450726.8194
        42.2504         17.5004
  23138396.9824   -7318806.01249  -5685614.32847                  23138394.5944
        45.0004         27.2504
  21555442.0214   -5512947.57849  -4274054.31647                  21555438.8084
        48.5004         36.2504
  20143757.3304   -3025452.12949  -2345573.36348                  20143753.9084
        49.7504         41.5004
  20444989.6704   -2944242.54349  -2285352.15648                  20444984.2924
        52.0004         41.7504
  23596084.8464    3553496.20749   2751522.73847                  23596082.6574
        44.7504         28.5004
  24375630.1614   -3465336.87549  -2700122.36346                  24375630.1954
        39.0004         22.5004
 04  7 12 22 38 30.0000000  0  8G 1G11G13G16G20G23G25G 4
  20673179.7524   -3598908.28949  -2793554.92248                  20673177.8454
        51.7504         41.2504
  24455642.6924    3615531.99649   2799407.59846                  24455640.4544
        42.0004         18.2504
  23128530.3614   -7370650.73049  -5726012.77347                  23128528.0874
        43.0004         27.0004
  21549581.4334   -5543744.25049  -4298051.71147                  21549578.6854
        48.0004         36.2504
  20141422.3294   -3037723.20749  -2355135.24648                  20141419.0224
        50.0004         42.0004
  20441722.4714   -2961411.68449  -2298730.70748                  20441717.3034
        50.7504         41.7504
  23601223.5994    3580503.40649   2772567.34847                  23601220.8044
        43.5004         27.0004
  24369720.4494   -3496390.52749  -2724320.04346                  24369720.3654
        38.7504         22.5004
 04  7 12 22 38 45.0000000  0  8G 1G11G13G16G20G23G25G 4
  20668852.4504   -3621648.43449  -2811274.51248                  20668850.7734
        51.7504         41.7504
  24460553.2214    3641338.32849   2819516.37546                  24460551.5064
        40.2504         15.5004
  23118668.1154   -7422481.39849  -5766400.29747                  23118665.3204
        44.7504         26.7504
  21543747.5304   -5574403.05949  -4321941.68447                  21543744.6264
        48.0004         36.5004
  20139113.9344   -3049853.78549  -2364587.64548                  20139110.4864
        50.0004         41.5004
  20438466.4534   -2978521.39149  -2312062.93748                  20438461.2164
        50.7504         42.0004
  23606365.1314    3607520.28949   2793619.39847                  23606363.8104
        42.7504         29.0004
  24363836.0304   -3527316.78949  -2748418.41846                  24363835.4864
        37.5004         22.0004
 04  7 12 22 39  0.0000000  0  8G 1G11G13G16G20G23G25G 4
  20664533.2954   -3644345.29349  -2828960.37148                  20664531.7284
        51.0004         41.5004
  24465460.4184    3667126.79349   2839611.27046                  24465458.5144
        38.7504         14.0004
  23108806.9174   -7474298.66449  -5806777.37147                  23108805.4384
        43.7504         27.2504
  21537939.6584   -5604924.42649  -4345724.55947                  21537936.3844
        47.7504         36.5004
  20136832.4444   -3061844.46149  -2373931.03148                  20136829.0764
        50.0004         42.2504
  20435221.6664   -2995572.21149  -2325349.29348                  20435216.4504
        51.5004         42.0004
  23611507.9854    3634545.71549   2814678.14147                  23611506.3564
        45.0004         28.2504
  24357974.4604   -3558116.36748  -2772418.10546                  24357973.7074
        34.5004         21.5004
 04  7 12 22 39 15.0000000  0  8G 1G11G13G16G20G23G25G 4
  20660222.2184   -3666999.15249  -2846612.72748                  20660220.2404
        51.5004         42.0004
  24470364.7984    3692896.53149   2859691.61746                  24470361.8254
        39.0004         14.0004
  23098949.0744   -7526102.81649  -5847144.22747                  23098947.2204
        44.0004         27.5004
  21532157.5514   -5635308.57049  -4369400.50847                  21532154.3904
        48.0004         36.0004
  20134576.8044   -3073695.54349  -2383165.64148                  20134573.8894
        50.0004         42.0004
  20431988.1874   -3012564.60249  -2338590.11348                  20431982.8824
        50.5004         41.7504
  23616651.6094    3661579.29349   2835743.27747                  23616648.1344
        44.0004         26.2504
  24352137.6824   -3588789.75049  -2796319.41846                  24352137.2484
        36.5004         21.7504
 04  7 12 22 39 30.0000000  0  8G 1G11G13G16G20G23G25G 4
  20655919.6314   -3689608.77049  -2864230.61748                  20655917.9974
        52.5004         41.5004
  24475264.1044    3718648.49649   2879758.05546                  24475262.3044
        38.5004         15.5004
  23089093.6924   -7577892.68449  -5887499.93747                  23089091.7554
        43.5004         26.7504
  21526402.0014   -5665554.11349  -4392968.44947                  21526398.8354
        48.7504         36.5004
  20132348.6294   -3085405.85949  -2392290.56648                  20132345.6484
        50.7504         42.0004
  20428766.1084   -3029497.38349  -2351784.48448                  20428760.7614
        50.7504         41.5004
  23621798.0274    3688621.91049   2856815.43047                  23621797.0044
        45.5004         29.2504
  24346325.6484   -3619335.30949  -2820121.17646                  24346325.8914
        38.7504         23.0004
 04  7 12 22 39 45.0000000  0  8G 1G11G13G16G20G23G25G 4
  20651625.5574   -3712176.34449  -2881815.73848                  20651623.4484
        52.0004         42.0004
  24480161.0094    3744380.15649   2899808.63346                  24480159.2814
        39.5004         15.5004
  23079241.4014   -7629670.35549  -5927846.16847                  23079238.9984
        44.7504         28.0004
  21520672.3164   -5695663.00849  -4416429.91447                  21520668.9864
        48.7504         36.0004
  20130146.5834   -3096977.62949  -2401307.53948                  20130143.4794
        49.5004         42.0004
  20425554.5284   -3046372.59849  -2364934.00448                  20425549.5824
        51.2504         42.2504
  23626945.0894    3715671.25049   2877892.80947                  23626944.8964
        44.0004         27.5004
  24340536.1414   -3649755.56649  -2843825.23846                  24340536.7364
        39.0004         21.7504
 04  7 12 22 40  0.0000000  0  9G 1G11G13G16G20G23G25G 4G27
  20647338.9564   -3734701.35949  -2899367.69548                  20647337.1544
        51.2504         41.5004
  24485053.2804    3770091.55949   2919843.43846                  24485053.2594
        37.7504         14.7504
  23069389.7384   -7681435.45349  -5968182.61347                  23069387.9854
        43.7504         26.2504
  21514969.2214   -5725634.73449  -4439784.50447                  21514965.7864
        49.5004         36.0004
  20127970.4574   -3108410.23449  -2410216.06648                  20127967.6014
        49.7504         41.0004
  20422354.3894   -3063189.71549  -2378038.25448                  20422349.2324
        51.7504         41.2504
  23632094.4134    3742727.62949   2898975.67247                  23632090.7664
        43.5004         25.7504
  24334771.5884   -3680049.73049  -2867431.11746                  24334771.8284
        41.0004         21.2504
  24631954.8844     -46045.77059
        36.7504
 04  7 12 22 40 15.0000000  0  9G 1G11G13G16G20G23G25G 4G27
  20643060.7984   -3757182.96949  -2916885.84448                  20643059.1164
        51.0004         42.0004
  24489942.6194    3795783.25849   2939862.88746                  24489942.7714
        38.0004         17.5004
  23059542.2344   -7733187.14149  -6008508.55547                  23059540.0424
        43.7504         28.0004
  21509291.8984   -5755468.28949  -4463031.40647                  21509288.9364
        49.7504         36.0004
  20125821.8634   -3119702.89549  -2419015.54348                  20125818.6754
        49.5004         42.0004
  20419165.4254   -3079947.82849  -2391096.52048                  20419160.2844
        51.0004         41.2504
  23637243.9824    3769791.55549   2920064.50047                  23637242.8184
        45.2504         28.0004
  24329030.5094   -3710217.03949  -2890938.09846                  24329030.4634
        41.5004         21.2504
  24621007.7364    -103569.48849    -62861.77756                  24621010.6914
        37.0004         17.7504
 04  7 12 22 40 30.0000000  0  9G 1G11G13G16G20G23G25G 4G27
  20638790.9414   -3779622.47749  -2934371.16448                  20638788.8254
        51.5004         41.0004
  24494828.0484    3821453.44949   2959865.55946                  24494827.4874
        39.0004         18.2504
  23049696.2204   -7784926.74649  -6048825.11747                  23049694.3324
        44.5004         28.0004
  21503640.7764   -5785164.86349  -4486171.59047                  21503637.4194
        49.7504         36.5004
  20123699.3234   -3130856.87949  -2427706.96148                  20123696.2874
        50.0004         41.5004
  20415987.7694   -3096648.31249  -2404109.88748                  20415982.0954
        51.2504         41.2504
  23642394.4294    3796861.62149   2941157.95347                  23642395.2624
        42.5004         26.0004
  24323314.4514   -3740258.88349  -2914347.33246                  24323314.0234
        41.5004         22.2504
  24610068.7324    -161055.55949   -107656.04346                  24610070.2764
        37.7504         17.5004
 04  7 12 22 40 45.0000000  0  9G 1G11G13G16G20G23G25G 4G27
  20634528.9634   -3802020.64549  -2951824.28148                  20634526.6894
        51.5004         41.2504
  24499708.1564    3847101.14849   2979850.68846                  24499707.6404
        39.7504         19.0004
  23039852.6134   -7836655.04749  -6089132.86347                  23039850.4864
        45.5004         27.5004
  21498015.7924   -5814725.22349  -4509205.62947                  21498012.1864
        48.7504         36.2504
  20121603.2184   -3141873.05549  -2436291.00048                  20121600.1594
        50.2504         41.7504
  20412820.3984   -3113291.93749  -2417078.94548                  20412814.8474
        51.5004         41.5004
  23647548.3174    3823936.72349   2962255.42647                  23647544.6864
        46.2504         26.0004
  24317621.6204   -3770175.85549  -2937659.26246                  24317620.9704
        40.0004         22.2504
  24599137.3414    -218504.68449   -152421.55146                  24599137.5254
        37.7504         16.2504
 04  7 12 22 41  0.0000000  0  9G 1G11G13G16G20G23G25G 4G27
  20630274.3194   -3824377.64549  -2969245.32048                  20630272.2334
        52.0004         41.7504
  24504584.5464    3872725.86749   2999817.95746                  24504583.8874
        41.0004         19.5004
  23030011.4454   -7888372.19149  -6129431.89847                  23030009.6494
        45.0004         27.0004
  21492416.3484   -5844149.24649  -4532133.42247                  21492413.1374
        48.7504         36.7504
  20119533.2184   -3152751.55949  -2444767.75848                  20119529.7984
        50.2504         42.0004
  20409664.2304   -3129878.88349  -2430003.84048                  20409658.8594
        51.5004         41.2504
  23652699.6474    3851016.46549   2983356.57847                  23652697.9154
        43.2504         27.0004
  24311951.4214   -3799968.16849  -2960874.04746                  24311950.7734
        37.7504         22.5004
  24588211.8244    -275916.87149   -197158.31246                  24588211.9134
        37.5004         15.5004
 04  7 12 22 41 15.0000000  0  9G 1G11G13G16G20G23G25G 4G27
  20626027.7294   -3846693.16449  -2986634.02748                  20626025.3254
        51.2504         41.7504
  24509456.3444    3898327.48449   3019767.23446                  24509456.0364
        41.7504         19.5004
  23020172.8214   -7940077.88749  -6169722.05547                  23020170.3794
        42.7504         28.5004
  21486843.4964   -5873436.54749  -4554954.68447                  21486839.9764
        48.7504         36.5004
  20117489.2794   -3163492.02049  -2453136.95348                  20117486.0464
        49.7504         41.2504
  20406518.6574   -3146408.88349  -2442884.36348                  20406513.2974
        51.0004         41.5004
  23657855.0304    3878101.14149   3004461.39147                  23657855.3494
        45.0004         28.0004
  24306306.6634   -3829635.56648  -2983991.47746                  24306306.2194
        35.7504         21.7504
  24577293.4494    -333292.03149   -241866.12946                  24577294.2274
        38.0004         18.5004
 04  7 12 22 41 30.0000000  0  9G 1G11G13G16G20G23G25G 4G27
  20621788.8624   -3868967.96149  -3003991.01248                  20621786.9114
        52.0004         41.5004
  24514324.0174    3923904.77749   3039697.48846                  24514323.8044
        41.7504         22.2504
  23010334.6144   -7991773.05149  -6210003.96547                  23010332.6754
        43.5004         28.0004
  21481295.8984   -5902587.79349  -4577669.93447                  21481292.8234
        48.7504         36.0004
  20115471.4344   -3174095.29349  -2461399.24648                  20115468.6394
        49.5004         41.2504
  20403383.7104   -3162882.59449  -2455721.01648                  20403378.3444
        51.0004         41.5004
  23663009.7384    3905189.52349   3025569.25446                  23663007.0654
        44.7504         25.0004
  24300685.4784   -3859178.69549  -3007012.08646                  24300684.3434
        37.2504         22.2504
  24566382.3094    -390630.69149   -286545.58246                  24566382.2574
        37.7504         19.0004
 04  7 12 22 41 45.0000000  0  9G 1G11G13G16G20G23G25G 4G27
  20617557.9714   -3891200.78949  -3021315.28548                  20617556.2284
        52.0004         41.5004
  24519187.2494    3949458.72749   3059609.57846                  24519186.8314
        42.2504         22.5004
  23000499.4504   -8043456.32449  -6250276.61747                  23000497.3034
        44.5004         27.5004
  21475774.6254   -5931601.75049  -4600278.19547                  21475771.1594
        49.5004         36.5004
  20113480.3024   -3184560.09849  -2469553.63748                  20113476.7574
        50.0004         41.5004
  20400260.0514   -3179298.85249  -2468512.91048                  20400254.4934
        51.7504         42.0004
  23668164.5054    3932282.62149   3046680.72746                  23668162.2074
        42.5004         25.0004
  24295086.6224   -3888596.50449  -3029935.03546                  24295085.7564
        37.2504         21.0004
  24555478.0684    -447931.52349   -331195.50846                  24555478.7934
        39.2504         19.2504
 04  7 12 22 42  0.0000000  0  9G 1G11G13G16G20G23G25G 4G27
  20613335.3324   -3913392.16049  -3038607.26648                  20613333.1784
        51.7504         42.0004
  24524045.3204    3974988.54749   3079502.88746                  24524045.2194
        43.5004         24.5004
  22990666.7304   -8095128.07849  -6290540.29347                  22990665.2214
        43.2504         27.2504
  21470279.6594   -5960478.69549  -4622779.71547                  21470275.9064
        50.0004         36.7504
  20111515.1524   -3194887.00849  -2477600.57848                  20111511.9324
        50.0004         41.2504
  20397146.7124   -3195658.19949  -2481260.45348                  20397141.4394
        51.5004         41.7504
  23673321.5664    3959379.54749   3067795.19947                  23673321.8914
        44.5004         29.2504
  24289512.1644   -3917889.38749  -3052760.68446                  24289511.2654
        40.5004         21.7504
  24544581.0114    -505195.21149   -375816.52046                  24544581.8824
        38.2504         19.0004
 04  7 12 22 42 15.0000000  0  9G 1G11G13G16G20G23G25G 4G27
  20609120.3174   -3935541.31649  -3055866.34048                  20609118.5824
        51.7504         41.7504
  24528899.0674    4000494.59849   3099377.69146                  24528898.6524
        43.2504         24.0004
  22980836.4884   -8146787.75449  -6330794.56247                  22980834.9564
        43.7504         27.5004
  21464810.6534   -5989217.83649  -4645173.83247                  21464807.3434
        50.2504         36.7504
  20109576.1654   -3205075.17249  -2485539.40648                  20109573.1684
        50.0004         41.7504
  20394044.6204   -3211959.79349  -2493962.99248                  20394039.0914
        51.0004         42.0004
  23678477.8934    3986481.21549   3088913.35547                  23678478.3124
        43.0004         25.7504
  24283962.2654   -3947056.60549  -3075488.37946                  24283961.3474
        42.2504         21.7504
  24533691.0614    -562420.85949   -420407.85546                  24533692.2164
        38.5004         19.0004
 04  7 12 22 42 30.0000000  0  9G 1G11G13G16G20G23G25G 4G27
  20604914.1534   -3957646.77049  -3073091.36748                  20604911.8924
        52.0004         41.7504
  24533748.6284    4025977.99649   3119234.79746                  24533748.3354
        43.5004         25.0004
  22971008.5894   -8198433.97749  -6371038.32847                  22971006.9294
        43.0004         27.5004
  21459368.4044   -6017817.54349  -4667459.30547                  21459364.7484
        50.2504         36.5004
  20107664.2284   -3215123.24249  -2493369.07448                  20107661.1604
        49.5004         41.2504
  20390953.5464   -3228202.14849  -2506619.37148                  20390948.5284
        51.0004         41.5004
  23683637.8274    4013588.65249   3110036.03146                  23683634.0684
        44.7504         25.0004
  24278435.8624   -3976096.57449  -3098116.94546                  24278434.7974
        40.7504         22.0004
  24522809.8784    -619606.89149   -464968.34046                  24522810.1864
        39.7504         20.0004
 04  7 12 22 42 45.0000000  0  9G 1G11G13G16G20G23G25G 4G27
  20600715.2474   -3979710.71549  -3090284.05148                  20600713.2104
        51.7504         41.7504
  24538593.0364    4051436.05549   3139072.18847                  24538593.0434
        43.5004         25.7504
  22961182.5614   -8250068.83249  -6411273.27347                  22961180.4734
        43.7504         27.7504
  21453951.9684   -6046279.90649  -4689637.76247                  21453948.8594
        50.0004         36.5004
  20105778.0624   -3225033.35249  -2501091.23448                  20105774.9354
        49.5004         41.0004
  20387873.5594   -3244387.52349  -2519231.35248                  20387868.3074
        51.7504         41.2504
  23688796.5774    4040699.36749   3131161.27747                  23688795.7354
        45.5004         28.5004
  24272934.2164   -4005011.61349  -3120648.12946                  24272932.3914
        43.0004         21.5004
  24511934.4244    -676755.55149   -509499.71146                  24511935.5904
        41.0004         21.0004
 04  7 12 22 43  0.0000000  0  9G 1G11G13G16G20G23G25G 4G27
  20596525.1504   -4001731.48049  -3107443.08648                  20596523.2044
        51.0004         42.0004
  24543432.6364    4076870.20749   3158890.95747                  24543432.9914
        42.5004         25.7504
  22951358.5134   -8301690.73849  -6451498.10947                  22951357.5184
        41.5004         28.0004
  21448562.2994   -6074603.16049  -4711707.82447                  21448559.3034
        50.0004         37.0004
  20103918.9354   -3234804.04349  -2508704.77048                  20103915.6964
        49.7504         41.2504
  20384804.8544   -3260514.29749  -2531797.67248                  20384799.3904
        51.0004         41.7504
  23693955.2384    4067815.07849   3152290.27746                  23693955.8334
        42.7504         23.5004
  24267454.9694   -4033800.23049  -3143080.79746                  24267454.3934
        40.7504         21.0004
  24501067.0624    -733865.11349   -554000.61746                  24501068.3624
        42.0004         21.5004
 04  7 12 22 43 15.0000000  0  9G 1G11G13G16G20G23G25G 4G27
  20592342.9444   -4023707.77749  -3124567.46948                  20592340.9254
        52.0004         41.5004
  24548268.2364    4102281.44949   3178691.85546                  24548269.0864
        42.7504         24.2504
  22941538.6074   -8353298.52049  -6491711.92647                  22941536.3464
        43.5004         27.5004
  21443198.9354   -6102785.95349  -4733668.43747                  21443196.0994
        50.0004         37.0004
  20102086.3994   -3244433.94149  -2516208.58248                  20102083.3334
        50.0004         41.5004
  20381747.5154   -3276581.05149  -2544317.21548                  20381742.1554
        51.5004         42.0004
  23699118.0084    4094936.46149   3173423.87946                  23699113.3404
        45.7504         24.0004
  24262001.7334   -4062460.86749  -3165413.78946                  24262000.9464
        41.0004         20.5004
  24490207.1404    -790934.34849   -598470.08646                  24490208.6954
        40.5004         22.0004
 04  7 12 22 43 30.0000000  0  9G 1G11G13G16G20G23G25G 4G27
  20887962.3184   -4045637.20349  -3141655.33248                  20887960.1464
        52.0004         41.7504
  24852892.0144    4127668.58249   3198473.95346                  24852892.1934
        41.0004         22.2504
  23231514.4114   -8404887.58249  -6531911.16047                  23231511.3354
        44.5004         27.5004
  21737656.3874   -6130825.39149  -4755517.34447                  21737652.9974
        49.7504         37.0004
  20400073.2824   -3253921.45749  -2523601.46148                  20400070.6414
        49.2504         41.0004
  20678494.2524   -3292585.75449  -2556788.41448                  20678489.1524
        51.5004         42.0004
  24004070.3494    4122062.64549   3194561.18047                  24004070.3334
        43.0004         26.0004
  24556364.5364   -4090990.74649  -3187644.84446                  24556364.3684
        41.7504         21.7504
  24779148.4144    -847958.21949   -642904.25046                  24779149.4104
        40.7504         22.0004
 04  7 12 22 43 45.0000000  0  9G 1G11G13G16G20G23G25G 4G27
  20883797.4814   -4067524.35949  -3158710.25848                  20883795.5014
        51.7504         41.5004
  24857718.5244    4153032.92649   3218238.31646                  24857718.6784
        41.7504         22.5004
  23221698.9794   -8456466.53549  -6572102.53947                  23221696.6454
        42.5004         27.7504
  21732346.5694   -6158726.73449  -4777258.63747                  21732343.6984
        50.0004         37.0004
  20398294.6514   -3263269.57049  -2530885.71148                  20398291.4984
        50.0004         41.7504
  20675459.6834   -3308532.37949  -2569214.35248                  20675454.4264
        50.5004         41.5004
  24009235.7314    4149195.32849   3215703.39547                  24009235.2424
        44.7504         27.0004
  24550960.0774   -4119395.29349  -3209778.25046                  24550958.4554
        42.0004         21.7504
  24768303.7514    -904946.20349   -687310.39846                  24768304.9624
        40.0004         23.5004
 04  7 12 22 44  0.0000000  0  8G 1G13G16G20G23G25G 4G27
  20879640.7114   -4089367.71949  -3175731.05148                  20879638.4814
        52.0004         41.5004
  23211886.0024   -8508032.06649  -6612283.43747                  23211884.1614
        43.5004         27.5004
  21727063.6174   -6186488.03949  -4798890.81647                  21727060.7974
        49.5004         36.7504
  20396542.0544   -3272477.66449  -2538060.85248                  20396539.2414
        49.0004         42.0004
  20672436.4474   -3324419.75449  -2581594.12548                  20672431.1984
        51.2504         41.5004
  24014399.4134    4176332.41449   3236849.24246                  24014395.7724
        45.7504         25.5004
  24545578.4794   -4147672.83249  -3231812.69946                  24545577.1044
        42.2504         22.5004
  24757466.6404    -961894.37949   -731685.55146                  24757467.9704
        39.2504         22.5004
 04  7 12 22 44 15.0000000  0  8G 1G13G16G20G23G25G 4G27
  20875492.8424   -4111166.35949  -3192717.00448                  20875490.3814
        50.7504         41.5004
  23202076.0604   -8559583.04349  -6652452.99247                  23202074.3024
        42.2504         28.2504
  21721807.9704   -6214108.19149  -4820413.00447                  21721804.8794
        49.5004         37.0004
  20394817.0994   -3281544.71149  -2545126.09448                  20394813.9814
        48.7504         41.0004
  20669424.9714   -3340246.80549  -2593926.88348                  20669419.7294
        51.5004         41.5004
  24019562.4744    4203474.88349   3257999.22347                  24019562.0964
        41.2504         26.5004
  24540222.8544   -4175822.16049  -3253747.23846                  24540221.3444
        43.2504         22.2504
  24746637.7994   -1018801.84449   -776028.99646                  24746639.2304
        40.2504         22.2504
 04  7 12 22 44 30.0000000  0  8G 1G13G16G20G23G25G 4G27
  20871352.7994   -4132920.49649  -3209668.27748                  20871350.5674
        52.0004         41.5004
  23192269.3374   -8611119.89849  -6692611.56247                  23192266.7414
        45.5004         27.5004
  21716578.6134   -6241587.39849  -4841825.36347                  21716575.7854
        49.5004         37.0004
  20393118.5534   -3290471.09849  -2552081.72748                  20393115.3254
        50.0004         41.0004
  20666424.5634   -3356013.93749  -2606212.94948                  20666419.1984
        51.2504         41.7504
  24024731.1124    4230622.06349   3279152.76247                  24024729.9024
        46.5004         29.5004
  24534890.1424   -4203843.69949  -3275582.22346                  24534888.7954
        42.5004         22.2504
  24735816.2464   -1075668.82849   -820340.87146                  24735817.7884
        40.0004         22.7504
 04  7 12 22 44 45.0000000  0  8G 1G13G16G20G23G25G 4G27
  20867222.1214   -4154628.48449  -3226583.58648                  20867219.8884
        51.2504         41.7504
  23182464.9904   -8662640.98049  -6732757.82447                  23182463.0174
        43.0004         27.5004
  21711376.8804   -6268923.89849  -4863126.51647                  21711373.8074
        50.0004         37.7504
  20391446.5934   -3299255.20749  -2558926.49248                  20391443.4714
        50.0004         41.2504
  20663435.8764   -3371719.43049  -2618450.99648                  20663430.4954
        52.0004         42.0004
  24029897.6674    4257775.27049   3300311.11346                  24029894.8894
        44.7504         25.0004
  24529581.6564   -4231735.67649  -3297316.23446                  24529581.5144
        41.5004         22.0004
  24725002.5574   -1132493.48049   -864619.77346                  24725003.8964
        39.5004         22.7504
 04  7 12 22 45  0.0000000  0  8G 1G13G16G20G23G25G 4G27
  20863099.8144   -4176289.71949  -3243462.46148                  20863097.8154
        51.7504         41.5004
  23172663.4944   -8714145.53149  -6772891.23047                  23172661.9264
        44.0004         28.0004
  21706202.4414   -6296116.91449  -4884315.88347                  21706199.2544
        49.0004         37.5004
  20389802.5164   -3307896.43049  -2565659.91048                  20389799.2834
        50.2504         41.2504
  20660459.0794   -3387362.67249  -2630640.54348                  20660453.4974
        51.5004         41.5004
  24035064.9604    4284935.31649   3321474.76246                  24035060.7624
        41.5004         22.7504
  24524298.3594   -4259497.64149  -3318948.91446                  24524297.3174
        39.5004         21.7504
  24714197.0084   -1189275.09049   -908865.12946                  24714199.3844
        38.0004         22.7504
 04  7 12 22 45 15.0000000  0  8G 1G13G16G20G23G25G 4G27
  20858986.8914   -4197904.43449  -3260305.08648                  20858985.0244
        51.5004         41.2504
  23162866.0974   -8765633.96549  -6813012.05147                  23162863.6394
        45.0004         29.5004
  21701054.6014   -6323166.74249  -4905393.65247                  21701052.1464
        48.5004         37.5004
  20388185.1004   -3316395.00449  -2572282.18748                  20388182.4234
        50.2504         41.2504
  20657494.0374   -3402943.85949  -2642781.73448                  20657488.9344
        51.0004         41.5004
  24040236.6834    4312101.41449   3342643.13747                  24040235.0654
        46.5004         30.7504
  24519041.2194   -4287129.73849  -3340480.43746                  24519040.2234
        36.7504         22.5004
  24703400.3254   -1246014.06249   -953077.26246                  24703401.5644
        39.0004         22.2504
 04  7 12 22 45 30.0000000  0  8G 1G13G16G20G23G25G 4G27
  20854882.5164   -4219472.08249  -3277111.04348                  20854880.8624
        52.0004         41.7504
  23153071.3304   -8817105.66449  -6853119.84447                  23153068.9514
        43.5004         29.0004
  21695934.8814   -6350072.65649  -4926359.27747                  21695931.8954
        48.0004         37.2504
  20386595.2054   -3324750.43749  -2578792.91448                  20386591.8214
        50.2504         41.2504
  20654540.7674   -3418462.59849  -2654874.25448                  20654535.7914
        51.2504         41.7504
  24045405.4564    4339273.83249   3363816.40247                  24045404.8384
        44.0004         26.7504
  24513807.1604   -4314631.35948  -3361910.25446                  24513806.7004
        35.2504         21.7504
  24692610.9184   -1302709.84449   -997255.74646                  24692612.7004
        37.2504         21.7504
 04  7 12 22 45 45.0000000  0  8G 1G13G16G20G23G25G 4G27
  20850787.2594   -4240993.26249  -3293880.78948                  20850785.5514
        51.2504         41.7504
  23143279.8044   -8868561.26249  -6893215.08247                  23143278.0934
        44.5004         29.5004
  21690842.1204   -6376835.23849  -4947213.23047                  21690838.9794
        49.5004         37.0004
  20385032.4064   -3332963.44549  -2585192.67248                  20385029.1234
        49.7504         41.5004
  20651599.6684   -3433919.34449  -2666918.46948                  20651594.1624
        50.5004         41.5004
  24050577.3224    4366451.89549   3384994.08646                  24050573.7334
        43.2504         22.7504
  24508598.0214   -4342003.44548  -3383239.14146                  24508597.9074
        35.2504         22.0004
  24681830.5664   -1359363.04349  -1041401.03146                  24681832.0264
        40.2504         22.5004
 04  7 12 22 46  0.0000000  0  8G 1G13G16G20G23G25G 4G27
  20846701.0174   -4262468.07049  -3310614.39848                  20846698.9744
        50.5004         41.7504
  23133491.6484   -8920000.86349  -6933297.86347                  23133489.5154
        43.2504         29.0004
  21685776.5534   -6403454.48449  -4967955.49247                  21685773.5964
        49.2504         36.7504
  20383496.5794   -3341034.13349  -2591481.51648                  20383493.1604
        49.5004         41.2504
  20648670.1454   -3449314.16849  -2678914.43448                  20648664.9244
        51.2504         42.0004
  24055751.4784    4393635.25449   3406175.95747                  24055747.6024
        46.0004         28.7504
  24503414.3534   -4369245.80549  -3404466.94546                  24503413.8574
        38.0004         22.0004
  24671057.3134   -1415973.60949  -1085513.10546                  24671059.1604
        36.5004         22.7504
 04  7 12 22 46 15.0000000  0  8G 1G13G16G20G23G25G 4G27
  20842623.1814   -4283897.42249  -3327312.59848                  20842620.5894
        51.5004         42.0004
  23123705.5564   -8971425.47449  -6973368.91047                  23123703.3194
        44.7504         29.0004
  21680738.2524   -6429931.25449  -4988586.73447                  21680734.8474
        49.2504         37.5004
  20381987.4744   -3348963.41849  -2597660.18448                  20381984.5614
        50.0004         41.7504
  20645752.1054   -3464647.98849  -2690862.86748                  20645746.6874
        52.0004         41.5004
  24060923.3554    4420822.77749   3427361.00447                  24060923.9924
        42.5004         28.0004
  24498255.1224   -4396359.61749  -3425594.62146                  24498254.4024
        39.2504         22.7504
  24660293.5954   -1472542.40249  -1129592.62546                  24660294.4544
        39.5004         21.7504
 04  7 12 22 46 30.0000000  0  8G 1G13G16G20G23G25G 4G27
  20838553.6884   -4305281.97349  -3343975.87548                  20838551.2544
        51.5004         41.7504
  23113921.9484   -9022835.77349  -7013428.90247                  23113920.2314
        45.2504         30.2504
  21675726.7914   -6456266.14849  -5009107.41847                  21675723.6844
        49.5004         37.0004
  20380505.5624   -3356752.07049  -2603729.26248                  20380502.3374
        49.7504         41.5004
  20642845.6554   -3479921.60249  -2702764.37948                  20642840.1754
        51.5004         41.0004
  24066098.2554    4448013.64549   3448548.59047                  24066097.3714
        44.0004         26.2504
  24493119.2874   -4423345.52349  -3446622.57446                  24493119.0834
        39.5004         22.0004
  24649536.4624   -1529070.27349  -1173640.27746                  24649537.3504
        39.0004         22.7504
 04  7 12 22 46 45.0000000  0  8G 1G13G16G20G23G25G 4G27
  20834492.8994   -4326621.37949  -3360603.98448                  20834490.6934
        51.5004         41.2504
  23104141.6954   -9074231.35549  -7053477.37147                  23104139.8424
        44.2504         28.5004
  21670742.4094   -6482458.62149  -5029517.12947                  21670739.1524
        49.7504         37.0004
  20379050.3634   -3364399.78949  -2609688.52748                  20379046.9384
        50.0004         41.5004
  20639950.4754   -3495134.57449  -2714618.64848                  20639945.3734
        51.5004         41.5004
  24071275.0104    4475207.80149   3469738.91047                  24071269.2264
        46.2504         26.7504
  24488008.7884   -4450203.16449  -3467550.61746                  24488007.8544
        41.0004         21.7504
  24638786.9494   -1585556.73049  -1217655.65646                  24638788.4384
        39.2504         22.5004
 04  7 12 22 47  0.0000000  0  8G 1G13G16G20G23G25G 4G27
  20830440.9264   -4347915.18049  -3377196.54748                  20830438.5054
        51.0004         41.5004
  23094364.3864   -9125611.78149  -7093514.03547                  23094362.0794
        44.5004         29.2504
  21665785.3884   -6508508.27749  -5049815.54347                  21665782.1964
        50.2504         36.5004
  20377622.0824   -3371906.14549  -2615537.63748                  20377618.6494
        50.2504         41.7504
  20637067.4064   -3510286.48049  -2726425.33248                  20637062.1664
        51.7504         41.5004
  24076447.2494    4502405.55549   3490931.98847                  24076446.8604
        41.2504         27.0004
  24482922.8434   -4476931.98049  -3488378.26246                  24482921.9304
        41.7504         22.7504
  24628046.3364   -1642001.27049  -1261638.35546                  24628047.4234
        39.5004         22.7504
 04  7 12 22 47 15.0000000  0  8G 1G13G16G20G23G25G 4G27
  20826397.3394   -4369163.53549  -3393753.70748                  20826394.7574
        52.2504         41.7504
  23084590.1464   -9176977.30949  -7133539.07447                  23084587.9254
        45.5004         29.5004
  21660855.2384   -6534415.13749  -5070002.69147                  21660852.1624
        50.2504         36.5004
  20376220.1914   -3379271.38349  -2621276.79748                  20376217.3224
        49.0004         41.7504
  20634195.7984   -3525377.47349  -2738184.54348                  20634190.6184
        51.5004         41.5004
  24081626.3474    4529606.63349   3512127.45747                  24081625.2144
        43.5004         29.0004
  24477860.9074   -4503532.38349  -3509105.84846                  24477859.6144
        41.2504         22.5004
  24617313.2414   -1698404.12949  -1305588.57046                  24617314.8854
        40.0004         22.5004
 04  7 12 22 47 30.0000000  0  8G 1G13G16G20G23G25G 4G27
  20822361.9394   -4390367.98449  -3410276.65248                  20822360.0104
        50.5004         41.7504
  23074817.8504   -9228329.37549  -7173553.65247                  23074815.9754
        44.0004         29.0004
  21655952.0184   -6560180.77049  -5090079.80947                  21655949.0894
        50.0004         36.7504
  20374845.3194   -3386497.07849  -2626907.20748                  20374842.3334
        48.5004         41.7504
  20631335.1224   -3540409.06649  -2749897.46948                  20631330.1344
        51.5004         41.2504
  24086801.9254    4556808.97749   3533324.09847                  24086799.6694
        44.7504         27.5004
  24472822.9704   -4530005.95749  -3529734.59446                  24472822.2604
        39.7504         21.5004
  24606587.5784   -1754766.68049  -1349507.37546                  24606588.4814
        39.0004         21.7504
 04  7 12 22 47 45.0000000  0  8G 1G13G16G20G23G25G 4G27
  20818335.5184   -4411527.43049  -3426764.53148                  20818333.4944
        51.0004         41.7504
  23065048.3814   -9279666.87149  -7213556.85547                  23065046.2164
        44.0004         28.5004
  21651076.0014   -6585803.88749  -5110045.87147                  21651073.0444
        50.0004         36.7504
  20373497.1084   -3393582.18049  -2632428.06648                  20373493.7474
        47.5004         41.7504
  20628486.3354   -3555380.19949  -2761563.28948                  20628481.2934
        50.7504         42.0004
  24091976.4764    4584013.71549   3554522.67246                  24091974.9984
        40.2504         22.5004
  24467808.8914   -4556351.25849  -3550263.42246                  24467809.0454
        40.0004         20.5004
  24595869.9754   -1811087.90249  -1393393.98046                  24595870.7944
        40.0004         22.0004
 04  7 12 22 48  0.0000000  0  8G 1G13G16G20G23G25G 4G27
  20814317.8264   -4432641.09049  -3443216.73448                  20814316.0094
        49.5004         41.0004
  23055282.4864   -9330989.10549  -7253548.17647                  23055279.8034
        43.0004         28.0004
  21646227.7014   -6611283.78149  -5129900.32047                  21646224.2054
        49.7504         37.0004
  20372175.6474   -3400525.93749  -2637838.79748                  20372172.4824
        45.0004         41.2504
  20625648.8624   -3570290.11349  -2773181.39548                  20625643.9534
        51.0004         41.7504
  24097156.0964    4611221.52349   3575723.43847                  24097155.0964
        43.7504         27.2504
  24462820.3264   -4582568.00049  -3570692.03946                  24462820.0704
        41.5004         21.7504
  24585160.6114   -1867366.97349  -1437247.75046                  24585161.0964
        39.2504         21.5004
 04  7 12 22 48 15.0000000  0  8G 1G13G16G20G23G25G 4G27
  20810308.6124   -4453710.57849  -3459634.51648                  20810306.3504
        48.5004         41.0004
  23045519.1774   -9382297.74649  -7293528.90647                  23045516.5314
        43.5004         28.5004
  21641406.0644   -6636621.93049  -5149644.33247                  21641402.9814
        50.0004         37.2504
  20370880.7734   -3407330.03949  -2643140.69548                  20370877.9114
        45.7504         41.5004
  20622822.9864   -3585140.32049  -2784752.98048                  20622818.0294
        51.7504         41.7504
  24102334.1184    4638430.20349   3596924.97347                  24102332.9154
        44.7504         28.5004
  24457856.0624   -4608657.70749  -3591021.67646                  24457856.0114
        40.5004         22.2504
  24574458.7514   -1923605.58649  -1481070.01246                  24574459.1244
        39.2504         20.5004
 04  7 12 22 48 30.0000000  0  8G 1G13G16G20G23G25G 4G27
  20806307.6614   -4474734.86349  -3476017.07048                  20806305.3924
        50.0004         41.2504
  23035757.7414   -9433591.76249  -7333498.24647                  23035755.0884
        43.7504         29.2504
  21636611.7524   -6661817.23049  -5169277.02347                  21636608.3264
        50.2504         37.0004
  20369612.8044   -3413993.45349  -2648332.96948                  20369609.7224
        47.0004         41.5004
  20620008.8834   -3599929.82449  -2796277.27048                  20620003.1674
        51.7504         41.7504
  24107510.1144    4665640.88749   3618128.12546                  24107509.7524
        40.2504         22.7504
  24452915.1384   -4634619.27749  -3611251.48446                  24452915.3524
        42.0004         22.2504
  24563764.0404   -1979802.55149  -1524859.78946                  24563765.3474
        39.7504         21.0004
 04  7 12 22 48 45.0000000  0  8G 1G13G16G20G23G25G 4G27
  20802316.0224   -4495711.75449  -3492362.69148                  20802313.6784
        49.5004         41.5004
  23025999.5924   -9484868.98049  -7373454.49647                  23025997.5974
        43.0004         29.7504
  21631844.5914   -6686867.56249  -5188796.75047                  21631841.4494
        50.7504         37.2504
  20368372.2314   -3420514.23849  -2653414.10548                  20368369.0744
        46.7504         41.5004
  20617206.5684   -3614656.60949  -2807752.68448                  20617201.2594
        51.2504         41.5004
  24112690.6284    4692855.45749   3639334.19146                  24112687.2704
        40.5004         22.2504
  24447999.6504   -4660450.72349  -3631379.87146                  24447999.9634
        41.2504         21.7504
  24553078.6024   -2035955.78549  -1568615.48846                  24553080.4654
        40.2504         22.0004
 04  7 12 22 49  0.0000000  0  8G 1G13G16G20G23G25G 4G27
  20798332.7004   -4516643.32049  -3508672.99648                  20798330.5254
        48.0004         41.5004
  23016245.0914   -9536131.57849  -7413399.35247                  23016242.7164
        44.2504         29.5004
  21627105.1144   -6711774.80549  -5208204.97747                  21627101.7374
        50.7504         37.0004
  20367158.2974   -3426894.39849  -2658385.67248                  20367154.7454
        45.7504         41.5004
  20614415.6094   -3629322.70749  -2819180.80948                  20614410.1174
        51.5004         41.5004
  24117871.1194    4720071.38349   3660541.43847                  24117867.5594
        45.7504         28.0004
  24443108.9054   -4686154.11749  -3651408.51246                  24443108.4954
        41.7504         21.0004
  24542401.1274   -2092067.32049  -1612338.71546                  24542402.9694
        38.7504         21.0004
 04  7 12 22 49 15.0000000  0  8G 1G13G16G20G23G25G 4G27
  20794358.3364   -4537529.04349  -3524947.58248                  20794356.6794
        49.7504         41.7504
  23006492.9964   -9587378.91049  -7453332.30947                  23006490.7334
        42.2504         29.0004
  21622392.7634   -6736538.43749  -5227501.29347                  21622389.9734
        50.0004         37.0004
  20365970.5624   -3433133.50849  -2663247.32448                  20365967.7774
        46.5004         41.2504
  20611636.4454   -3643927.39849  -2830561.08248                  20611631.1004
        51.2504         41.5004
  24123047.9914    4747289.19949   3681750.11747                  24123048.6974
        41.2504         25.7504
  24438242.1604   -4711728.81649  -3671336.83646                  24438242.0094
        40.0004         21.5004
  24531731.3514   -2148136.58649  -1656028.99646                  24531733.0464
        38.7504         19.5004
 04  7 12 22 49 30.0000000  0  8G 1G13G16G20G23G25G 4G27
  20790392.3744   -4558369.28549  -3541186.73448                  20790390.4904
        50.7504         42.0004
  22996743.5444   -9638611.43749  -7493253.73447                  22996741.2364
        42.7504         29.0004
  21617707.4754   -6761158.82849  -5246686.00447                  21617704.6244
        49.5004         37.0004
  20364810.4154   -3439231.97749  -2667999.37948                  20364806.9594
        47.7504         41.0004
  20608868.6724   -3658471.19549  -2841893.91448                  20608863.5794
        51.2504         41.7504
  24128229.2354    4774508.42249   3702959.75446                  24128227.2614
        42.2504         22.7504
  24433399.9064   -4737175.53549  -3691165.42246                  24433398.8844
        40.5004         22.2504
  24521068.5684   -2204164.00049  -1699686.66046                  24521071.1404
        38.5004         20.0004
 04  7 12 22 49 45.0000000  0  8G 1G13G16G20G23G25G 4G27
  20786434.9534   -4579166.03549  -3557391.98848                  20786432.7594
        50.7504         41.7504
  22986996.9354   -9689831.14849  -7533165.16447                  22986994.4734
        43.5004         28.7504
  21613049.5274   -6785637.79749  -5265760.52047                  21613046.6264
        50.0004         37.0004
  20363676.0044   -3445191.90649  -2672643.48048                  20363672.9194
        48.5004         42.0004
  20606112.3584   -3672955.98449  -2853180.76248                  20606107.1534
        51.5004         41.0004
  24133408.8954    4801726.45749   3724168.68447                  24133404.6054
        46.2504         26.2504
  24428581.4334   -4762496.09449  -3710895.74646                  24428580.8294
        40.0004         21.5004
  24510415.1884   -2260151.55549  -1743313.26646                  24510415.9254
        39.5004         19.5004
 04  7 12 22 50  0.0000000  0  8G 1G13G16G20G23G25G 4G27
  20782486.5644   -4599916.76649  -3573561.39548                  20782484.5104
        51.5004         41.7504
  22977253.0514   -9741035.52049  -7573064.64547                  22977250.6114
        43.2504         28.2504
  21608418.5364   -6809972.86349  -5284722.89547                  21608415.3064
        50.2504         36.5004
  20362568.6964   -3451010.84049  -2677177.72348                  20362565.7834
        49.5004         42.0004
  20603367.6144   -3687379.41049  -2864419.78948                  20603362.4204
        52.0004         41.2504
  24138586.6664    4828945.81349   3745378.56647                  24138586.4874
        41.2504         27.0004
  24423787.8514   -4787688.08649  -3730525.85946                  24423787.1914
        41.2504         21.5004
  24499769.0854   -2316096.66849  -1786906.78546                  24499769.9484
        38.7504         19.5004
 04  7 12 22 50 15.0000000  0  8G 1G13G16G20G23G25G 4G27
  20778546.4414   -4620622.57449  -3589695.78948                  20778543.6834
        50.5004         41.5004
  22967511.7574   -9792225.60549  -7612953.00447                  22967509.0364
        42.5004         29.0004
  21603814.7674   -6834164.95749  -5303573.87147                  21603811.8834
        49.7504         36.5004
  20361488.0414   -3456689.94149  -2681603.01248                  20361485.3624
        48.7504         41.2504
  20600634.9084   -3701742.53149  -2875611.83648                  20600629.1634
        51.7504         41.2504
  24143767.0144    4856165.07449   3766588.25447                  24143767.3754
        43.5004         27.7504
  24419018.1044   -4812752.63749  -3750056.69546                  24419017.5114
        41.7504         21.7504
  24489131.2524   -2372000.41849  -1830468.10546                  24489131.8114
        40.2504         19.0004
 04  7 12 22 50 30.0000000  0  8G 1G13G16G20G23G25G 4G27
  20774614.9634   -4641282.34049  -3605794.30548                  20774612.2314
        50.2504         41.7504
  22957773.2284   -9843400.28949  -7652829.34447                  22957771.2654
        43.2504         28.5004
  21599238.3674   -6858213.11749  -5322312.69147                  21599235.7184
        49.7504         37.0004
  20360434.1414   -3462228.16849  -2685918.52048                  20360430.8884
        47.5004         41.7504
  20597913.1554   -3716044.19949  -2886755.99648                  20597907.5154
        51.2504         41.0004
  24148947.2614    4883385.19949   3787798.69546                  24148945.1694
        42.7504         23.2504
  24414272.8504   -4837688.79749  -3769487.44546                  24414272.4404
        42.0004         22.2504
  24478501.7454   -2427861.64849  -1873996.30146                  24478500.8144
        40.5004         20.0004
 04  7 12 22 50 45.0000000  0  8G 1G13G16G20G23G25G 4G27
  20770692.2694   -4661896.80549  -3621857.52748                  20770689.9704
        51.5004         42.0004
  22948038.2784   -9894560.42249  -7692694.35947                  22948035.5944
        44.2504         29.2504
  21594689.7554   -6882117.81649  -5340939.71947                  21594687.0294
        49.5004         37.2504
  20359407.1994   -3467626.34849  -2690124.89548                  20359404.0504
        49.0004         41.5004
  20595202.9954   -3730285.19149  -2897852.87548                  20595197.7494
        51.5004         41.5004
  24154127.6654    4910605.23049   3809009.21146                  24154123.2044
        44.2504         24.2504
  24409552.0554   -4862497.19949  -3788818.68446                  24409551.1154
        40.5004         22.2504
  24467879.0014   -2483681.16449  -1917491.99246                  24467878.6434
        38.5004         18.5004
 04  7 12 22 51  0.0000000  0  8G 1G13G16G20G23G25G 4G27
  20766777.7694   -4682465.32449  -3637884.93448                  20766775.8184
        48.5004         42.5004
  22938305.7304   -9945705.37549  -7732547.55147                  22938303.2894
        41.0004         29.5004
  21590168.2174   -6905878.50449  -5359454.53547                  21590165.3074
        49.2504         37.0004
  20358406.1744   -3472883.91849  -2694221.70748                  20358403.6494
        47.0004         41.7504
  20592504.7124   -3744464.77349  -2908901.89848                  20592499.2794
        51.0004         41.5004
  24159304.6194    4937825.73849   3830219.92646                  24159305.4084
        39.5004         22.5004
  24404855.1574   -4887177.42249  -3808050.00446                  24404854.8004
        38.5004         21.7504
  24457265.0394   -2539458.27349  -1960954.59446                  24457265.6824
        39.7504         19.2504
 04  7 12 22 51 15.0000000  0  8G 1G13G16G20G23G25G 4G27
  20762872.1304   -4702989.36349  -3653877.68748                  20762870.0834
        49.5004         42.0004
  22928575.4794   -9996836.69549  -7772390.11747                  22928572.9844
        44.0004         30.0004
  21585673.9984   -6929496.69949  -5377858.32047                  21585670.6854
        49.7504         37.2504
  20357432.5334   -3478002.42649  -2698210.15248                  20357429.3244
        47.2504         42.0004
  20589817.6344   -3758584.58249  -2919904.34048                  20589812.3744
        51.2504         41.0004
  24164487.9534    4965044.79349   3851429.49647                  24164485.1604
        45.0004         26.2504
  24400183.4974   -4911731.09849  -3827182.73846                  24400182.6804
        42.0004         22.5004
  24446657.8424   -2595194.59849  -2004385.47346                  24446659.1384
        40.0004         19.0004
 04  7 12 22 51 30.0000000  0  8G 1G13G16G20G23G25G 4G27
  20758975.7414   -4723466.63349  -3669834.00048                  20758973.6634
        50.0004         41.7504
  22918848.6494  -10047952.11749  -7812220.29747                  22918846.0834
        45.2504         29.0004
  21581206.8894   -6952969.98449  -5396149.18747                  21581204.2384
        50.0004         37.0004
  20356485.3074   -3482979.74249  -2702088.58248                  20356482.2204
        46.5004         42.0004
  20587142.9374   -3772642.18449  -2930858.31648                  20587137.3994
        51.5004         41.0004
  24169666.1924    4992264.51249   3872639.73047                  24169663.2434
        44.2504         25.7504
  24395535.3324   -4936155.75449  -3846214.95746                  24395534.6914
        42.5004         21.0004
  24436060.5274   -2650887.76649  -2047782.67246                  24436061.2844
        39.5004         19.0004
 04  7 12 22 51 45.0000000  0  8G 1G13G16G20G23G25G 4G27
  20755087.6834   -4743899.00449  -3685755.33248                  20755085.2444
        49.7504         41.5004
  22909123.8934  -10099053.39549  -7852039.44147                  22909121.7224
        43.5004         29.5004
  21576767.2184   -6976300.20349  -5414328.57047                  21576764.4974
        49.5004         37.0004
  20355564.6124   -3487817.68049  -2705858.40248                  20355561.2214
        47.2504         41.7504
  20584479.2484   -3786639.58649  -2941765.38748                  20584473.8354
        52.0004         41.0004
  24174846.0214    5019483.05949   3893848.89846                  24174843.3694
        43.2504         22.2504
  24390911.1354   -4960453.48449  -3865148.24246                  24390910.8334
        41.7504         21.0004
  24425470.8984   -2706539.62549  -2091147.71546                  24425470.9824
        40.5004         20.0004
 04  7 12 22 52  0.0000000  0  8G 1G13G16G20G23G25G 4G27
  20751208.0874   -4764285.98049  -3701641.28148                  20751205.6874
        51.0004         41.5004
  22899402.6904  -10150140.07849  -7891847.21547                  22899400.6504
        44.0004         29.0004
  21572355.0534   -6999486.83649  -5432396.07047                  21572351.7154
        50.2504         36.5004
  20354670.4904   -3492515.78149  -2709519.26648                  20354667.6394
        48.0004         41.7504
  20581826.8324   -3800576.26649  -2952625.14148                  20581821.6104
        51.7504         41.2504
  24180025.6134    5046700.40649   3915057.26246                  24180022.4454
        45.0004         24.7504
  24386312.1344   -4984623.74649  -3883982.19546                  24386310.9494
        41.0004         21.0004
  24414887.9014   -2762149.55949  -2134480.05946                  24414888.3474
        40.2504         19.5004
 04  7 12 22 52 15.0000000  0  8G 1G13G16G20G23G25G 4G27
  20747337.4374   -4784626.05149  -3717490.68748                  20747335.2984
        51.2504         41.5004
  22889683.9204  -10201210.62549  -7931642.43047                  22889682.0104
        43.5004         28.7504
  21567970.6814   -7022528.27349  -5450350.43447                  21567967.2294
        50.2504         36.7504
  20353803.3114   -3497072.75049  -2713070.15248                  20353800.2254
        49.5004         41.5004
  20579186.6754   -3814450.70349  -2963436.38748                  20579181.4774
        51.2504         41.5004
  24185204.2394    5073917.94149   3936265.69146                  24185203.0304
        43.7504         23.5004
  24381737.3774   -5008665.22749  -3902715.79346                  24381736.4014
        41.5004         20.5004
  24404314.1814   -2817716.17649  -2177778.68446                  24404313.7204
        40.5004         18.2504
 04  7 12 22 52 30.0000000  0  8G 1G13G16G20G23G25G 4G27
  20743474.9734   -4804921.42249  -3733305.26248                  20743473.3804
        50.2504         41.5004
  22879968.5854  -10252267.46149  -7971426.94947                  22879966.7084
        43.5004         30.0004
  21563612.7824   -7045426.79349  -5468193.42247                  21563609.9594
        50.0004         37.5004
  20352962.7484   -3501491.05949  -2716513.00048                  20352959.6764
        49.0004         42.0004
  20576558.0054   -3828265.17649  -2974200.91048                  20576552.6674
        52.0004         41.5004
  24190384.2264    5101133.19549   3957472.34846                  24190381.2444
        45.7504         25.2504
  24377185.9394   -5032580.10249  -3921350.78546                  24377185.7584
        42.5004         20.5004
  24393748.4024   -2873241.69549  -2221045.28546                  24393748.4784
        42.2504         20.5004
 04  7 12 22 52 45.0000000  0  8G 1G13G16G20G23G25G 4G27
  20739621.9734   -4825170.89849  -3749084.07048                  20739619.8294
        51.2504         41.5004
  22870255.7354  -10303309.37149  -8011199.83647                  22870253.2974
        45.0004         29.5004
  21559282.7984   -7068181.19549  -5485924.12547                  21559279.9504
        50.0004         37.2504
  20352148.7704   -3505769.49649  -2719846.85948                  20352145.4604
        49.0004         42.0004
  20573940.9174   -3842018.39849  -2984917.70748                  20573935.7104
        51.0004         41.2504
  24195562.2154    5128347.18049   3978678.07846                  24195558.9024
        44.2504         22.5004
  24372659.0914   -5056367.30549  -3939886.25846                  24372658.2524
        40.2504         20.5004
  24383189.8544   -2928725.04349  -2264279.02746                  24383189.9704
        41.7504         21.0004
 04  7 12 22 53  0.0000000  0  8G 1G13G16G20G23G25G 4G27
  20735777.3134   -4845374.85949  -3764827.42248                  20735775.1864
        51.2504         41.5004
  22860545.4214  -10354336.66449  -8050961.33647                  22860542.6664
        45.0004         28.7504
  21554980.1364   -7090791.79349  -5503542.75847                  21554976.7994
        49.2504         37.0004
  20351360.8784   -3509908.43049  -2723072.00448                  20351357.9344
        49.0004         41.5004
  20571335.0324   -3855710.75849  -2995587.08648                  20571330.0704
        50.7504         41.7504
  24200741.2154    5155559.34449   3999882.34046                  24200737.8564
        45.0004         25.0004
  24368157.4194   -5080027.18749  -3958322.52046                  24368156.3584
        40.5004         21.7504
  24372639.1344   -2984166.52749  -2307480.10946                  24372639.9144
        41.0004         21.5004
 04  7 12 22 53 15.0000000  0  8G 1G13G16G20G23G25G 4G27
  20731941.2534   -4865532.59449  -3780534.75448                  20731939.2624
        50.5004         41.2504
  22850837.6944  -10405348.48049  -8090710.78947                  22850835.6834
        44.2504         29.0004
  21550705.3974   -7113257.81249  -5521048.73847                  21550701.8114
        49.0004         37.0004
  20350599.8464   -3513907.29349  -2726188.00848                  20350596.9214
        49.5004         40.7504
  20568741.2654   -3869341.55549  -3006208.48448                  20568736.5144
        51.5004         41.7504
  24205918.9064    5182770.11749   4021085.52747                  24205917.6434
        45.0004         27.0004
  24363679.5514   -5103559.15649  -3976659.14146                  24363678.3484
        42.0004         21.0004
  24362097.8064   -3039565.25049  -2350647.91846                  24362098.1754
        41.7504         21.7504
 04  7 12 22 53 30.0000000  0  8G 1G13G16G20G23G25G 4G27
  20728114.3574   -4885643.19149  -3796205.34448                  20728112.3574
        51.2504         41.2504
  22841133.6804  -10456344.05949  -8130447.55947                  22841131.4374
        43.2504         29.0004
  21546457.8184   -7135578.26249  -5538441.29347                  21546454.6844
        50.2504         37.0004
  20349865.7324   -3517765.25049  -2729194.21548                  20349862.8274
        49.2504         41.2504
  20566159.5184   -3882909.86349  -3016781.18448                  20566154.3444
        51.5004         41.5004
  24211096.0744    5209980.43049   4042288.32446                  24211095.4454
        43.0004         22.5004
  24359225.9274   -5126962.51649  -3994895.52346                  24359225.2894
        40.2504         21.0004
  24351563.7434   -3094920.39149  -2393781.74246                  24351564.0334
        42.2504         22.2504
 04  7 12 22 53 45.0000000  0  8G 1G13G16G20G23G25G 4G27
  20724296.6294   -4905707.41849  -3811839.80548                  20724294.0484
        52.0004         41.2504
  22831433.1954  -10507324.08249  -8170172.21147                  22831430.1274
        46.0004         29.5004
  21542238.1534   -7157753.90649  -5555721.00447                  21542234.4514
        50.2504         37.0004
  20349158.3044   -3521483.08249  -2732091.23448                  20349155.3164
        50.0004         41.7504
  20563589.1244   -3896416.47749  -3027305.82048                  20563583.8604
        50.7504         41.7504
  24216273.7144    5237189.02349   4063489.83246                  24216271.6114
        44.2504         23.0004
  24354796.8964   -5150238.08249  -4013032.31646                  24354795.4214
        41.2504         20.5004
  24341037.7594   -3150232.75049  -2436882.21546                  24341039.2314
        41.7504         22.2504
 04  7 12 22 54  0.0000000  0  8G 1G13G16G20G23G25G 4G27
  20720487.3774   -4925724.07049  -3827437.18748                  20720485.0404
        51.0004         42.0004
  22821734.6054  -10558287.51649  -8209883.95347                  22821732.0414
        43.7504         28.2504
  21538045.6954   -7179783.62149  -5572887.00847                  21538042.1214
        49.2504         36.5004
  20348477.8644   -3525059.72749  -2734878.23848                  20348475.0684
        49.5004         41.2504
  20561031.0364   -3909860.26649  -3037781.50048                  20561025.7884
        51.0004         41.7504
  24221451.5084    5264396.94949   4084690.81346                  24221449.0464
        42.2504         22.5004
  24350391.5464   -5173384.56249  -4031068.53546                  24350390.6554
        40.2504         21.0004
  24330520.7214   -3205501.17649  -2479948.48046                  24330521.7084
        41.7504         22.2504
 04  7 12 22 54 15.0000000  0  8G 1G13G16G20G23G25G 4G27
  20716687.3614   -4945693.43449  -3842997.73048                  20716685.1974
        51.5004         41.7504
  22812039.4344  -10609234.64149  -8249582.99647                  22812037.3614
        44.0004         29.0004
  21533881.1844   -7201667.70749  -5589939.53947                  21533878.2064
        49.0004         37.2504
  20347824.0004   -3528495.66049  -2737555.59448                  20347820.9214
        50.2504         41.7504
  20558484.6634   -3923241.53149  -3048208.45748                  20558478.8534
        51.5004         42.0004
  24226628.8394    5291603.66449   4105890.79746                  24226627.3964
        42.7504         23.0004
  24346012.0374   -5196402.48849  -4049004.59046                  24346010.9564
        41.0004         20.0004
  24320012.0964   -3260725.87549  -2522980.65646                  24320012.6664
        42.7504         22.5004
 04  7 12 22 54 30.0000000  0  8G 1G13G16G20G23G25G 4G27
  20712896.3464   -4965616.36349  -3858522.09048                  20712893.8554
        51.5004         41.5004
  22802347.5864  -10660166.26649  -8289269.94547                  22802345.6844
        44.2504         29.0004
  21529744.5324   -7223406.95349  -5606879.20747                  21529741.5004
        49.0004         37.0004
  20347196.5174   -3531791.85949  -2740124.06248                  20347193.5304
        50.5004         42.2504
  20555949.7274   -3936560.98049  -3058587.25048                  20555944.3944
        51.5004         41.5004
  24231805.8554    5318807.93849   4127088.95746                  24231804.5934
        43.2504         22.5004
  24341655.3984   -5219292.50249  -4066840.98046                  24341655.1224
        40.5004         21.0004
  24309511.0864   -3315907.80949  -2565979.49246                  24309512.0804
        42.2504         22.2504
 04  7 12 22 54 45.0000000  0  8G 1G13G16G20G23G25G 4G27
  20709113.8594   -4985492.66449  -3874010.10948                  20709111.6644
        51.5004         41.2504
  22792659.2494  -10711082.25849  -8328944.72347                  22792656.1834
        44.0004         29.0004
  21525635.1444   -7245001.23449  -5623705.91047                  21525632.0364
        49.2504         36.7504
  20346596.2594   -3534948.16449  -2742583.52748                  20346593.1954
        49.7504         41.7504
  20553426.9694   -3949818.57049  -3068917.84448                  20553421.6874
        51.2504         41.5004
  24236981.7994    5346009.97349   4148285.28546                  24236981.0724
        40.7504         23.0004
  24337324.0404   -5242055.07849  -4084578.02746                  24337323.6994
        41.2504         21.0004
  24299018.6724   -3371046.71549  -2608944.86346                  24299019.6924
        41.5004         22.5004
 04  7 12 22 55  0.0000000  0  8G 1G13G16G20G23G25G 4G27
  20705340.0154   -5005322.08249  -3889461.60948                  20705337.9684
        52.0004         41.7504
  22782972.6364  -10761982.35549  -8368607.11747                  22782970.3714
        43.0004         29.2504
  21521553.3994   -7266450.14549  -5640419.33647                  21521550.6394
        48.7504         37.0004
  20346022.2714   -3537964.42249  -2744933.86748                  20346019.1084
        50.0004         41.5004
  20550916.2624   -3963013.97749  -3079199.97748                  20550910.7604
        51.0004         41.2504
  24242158.6834    5373209.85949   4169479.98047                  24242156.0954
        43.0004         26.2504
  24333017.2754   -5264689.59849  -4102215.32046                  24333015.7994
        41.0004         20.0004
  24288533.9324   -3426142.32449  -2651876.43446                  24288535.3384
        42.7504         22.5004
 04  7 12 22 55 15.0000000  0  8G 1G13G16G20G23G25G 4G27
  20701575.8514   -5025104.49649  -3904876.47348                  20701573.8924
        52.0004         42.0004
  22773289.6274  -10812866.41449  -8408256.98847                  22773287.3164
        44.5004         29.7504
  21517499.3574   -7287753.66849  -5657019.47347                  21517496.7044
        49.2504         37.2504
  20345474.9094   -3540840.62949  -2747175.08248                  20345471.7924
        49.5004         41.5004
  20548417.2404   -3976147.14549  -3089433.62548                  20548411.7354
        51.2504         41.0004
  24247333.0364    5400407.26649   4190672.78946                  24247331.6794
        41.2504         22.0004
  24328734.5814   -5287196.09049  -4119752.81646                  24328733.1424
        41.7504         20.0004
  24278057.8234   -3481194.68449  -2694774.33246                  24278058.8454
        42.5004         22.7504
 04  7 12 22 55 30.0000000  0  8G 1G13G16G20G23G25G 4G27
  20697820.4904   -5044840.82049  -3920255.42648                  20697818.1604
        52.0004         42.0004
  22763609.3724  -10863735.46549  -8447895.18447                  22763607.3474
        45.2504         28.7504
  21513473.4764   -7308912.64849  -5673506.98847                  21513470.1364
        50.0004         36.5004
  20344953.6964   -3543577.84849  -2749307.98848                  20344950.9534
        49.7504         42.0004
  20545929.4504   -3989218.96149  -3099619.45348                  20545924.2654
        51.5004         41.0004
  24252507.9334    5427601.19949   4211862.81346                  24252506.4184
        40.7504         24.5004
  24324475.6204   -5309575.65249  -4137191.48046                  24324475.0954
        40.7504         20.5004
  24267589.9724   -3536204.46549  -2737639.06646                  24267591.1254
        42.5004         24.0004
 04  7 12 22 55 45.0000000  0  8G 1G13G16G20G23G25G 4G27
  20694073.7614   -5064529.40249  -3935597.17648                  20694071.3454
        51.7504         42.0004
  22753932.6814  -10914587.83249  -8487520.37147                  22753930.8424
        45.2504         29.5004
  21509474.3164   -7329925.48449  -5689880.62147                  21509471.7644
        49.7504         37.2504
  20344459.8294   -3546174.60249  -2751331.43748                  20344456.6894
        49.5004         41.5004
  20543454.1964   -4002227.89549  -3109756.28148                  20543448.5254
        51.2504         41.0004
  24257682.7324    5454793.11349   4233051.29346                  24257681.0664
        40.5004         22.7504
  24320241.6994   -5331826.75849  -4154530.03946                  24320240.1884
        40.5004         18.5004
  24257130.5464   -3591170.20349  -2780469.46946                  24257130.9804
        42.7504         22.7504
 04  7 12 22 56  0.0000000  0  8G 1G13G16G20G23G25G 4G27
  20690336.1914   -5084169.59449  -3950901.22348                  20690333.9404
        52.0004         42.0004
  22744258.9604  -10965422.86749  -8527132.04747                  22744256.7364
        45.2504         30.5004
  21505503.7994   -7350791.52749  -5706139.87147                  21505500.6604
        50.0004         36.2504
  20343992.8644   -3548630.26249  -2753244.95348                  20343989.3384
        50.0004         41.2504
  20540990.4004   -4015173.19949  -3119843.53948                  20540985.2674
        51.0004         41.0004
  24262856.2864    5481983.30949   4254238.44946                  24262855.2154
        40.5004         25.0004
  24316031.0534   -5353948.71149  -4171767.89846                  24316031.0124
        41.0004         21.0004
  24246679.4654   -3646091.35549  -2823265.08246                  24246680.1394
        42.5004         23.7504
 04  7 12 22 56 15.0000000  0  8G 1G13G16G20G23G25G 4G27
  20686607.9524   -5103762.70749  -3966168.57848                  20686605.3044
        52.5004         42.0004
  22734588.9494  -11016241.98849  -8566731.33647                  22734586.4444
        46.7504         29.7504
  21501560.9564   -7371512.00449  -5722285.68747                  21501557.6244
        49.7504         36.7504
  20343551.7714   -3550946.35249  -2755049.70748                  20343548.5424
        50.2504         41.7504
  20538539.0404   -4028056.18749  -3129882.22348                  20538533.8304
        50.7504         41.0004
  24268030.4284    5509170.45349   4275423.19546                  24268028.8434
        41.5004         24.7504
  24311845.9534   -5375943.09049  -4188906.36346                  24311845.5354
        39.2504         19.5004
  24236236.0814   -3700969.12149  -2866026.91846                  24236237.0604
        42.5004         24.2504
 04  7 12 22 56 30.0000000  0  8G 1G13G16G20G23G25G 4G27
  20682888.5374   -5123307.53149  -3981398.30948                  20682886.3214
        52.0004         42.0004
  22724921.6114  -11067043.91449  -8606317.22347                  22724919.1484
        45.5004         29.5004
  21497645.9294   -7392085.81649  -5738317.21947                  21497642.6644
        50.0004         37.2504
  20343137.7054   -3553121.65249  -2756744.75848                  20343134.7204
        49.0004         41.7504
  20536099.4884   -4040875.68049  -3139871.44148                  20536094.5104
        51.0004         41.2504
  24273203.3964    5536355.51649   4296606.31646                  24273202.1414
        39.2504         22.2504
  24307685.1634   -5397808.74649  -4205944.53946                  24307684.6274
        38.0004         20.0004
  24225802.0534   -3755802.35249  -2908754.06646                  24225802.2924
        43.0004         24.2504
 04  7 12 22 56 45.0000000  0  8G 1G13G16G20G23G25G 4G27
  20679178.0484   -5142805.13749  -3996591.25848                  20679176.0584
        51.5004         41.7504
  22715256.9754  -11117829.75849  -8645890.59447                  22715255.2654
        44.5004         31.0004
  21493758.4324   -7412513.98049  -5754235.27347                  21493755.1354
        48.0004         37.5004
  20342750.5824   -3555157.33249  -2758331.00848                  20342747.5694
        49.5004         42.0004
  20533672.0724   -4053632.73049  -3149811.99648                  20533667.0714
        51.5004         41.2504
  24278376.0734    5563537.12549   4317786.77046                  24278373.8614
        40.5004         23.5004
  24303549.2644   -5419546.80149  -4222883.32046                  24303548.0684
        39.5004         20.0004
  24215375.6964   -3810592.10549  -2951447.32046                  24215375.6614
        42.5004         23.2504
 04  7 12 22 57  0.0000000  0  8G 1G13G16G20G23G25G 4G27
  20675476.9824   -5162255.62149  -4011747.48448                  20675474.6194
        47.7504         41.5004
  22705595.8074  -11168599.49649  -8685451.39147                  22705593.3984
        45.0004         30.0004
  21489898.8274   -7432796.57049  -5770039.88347                  21489895.4264
        44.0004         36.7504
  20342389.4404   -3557053.64149  -2759808.65248                  20342386.5094
        50.0004         42.0004
  20531256.2594   -4066327.41849  -3159703.96548                  20531251.2094
        50.7504         41.2504
  24283548.1674    5590715.00849   4338964.32446                  24283546.4354
        40.5004         24.5004
  24299435.9764   -5441157.34049  -4239722.69146                  24299435.5844
        40.0004         20.0004
  24204957.0954   -3865338.35249  -2994106.66846                  24204958.3204
        41.7504         23.2504
 04  7 12 22 57 15.0000000  0  8G 1G13G16G20G23G25G 4G27
  20671784.7374   -5181658.23449  -4026866.39548                  20671782.4364
        48.5004         41.5004
  22695937.9084  -11219352.46549  -8724999.14547                  22695935.5194
        44.5004         29.0004
  21486066.8684   -7452932.89149  -5785730.50447                  21486063.5364
        44.5004         36.5004
  20342055.1954   -3558810.05549  -2761177.28548                  20342052.6514
        49.5004         41.2504
  20528852.3144   -4078959.20349  -3169546.91048                  20528847.1564
        51.0004         41.5004
  24288719.7784    5617889.65649   4360139.30146                  24288718.0554
        40.2504         24.7504
  24295348.5524   -5462639.71949  -4256462.22746                  24295348.2864
        41.2504         20.0004
  24194547.6074   -3920040.54349  -3036731.69946                  24194548.6554
        41.7504         22.2504
 04  7 12 22 57 30.0000000  0  8G 1G13G16G20G23G25G 4G27
  20668101.8924   -5201012.73849  -4041947.82848                  20668099.6024
        50.5004         41.5004
  22686282.9784  -11270088.50449  -8764533.68747                  22686281.2124
        45.0004         30.5004
  21482263.4924   -7472922.74649  -5801307.02047                  21482259.6204
        48.2504         37.2504
  20341747.7224   -3560426.42249  -2762436.79748                  20341744.6244
        50.5004         41.0004
  20526460.7344   -4091527.66449  -3179340.51248                  20526455.3414
        51.0004         41.5004
  24293890.6754    5645061.10549   4381311.81346                  24293887.9694
        41.2504         23.0004
  24291285.3024   -5483994.04349  -4273101.96146                  24291284.7704
        41.0004         21.7504
  24184146.7704   -3974698.39849  -3079322.19146                  24184147.5374
        41.0004         23.0004
 04  7 12 22 57 45.0000000  0  8G 1G13G16G20G23G25G 4G27
  20664427.6734   -5220318.50849  -4056991.28148                  20664425.6524
        52.0004         41.5004
  22676631.6014  -11320807.05549  -8804054.61747                  22676629.3784
        46.2504         29.7504
  21478487.4204   -7492765.52349  -5816768.91047                  21478483.8544
        49.2504         37.2504
  20341467.2604   -3561902.19149  -2763586.74248                  20341463.7784
        50.0004         41.2504
  20524081.2274   -4104032.23049  -3189084.32848                  20524076.0764
        51.0004         41.0004
  24299060.4264    5672229.64549   4402482.12546                  24299057.5364
        42.5004         22.5004
  24287245.6254   -5505219.69949  -4289641.43046                  24287245.1014
        41.5004         22.5004
  24173754.2134   -4029311.21949  -3121877.59846                  24173755.9174
        41.2504         24.5004
 04  7 12 22 58  0.0000000  0  8G 1G13G16G20G23G25G 4G27
  20660763.2034   -5239576.62549  -4071997.60248                  20660760.6994
        52.0004         41.2504
  22666982.9814  -11371508.98049  -8843562.59847                  22666980.8934
        46.5004         30.0004
  21474738.6414   -7512462.31649  -5832117.05947                  21474735.5154
        50.0004         36.7504
  20341212.6534   -3563238.62549  -2764628.12548                  20341210.0124
        50.0004         41.5004
  20521714.2344   -4116474.04349  -3198779.25048                  20521708.9124
        52.0004         41.5004
  24304228.9264    5699394.15249   4423649.25046                  24304227.5804
        41.5004         25.5004
  24283231.3044   -5526317.93049  -4306081.66446                  24283229.8224
        41.7504         21.0004
  24163369.8184   -4083880.28749  -3164398.93446                  24163370.8244
        40.5004         22.7504
 04  7 12 22 58 15.0000000  0  8G 1G13G16G20G23G25G 4G27
  20657107.4764   -5258786.11749  -4086966.03148                  20657105.1284
        52.2504         42.0004
  22657338.7734  -11422193.52049  -8883057.01647                  22657336.0394
        47.7504         31.0004
  21471018.7874   -7532012.17249  -5847350.70747                  21471015.4564
        49.7504         37.0004
  20340985.3424   -3564434.89149  -2765560.28948                  20340982.2944
        50.0004         41.7504
  20519358.2814   -4128852.18749  -3208424.55548                  20519353.0344
        51.2504         41.2504
  24309397.1564    5726555.26249   4444813.68846                  24309396.0864
        42.0004         24.0004
  24279240.5124   -5547287.69949  -4322421.75046                  24279239.8984
        41.5004         21.7504
  24152994.3934   -4138404.52749  -3206885.27046                  24152995.6114
        42.0004         24.5004
 04  7 12 22 58 30.0000000  0  8G 1G13G16G20G23G25G 4G27
  20653461.3464   -5277948.05549  -4101897.41448                  20653459.3544
        52.0004         42.5004
  22647696.5904  -11472861.59449  -8922538.60547                  22647694.8124
        47.0004         30.5004
  21467326.2694   -7551416.06249  -5862470.61747                  21467323.1224
        50.0004         36.5004
  20340783.9764   -3565492.18749  -2766384.15648                  20340780.7804
        50.2504         41.7504
  20517014.8034   -4141167.60549  -3218020.99248                  20517009.1834
        51.0004         40.7504
  24314565.6994    5753711.87549   4465974.63347                  24314564.6004
        41.5004         26.0004
  24275273.6064   -5568130.31249  -4338662.70346                  24275273.5054
        42.2504         21.0004
  24142626.9024   -4192885.15649  -3249337.66846                  24142627.8084
        40.7504         23.0004
 04  7 12 22 58 45.0000000  0  8G 1G13G16G20G23G25G 4G27
  20649824.1614   -5297062.00849  -4116791.41448                  20649821.8294
        52.7504         42.2504
  22638058.4014  -11523512.95749  -8962007.17647                  22638055.8064
        47.7504         31.0004
  21463661.8444   -7570673.73449  -5877476.59047                  21463658.3994
        49.7504         37.5004
  20340609.0384   -3566410.17649  -2767099.47348                  20340606.1284
        50.5004         41.7504
  20514682.8784   -4153419.95349  -3227568.27348                  20514677.3784
        51.0004         41.7504
  24319732.7594    5780863.90649   4487132.03146                  24319730.9724
        42.5004         24.7504
  24271333.1174   -5588845.46549  -4354804.39846                  24271332.0234
        42.5004         21.7504
  24132267.8744   -4247321.59449  -3291755.59846                  24132268.7874
        41.0004         22.7504
 04  7 12 22 59  0.0000000  0  8G 1G13G16G20G23G25G 4G27
  20646196.1694   -5316127.46549  -4131647.60948                  20646193.8094
        51.7504         41.7504
  22628422.8554  -11574146.93449  -9001462.20747                  22628420.6284
        48.0004         31.7504
  21460025.3944   -7589784.58649  -5892368.16047                  21460021.2584
        50.5004         37.2504
  20340461.0094   -3567188.48849  -2767705.95748                  20340458.0434
        50.2504         41.0004
  20512363.6074   -4165608.70349  -3237065.99648                  20512358.4664
        51.2504         41.2504
  24324897.5684    5808011.83249   4508286.28546                  24324895.4494
        39.5004         22.0004
  24267414.9224   -5609432.82049  -4370846.53946                  24267413.7824
        42.2504         22.5004
  24121917.5304   -4301713.49249  -3334138.82846                  24121918.7544
        41.5004         21.7504
 04  7 12 22 59 15.0000000  0  8G 1G13G16G20G23G25G 4G27
  20642577.2014   -5335144.54749  -4146466.11348                  20642575.3114
        52.0004         42.0004
  22618790.7674  -11624763.82849  -9040903.90647                  22618789.0564
        47.2504         31.0004
  21456416.4344   -7608748.86749  -5907145.52047                  21456413.1174
        50.2504         37.0004
  20340339.4414   -3567827.43449  -2768203.84048                  20340336.7484
        50.7504         41.7504
  20510056.2404   -4177734.03149  -3246514.30148                  20510050.8804
        51.0004         41.0004
  24330063.6474    5835155.35249   4529437.05546                  24330061.4564
        41.2504         25.2504
  24263521.6814   -5629892.47349  -4386789.10246                  24263520.7304
        42.2504         22.5004
  24111576.0154   -4356060.90249  -3376487.42646                  24111575.8604
        42.0004         22.7504
 04  7 12 22 59 30.0000000  0  8G 1G13G16G20G23G25G 4G27
  20638967.4954   -5354114.03549  -4161247.53148                  20638965.5614
        51.5004         41.7504
  22609161.9974  -11675364.34849  -9080332.86347                  22609159.6134
        47.0004         31.0004
  21452835.1674   -7627567.36349  -5921809.27747                  21452831.9924
        49.7504         37.0004
  20340244.6324   -3568327.92249  -2768593.84048                  20340241.4194
        49.7504         41.7504
  20507760.6714   -4189796.66849  -3255913.76648                  20507755.4674
        51.5004         41.5004
  24335227.9584    5862293.44949   4550583.59846                  24335226.2254
        41.5004         25.2504
  24259652.6064   -5650225.31649  -4402632.90646                  24259651.4044
        42.2504         22.5004
  24101241.9694   -4410364.74649  -3418802.03946                  24101242.7204
        42.2504         23.0004
 04  7 12 22 59 45.0000000  0  8G 1G13G16G20G23G25G 4G27
  20635366.7764   -5373035.73449  -4175991.70748                  20635364.6394
        52.2504         42.0004
  22599536.1294  -11725948.35549  -9119748.94947                  22599533.5544
        48.0004         31.0004
  21449282.1094   -7646239.89849  -5936359.29747                  21449278.8224
        49.7504         37.0004
  20340175.3624   -3568689.90249  -2768875.90248                  20340172.2014
        50.2504         41.5004
  20505477.2894   -4201796.51649  -3265264.29348                  20505472.0164
        51.0004         41.0004
  24340390.5534    5889426.18449   4571725.93846                  24340389.0724
        41.0004         24.7504
  24255807.4074   -5670431.40649  -4418377.91846                  24255806.8874
        42.2504         23.0004
  24090916.8044   -4464624.69549  -3461082.48446                  24090917.4834
        41.7504         22.5004
 04  7 12 23  0  0.0000000  0  8G 1G13G16G20G23G25G 4G27
  20631775.1844   -5391909.32849  -4190698.40648                  20631772.9164
        52.0004         41.5004
  22589912.9344  -11776515.49249  -9159151.89147                  22589911.1444
        47.5004         31.2504
  21445756.4244   -7664766.07849  -5950795.28147                  21445753.5964
        49.7504         37.2504
  20340132.9114   -3568913.04749  -2769049.79348                  20340129.9704
        50.2504         41.7504
  20503205.8004   -4213733.21149  -3274565.60948                  20503200.3054
        51.2504         41.5004
  24345553.1184    5916553.60249   4592864.17646                  24345550.8064
        39.7504         24.5004
  24251986.3204   -5690510.57849  -4434024.00446                  24251986.1284
        41.5004         22.2504
  24080599.6334   -4518840.52749  -3503328.52046                  24080600.9784
        42.5004         24.7504
 04  7 12 23  0 15.0000000  0  8G 1G13G16G20G23G25G 4G27
  20628192.8784   -5410734.93049  -4205367.69948                  20628190.7064
        52.2504         41.7504
  22580293.6744  -11827065.97349  -9198541.85547                  22580291.6044
        47.0004         31.2504
  21442259.0454   -7683146.18449  -5965117.43747                  21442255.7734
        50.2504         37.0004
  20340117.1554   -3568997.77749  -2769115.81648                  20340113.7014
        50.5004         42.0004
  20500945.9074   -4225606.98449  -3283817.90248                  20500940.9884
        52.0004         40.7504
  24350714.4924    5943675.45749   4613998.05546                  24350713.0874
        40.5004         25.2504
  24248189.3244   -5710462.87549  -4449571.25446                  24248188.7874
        41.5004         21.7504
  24070290.5714   -4573012.42649  -3545540.32846                  24070292.3904
        41.2504         22.5004
 04  7 12 23  0 30.0000000  0  8G 1G13G16G20G23G25G 4G27
  20624619.5624   -5429512.16849  -4219999.31248                  20624617.7114
        52.0004         41.7504
  22570676.8284  -11877599.33249  -9237918.46947                  22570675.2004
        47.2504         31.5004
  21438789.1194   -7701379.86349  -5979325.49247                  21438786.3414
        49.0004         37.0004
  20340127.2054   -3568943.84449  -2769073.80148                  20340124.0604
        50.2504         42.0004
  20498698.9714   -4237417.37949  -3293020.81248                  20498693.6584
        51.0004         41.2504
  24355874.2524    5970791.73849   4635127.62547                  24355873.1604
        39.2504         26.0004
  24244417.0564   -5730288.20349  -4465019.57046                  24244415.4134
        42.2504         21.7504
  24059991.1354   -4627139.98049  -3587717.59046                  24059991.9684
        41.0004         24.0004
 04  7 12 23  0 45.0000000  0  8G 1G13G16G20G23G25G 4G27
  20621055.7384   -5448240.66849  -4234592.94148                  20621053.7294
        49.2504         42.0004
  22561064.5914  -11928115.39149  -9277281.60547                  22561062.1524
        47.7504         31.2504
  21435347.1314   -7719466.71149  -5993419.14147                  21435344.3384
        45.5004         37.5004
  20340163.5414   -3568751.03949  -2768923.56648                  20340160.8804
        50.5004         42.0004
  20496463.5354   -4249164.07849  -3302174.08248                  20496458.3514
        51.5004         41.7504
  24361032.7774    5997902.52349   4656252.85546                  24361032.1004
        39.0004         24.5004
  24240668.5424   -5749986.36749  -4480368.76646                  24240667.8114
        41.0004         22.5004
  24049699.4684   -4681222.92249  -3629860.10546                  24049699.8494
        42.2504         22.5004
 04  7 12 23  1  0.0000000  0  8G 1G13G16G20G23G25G 4G27
  20617501.3764   -5466919.47749  -4249147.85948                  20617499.0474
        47.0004         41.5004
  22551455.4854  -11978612.97749  -9316630.36347                  22551453.2054
        47.5004         31.2504
  21431933.6184   -7737405.74249  -6007397.59447                  21431930.3544
        44.2504         37.2504
  20340227.1714   -3568418.48449  -2768664.44148                  20340224.2244
        50.5004         42.5004
  20494240.6064   -4260846.08649  -3311276.94548                  20494235.2894
        51.5004         41.2504
  24366192.1274    6025008.73449   4677374.56346                  24366190.1334
        40.7504         25.2504
  24236943.7364   -5769556.29749  -4495618.08646                  24236943.3794
        42.0004         22.2504
  24039416.0494   -4735260.23449  -3671967.03546                  24039417.0524
        41.7504         23.5004
 04  7 12 23  1 15.0000000  0  8G 1G13G16G20G23G25G 4G27
  20613956.0804   -5485549.57049  -4263664.80948                  20613953.4554
        50.5004         42.0004
  22541849.3254  -12029093.19949  -9355965.57447                  22541847.4004
        47.7504         31.0004
  21428548.1554   -7755198.10549  -6021261.78147                  21428544.5224
        48.2504         37.2504
  20340316.8874   -3567947.43049  -2768297.39148                  20340313.9244
        50.5004         41.7504
  20492029.6804   -4272464.46149  -3320330.22748                  20492024.7114
        51.5004         41.5004
  24371348.6064    6052109.01249   4698491.67246                  24371347.1114
        41.0004         22.5004
  24233244.3134   -5788999.25449  -4510768.43046                  24233242.9474
        42.0004         21.7504
  24029141.1654   -4789253.01649  -3714039.28546                  24029142.7774
        40.5004         22.7504
 04  7 12 23  1 30.0000000  0  8G 1G13G16G20G23G25G 4G27
  20610420.3154   -5504131.14849  -4278143.96148                  20610418.0684
        52.0004         42.0004
  22532246.9764  -12079556.17249  -9395287.35247                  22532244.3864
        47.2504         31.2504
  21425190.2124   -7772844.10549  -6035011.89847                  21425186.5174
        49.5004         37.5004
  20340432.5224   -3567338.16049  -2767822.64548                  20340430.0464
        50.0004         41.2504
  20489831.0344   -4284019.34449  -3329334.03548                  20489825.7784
        52.2504         41.0004
  24376504.9254    6079203.24649   4719604.02746                  24376503.6284
        40.5004         22.5004
  24229568.1324   -5808315.61749  -4525820.14846                  24229567.5374
        41.2504         22.2504
  24018875.0354   -4843201.34049  -3756076.86346                  24018876.1014
        41.5004         23.0004
 04  7 12 23  1 45.0000000  0  8G 1G13G16G20G23G25G 4G27
  20606893.8314   -5522663.48849  -4292584.74248                  20606891.4604
        51.5004         41.2504
  22522647.4684  -12130001.23449  -9434595.17647                  22522644.8524
        48.0004         30.7504
  21421860.1324   -7790343.01649  -6048647.41447                  21421856.5014
        49.7504         36.7504
  20340575.0904   -3566590.15249  -2767239.79348                  20340571.8504
        50.2504         41.2504
  20487644.3244   -4295510.09449  -3338287.87148                  20487639.3184
        51.2504         41.2504
  24381659.3734    6106291.71549   4740711.92646                  24381657.4454
        40.2504         23.0004
  24225916.8764   -5827504.72749  -4540772.73846                  24225916.8284
        42.5004         23.0004
  24008617.9494   -4897104.63349  -3798079.39846                  24008618.8594
        41.7504         22.0004
 04  7 12 23  2  0.0000000  0  8G 1G13G16G20G23G25G 4G27
  20603376.5734   -5541145.93049  -4306986.64848                  20603374.2234
        51.2504         41.5004
  22513051.1374  -12180427.76249  -9473888.54747                  22513048.7844
        47.0004         31.5004
  21418558.1374   -7807694.19949  -6062167.81247                  21418554.4574
        50.0004         36.5004
  20340743.7774   -3565702.88749  -2766548.43048                  20340740.8824
        50.2504         41.7504
  20485470.1264   -4306935.99249  -3347191.17248                  20485464.8194
        51.2504         41.5004
  24386812.9024    6133374.88749   4761815.64146                  24386812.0004
        38.0004         22.7504
  24222289.8674   -5846566.14549  -4555625.75846                  24222290.2944
        42.2504         22.2504
  23998369.6924   -4950962.30949  -3840046.37946                  23998369.6074
        42.2504         22.5004
 04  7 12 23  2 15.0000000  0  8G 1G13G16G20G23G25G 4G27
  20599869.1074   -5559578.34449  -4321349.56248                  20599866.7374
        51.5004         42.0004
  22503459.0644  -12230835.68049  -9513167.41847                  22503456.2304
        47.0004         31.0004
  21415284.3334   -7824897.65649  -6075573.09447                  21415280.9404
        49.5004         36.5004
  20340939.4154   -3564676.33249  -2765748.52048                  20340936.3164
        50.7504         41.5004
  20483308.1794   -4318297.01249  -3356043.91048                  20483302.9074
        51.2504         41.5004
  24391966.1564    6160452.75049   4782915.23846                  24391964.1864
        39.5004         22.5004
  24218687.7274   -5865499.82049  -4570379.32846                  24218686.8584
        42.5004         23.5004
  23988129.4084   -5004774.29749  -3881977.75846                  23988129.6474
        42.0004         23.0004
 04  7 12 23  2 30.0000000  0  8G 1G13G16G20G23G25G 4G27
  20596370.5424   -5577961.96149  -4335674.46548                  20596368.1374
        52.0004         41.5004
  22493869.8384  -12281226.27049  -9552432.78547                  22493867.2414
        47.2504         30.7504
  21412038.4194   -7841954.59049  -6088864.20347                  21412035.0104
        50.5004         36.7504
  20341161.0434   -3563511.93449  -2764841.20348                  20341157.7874
        50.7504         41.5004
  20481158.3074   -4329594.34449  -3364847.03148                  20481153.0664
        51.0004         41.7504
  24397117.1144    6187523.57449   4804009.41446                  24397115.7014
        39.2504         22.0004
  24215107.1744   -5884307.21949  -4585034.43046                  24215107.7544
        41.2504         21.7504
  23977897.3524   -5058541.81649  -3923874.44946                  23977897.8104
        41.7504         22.5004
 04  7 12 23  2 45.0000000  0  8G 1G13G16G20G23G25G 4G27
  20592881.5594   -5596296.46549  -4349961.09448                  20592879.3224
        52.0004         42.0004
  22484284.0124  -12331599.06649  -9591684.29747                  22484281.3234
        47.2504         31.5004
  21408820.6614   -7858864.66449  -6102040.88747                  21408816.8584
        50.0004         36.7504
  20341408.6234   -3562209.50849  -2763826.34448                  20341405.6064
        50.5004         41.0004
  20479020.8564   -4340827.81649  -3373600.38348                  20479015.4864
        51.2504         41.7504
  24402266.4064    6214587.70749   4825098.29746                  24402266.2284
        39.7504         22.2504
  24211553.1864   -5902988.09449  -4599590.97346                  24211552.8104
        42.5004         22.5004
  23967673.9374   -5112264.55949  -3965736.27346                  23967675.1974
        42.7504         24.0004
 04  7 12 23  3  0.0000000  0  8G 1G13G16G20G23G25G 4G27
  20589402.2914   -5614580.31249  -4364208.25048                  20589399.8184
        52.0004         42.0004
  22474702.1004  -12381952.57849  -9630920.77747                  22474699.5464
        47.0004         31.0004
  21405631.0614   -7875626.36349  -6115101.94547                  21405627.3494
        49.7504         36.7504
  20341683.0744   -3560767.64849  -2762702.82448                  20341679.8614
        49.7504         41.5004
  20476895.6424   -4351995.74649  -3382302.67248                  20476890.0884
        52.2504         41.2504
  24407416.3304    6241646.58249   4846183.13346                  24407415.2684
        39.5004         21.0004
  24208022.5604   -5921541.02749  -4614047.84046                  24208021.9414
        41.5004         22.0004
  23957460.8924   -5165940.85549  -4007561.93446                  23957460.3044
        43.0004         22.7504
 04  7 12 23  3 15.0000000  0  8G 1G13G16G20G23G25G 4G27
  20585932.3404   -5632814.62149  -4378416.79748                  20585930.1914
        51.7504         42.0004
  22465123.5344  -12432288.02049  -9670143.16447                  22465121.3724
        47.5004         30.7504
  21402469.3984   -7892241.05149  -6128048.44947                  21402466.0194
        49.5004         36.0004
  20341983.7324   -3559187.70349  -2761471.70348                  20341980.7764
        50.2504         41.2504
  20474782.3684   -4363099.28149  -3390954.78148                  20474777.1734
        51.2504         42.0004
  24412565.0074    6268698.76249   4867262.72746                  24412562.7474
        40.0004         21.0004
  24204515.6094   -5939967.39149  -4628406.03146                  24204515.0244
        41.5004         21.7504
  23947253.9554   -5219572.22349  -4049352.53146                  23947254.6564
        42.0004         22.7504
 04  7 12 23  3 30.0000000  0  8G 1G13G16G20G23G25G 4G27
  20582471.9034   -5650999.30149  -4392586.68448                  20582469.5594
        51.5004         41.7504
  22455548.5414  -12482605.12949  -9709351.27747                  22455546.2934
        47.5004         31.0004
  21399335.3504   -7908708.56249  -6140880.27047                  21399332.4724
        49.2504         36.5004
  20342310.4904   -3557469.66849  -2760132.99248                  20342307.6904
        50.2504         41.0004
  20472681.9064   -4374138.35549  -3399556.64848                  20472676.3754
        51.0004         41.5004
  24417711.3924    6295744.21149   4888337.09446                  24417709.8694
        41.0004         21.5004
  24201033.2094   -5958267.02749  -4642665.48846                  24201033.1954
        40.5004         21.0004
  23937057.3304   -5273158.34049  -4091107.91446                  23937056.7074
        42.0004         22.5004
 04  7 12 23  3 45.0000000  0  8G 1G13G16G20G23G25G 4G27
  20579021.0834   -5669133.94949  -4406717.57448                  20579019.2034
        52.2504         41.2504
  22445977.2024  -12532903.69549  -9748544.94147                  22445974.1614
        47.5004         31.0004
  21396229.6564   -7925028.55549  -6153597.14847                  21396226.5164
        50.0004         37.0004
  20342663.9004   -3555613.45349  -2758686.60948                  20342660.6924
        50.5004         41.5004
  20470593.6064   -4385112.62149  -3408108.02748                  20470588.4574
        50.5004         41.5004
  24422856.6024    6322783.04749   4909406.29346                  24422854.8714
        40.5004         20.5004
  24197575.7754   -5976439.73049  -4656826.10546                  24197574.9844
        41.0004         22.7504
  23926869.0094   -5326698.88349  -4132827.76646                  23926868.4784
        41.0004         23.2504
 04  7 12 23  4  0.0000000  0  8G 1G13G16G20G23G25G 4G27
  20575579.8424   -5687217.74249  -4420808.84048                  20575577.7164
        51.5004         42.0004
  22436408.7884  -12583182.85549  -9787723.49247                  22436406.7754
        47.5004         30.7504
  21393152.8584   -7941200.36749  -6166198.55547                  21393149.0754
        49.5004         37.0004
  20343043.2054   -3553618.33249  -2757131.97748                  20343040.5644
        49.7504         41.2504
  20468517.8074   -4396021.28549  -3416608.28548                  20468512.1204
        50.5004         41.0004
  24428000.5884    6349815.82449   4930470.77346                  24427998.7294
        39.2504         19.0004
  24194141.2784   -5994485.05149  -4670887.37946                  24194140.9814
        41.5004         22.5004
  23916688.8324   -5380193.05549  -4174511.48446                  23916689.0384
        42.5004         22.2504
 04  7 12 23  4 15.0000000  0  8G 1G13G16G20G23G25G 4G27
  20572148.2694   -5705250.98049  -4434860.70748                  20572146.2754
        51.5004         42.0004
  22426845.3104  -12633442.96149  -9826887.19147                  22426842.8234
        47.2504         30.7504
  21390103.8434   -7957224.30149  -6178684.73447                  21390099.8014
        50.2504         36.5004
  20343449.4934   -3551484.73449  -2755469.44548                  20343445.9954
        50.5004         41.2504
  20466454.3954   -4406864.69149  -3425057.69148                  20466448.9974
        51.7504         41.0004
  24433142.7974    6376842.08249   4951530.19946                  24433142.4634
        38.7504         18.5004
  24190731.8544   -6012403.41049  -4684849.72346                  24190731.4524
        40.5004         21.7504
  23906517.6614   -5433641.21949  -4216159.37546                  23906518.6834
        42.0004         24.0004
 04  7 12 23  4 30.0000000  0  8G 1G13G16G20G23G25G 4G27
  20568726.2894   -5723232.55949  -4448872.32848                  20568724.5024
        52.2504         42.0004
  22417284.1004  -12683682.90249  -9866035.18447                  22417282.2304
        47.2504         31.0004
  21387082.5354   -7973099.37549  -6191054.91447                  21387079.3314
        50.2504         36.7504
  20343882.1494   -3549211.79349  -2753698.33248                  20343879.0204
        50.7504         40.7504
  20464403.5174   -4417641.77749  -3433455.43048                  20464397.9494
        51.0004         41.2504
  24438285.7804    6403862.67649   4972585.18446                  24438283.0154
        38.2504         20.0004
  24187345.8804   -6030193.50449  -4698712.14846                  24187346.4544
        40.5004         21.5004
  23896356.9664   -5487042.40249  -4257770.63346                  23896356.4374
        43.2504         24.7504
 04  7 12 23  4 45.0000000  0  8G 1G13G16G20G23G25G 4G27
  20565315.0854   -5741160.42649  -4462842.09448                  20565312.4894
        51.5004         41.7504
  22407728.6034  -12733900.53149  -9905165.76247                  22407725.9184
        47.5004         30.5004
  21384090.6244   -7988823.51249  -6203307.47747                  21384086.9074
        49.0004         37.0004
  20344341.4054   -3546797.51649  -2751817.09048                  20344338.5744
        50.5004         41.5004
  20462365.6344   -4428350.40249  -3441799.80148                  20462359.8254
        51.5004         40.5004
  24443426.2934    6430879.56649   4993637.25446                  24443424.3374
        38.0004         20.0004
  24183985.9814   -6047853.71549  -4712473.37146                  24183985.8414
        41.7504         20.5004
  23886203.7884   -5540394.47749  -4299343.63746                  23886204.5374
        42.2504         22.5004
 04  7 12 23  5  0.0000000  0  8G 1G13G16G20G23G25G 4G27
  20561913.1444   -5759036.37549  -4476771.40648                  20561910.8854
        52.0004         41.7504
  22398176.2814  -12784097.72749  -9944280.43447                  22398173.4474
        47.2504         30.7504
  21381126.6604   -8004398.52349  -6215443.85247                  21381123.3124
        49.2504         36.5004
  20344827.7084   -3544243.86749  -2749827.24648                  20344824.4424
        50.7504         41.5004
  20460340.3704   -4438992.28549  -3450092.17648                  20460334.9014
        51.2504         41.0004
  24448566.6144    6457890.80949   5014684.94546                  24448564.0984
        39.0004         19.0004
  24180649.3254   -6065385.94149  -4726134.82846                  24180649.5314
        41.2504         21.7504
  23876060.3284   -5593699.36349  -4340879.84846                  23876060.4714
        42.5004         22.5004
 04  7 12 23  5 15.0000000  0  8G 1G13G16G20G23G25G 4G27
  20558521.3494   -5776860.36349  -4490660.23448                  20558519.0934
        52.0004         41.5004
  22388628.2714  -12834274.49249  -9983379.18747                  22388625.0104
        48.0004         31.2504
  21378191.0174   -8019824.53949  -6227464.11347                  21378187.8544
        50.5004         36.7504
  20345339.9674   -3541551.16049  -2747729.04348                  20345337.0834
        51.0004         41.5004
  20458328.0334   -4449567.46949  -3458332.58248                  20458322.9924
        52.2504         41.2504
  24453704.9394    6484895.93049   5035727.87946                  24453702.6894
        36.2504         17.0004
  24177337.0634   -6082790.30549  -4739696.68746                  24177337.2074
        40.5004         21.0004
  23865925.3434   -5646956.94549  -4382379.20746                  23865925.6724
        42.0004         24.7504
 04  7 12 23  5 30.0000000  0  8G 1G13G16G20G23G25G 4G27
  20555139.5474   -5794632.56649  -4504508.69948                  20555137.5814
        51.7504         42.2504
  22379083.6024  -12884431.03949 -10022462.19547                  22379080.9194
        48.0004         30.7504
  21375283.9634   -8035101.74249  -6239368.42247                  21375280.7434
        50.0004         36.7504
  20345878.6794   -3538719.65249  -2745522.68048                  20345875.8244
        50.2504         41.7504
  20456328.6744   -4460076.14849  -3466521.17248                  20456323.2654
        52.0004         41.5004
  24458843.5684    6511894.78549   5056765.90646                  24458841.5964
        37.0004         18.2504
  24174050.2874   -6100067.07049  -4753159.14146                  24174049.0664
        41.2504         21.7504
  23855800.0514   -5700167.38749  -4423841.85946                  23855799.8224
        42.2504         22.7504
 04  7 12 23  5 45.0000000  0  8G 1G13G16G20G23G25G 4G27
  20551767.9084   -5812351.35249  -4518315.55148                  20551765.8284
        51.7504         41.5004
  22369542.9054  -12934565.64549 -10061528.09447                  22369541.3544
        47.2504         30.5004
  21372405.2994   -8050228.67649  -6251155.64147                  21372401.7604
        50.0004         36.7504
  20346444.1644   -3535747.94549  -2743207.06648                  20346441.0854
        50.5004         41.0004
  20454341.6474   -4470516.89549  -3474656.82048                  20454336.1194
        51.5004         41.2504
  24463980.9564    6538888.84449   5077800.20746                  24463978.1284
        39.2504         20.0004
  24170787.6764   -6117214.80949  -4766520.97746                  24170787.3264
        41.5004         22.2504
  23845683.0624   -5753329.25049  -4465266.63746                  23845684.0084
        42.0004         22.5004
 04  7 12 23  6  0.0000000  0  8G 1G13G16G20G23G25G 4G27
  20548405.7304   -5830018.89549  -4532082.46148                  20548403.2864
        52.0004         41.2504
  22360006.2094  -12984680.36749 -10100578.51647                  22360004.0504
        47.0004         30.5004
  21369554.9614   -8065207.53149  -6262827.46947                  21369551.5384
        50.7504         37.5004
  20347035.8254   -3532638.33649  -2740783.99648                  20347032.7894
        50.7504         41.2504
  20452367.3354   -4480891.83649  -3482741.19148                  20452362.0604
        51.0004         41.2504
  24469115.3794    6565875.60549   5098828.84846                  24469113.3774
        37.5004         20.5004
  24167548.6624   -6134235.91449  -4779784.19546                  24167547.8134
        42.0004         24.2504
  23835575.2064   -5806444.70749  -4506655.27046                  23835575.7724
        42.0004         25.5004
 04  7 12 23  6 15.0000000  0  8G 1G13G16G20G23G25G 4G27
  20545053.7974   -5847634.87149  -4545809.20348                  20545051.3554
        52.7504         41.2504
  22350474.0354  -13034775.06649 -10139613.32447                  22350471.0944
        48.5004         30.7504
  21366732.4814   -8080038.20349  -6274383.83647                  21366729.5884
        50.5004         37.0004
  20347654.1404   -3529390.78549  -2738253.45348                  20347651.1624
        51.0004         41.2504
  20450405.4314   -4491200.55549  -3490773.96548                  20450400.2264
        51.5004         41.7504
  24474249.1504    6592855.05549   5119851.76646                  24474247.6004
        36.5004         20.5004
  24164332.9404   -6151130.40649  -4792948.76246                  24164332.3024
        41.5004         22.2504
  23825476.6274   -5859513.61749  -4548007.62546                  23825477.1914
        41.5004         24.7504
 04  7 12 23  6 30.0000000  0  8G 1G13G16G20G23G25G 4G27
  20541710.8944   -5865200.37149  -4559496.60248                  20541708.6234
        52.0004         41.5004
  22340944.4744  -13084850.83249 -10178633.38747                  22340942.0354
        47.7504         30.5004
  21363938.6104   -8094721.71549  -6285825.53147                  21363935.4994
        50.0004         36.7504
  20348297.4224   -3526006.47349  -2735616.32448                  20348295.0394
        51.0004         41.2504
  20448456.5114   -4501444.24249  -3498756.05548                  20448451.4024
        51.5004         41.5004
  24479381.7654    6619825.99649   5140868.05146                  24479380.2984
        38.7504         22.5004
  24161142.4604   -6167899.34849  -4806015.45746                  24161142.2314
        41.5004         22.5004
  23815386.5954   -5912536.93049  -4589324.43746                  23815387.1304
        43.0004         24.0004
 04  7 12 23  6 45.0000000  0  8G 1G13G16G20G23G25G 4G27
  20538377.7764   -5882716.36749  -4573145.43448                  20538375.3594
        52.2504         41.5004
  22331418.7724  -13134908.68749 -10217639.49247                  22331416.1634
        47.5004         30.5004
  21361172.0884   -8109259.03949  -6297153.30147                  21361169.0684
        50.2504         36.2504
  20348967.7794   -3522486.58649  -2732873.56648                  20348964.5754
        51.2504         41.0004
  20446519.3594   -4511623.86749  -3506688.22348                  20446514.0954
        51.5004         41.5004
  24484512.9084    6646787.49249   5161876.96946                  24484510.7864
        37.5004         21.0004
  24157974.7934   -6184543.80549  -4818985.18446                  24157974.7914
        41.7504         22.2504
  23805305.9034   -5965515.78149  -4630606.60546                  23805305.6684
        43.0004         22.7504
 04  7 12 23  7  0.0000000  0  8G 1G13G16G20G23G25G 4G27
  20535054.1584   -5900182.52349  -4586755.42248                  20535051.8074
        52.0004         41.5004
  22321896.4944  -13184948.13749 -10256631.25047                  22321893.9434
        48.0004         30.5004
  21358433.5624   -8123649.97749  -6308367.02347                  21358430.4864
        49.7504         36.2504
  20349663.3184   -3518830.99249  -2730025.05148                  20349660.1784
        50.7504         41.2504
  20444594.2924   -4521739.05149  -3514570.18748                  20444588.8074
        51.5004         41.5004
  24489641.2234    6673739.31649   5182878.32046                  24489639.8794
        39.0004         22.0004
  24154831.6734   -6201063.55549  -4831857.74246                  24154830.5654
        41.5004         23.0004
  23795232.5344   -6018449.66849  -4671853.74646                  23795232.3984
        42.2504         24.7504
 04  7 12 23  7 15.0000000  0  8G 1G13G16G20G23G25G 4G27
  20531740.0374   -5917598.21949  -4600326.08648                  20531737.4294
        52.0004         42.0004
  22312378.0614  -13234968.70349 -10295608.29347                  22312375.7964
        48.2504         31.5004
  21355723.1334   -8137894.14849  -6319466.37147                  21355719.8874
        50.5004         36.7504
  20350384.7664   -3515039.33249  -2727070.51648                  20350381.9244
        50.7504         41.0004
  20442682.0744   -4531789.28949  -3522401.53548                  20442676.6394
        51.5004         41.2504
  24494768.0104    6700681.94149   5203872.59046                  24494766.7844
        39.0004         23.0004
  24151711.7604   -6217458.30949  -4844632.88746                  24151711.4214
        42.5004         22.2504
  23785168.4544   -6071338.27349  -4713065.57446                  23785168.2614
        43.2504         25.2504
 04  7 12 23  7 30.0000000  0  8G 1G13G16G20G23G25G 4G27
  20828228.3264   -5934961.95749  -4613856.26648                  20828226.2104
        52.0004         41.7504
  22602656.3584  -13284966.64149 -10334567.69147                  22602653.7744
        48.2504         32.2504
  21652833.3034   -8151990.14849  -6330450.25847                  21652830.2954
        50.2504         36.2504
  20650924.6404   -3511111.58249  -2724009.93448                  20650921.8604
        50.5004         41.5004
  20740574.1254   -4541773.53949  -3530181.47748                  20740568.8124
        51.0004         41.2504
  24799686.0934    6727613.84049   5224858.46546                  24799684.1304
        40.0004         25.5004
  24448408.5594   -6233726.78549  -4857309.62546                  24448408.3164
        41.7504         22.7504
  24074905.1034   -6124177.70349  -4754239.08246                  24074905.9474
        43.0004         24.2504
 04  7 12 23  7 45.0000000  0  8G 1G13G16G20G23G25G 4G27
  20824933.3634   -5952277.46149  -4627348.87548                  20824931.2684
        52.2504         41.7504
  22593144.4764  -13334950.07849 -10373515.81647                  22593142.3374
        49.0004         31.0004
  21650178.2094   -8165941.50849  -6341321.45347                  21650175.0104
        49.5004         36.2504
  20651697.7624   -3507048.94549  -2720844.25848                  20651694.8774
        49.2504         41.5004
  20738686.5444   -4551694.59449  -3537912.17248                  20738681.1914
        50.2504         41.2504
  24804808.6804    6754536.90249   5245837.46546                  24804807.9234
        40.7504         22.5004
  24445336.1974   -6249872.78949  -4869890.96946                  24445335.9124
        42.5004         24.5004
  24064858.6304   -6176976.32449  -4795380.83246                  24064858.0214
        43.2504         24.7504
 04  7 12 23  8  0.0000000  0  8G 1G13G16G20G23G25G 4G27
  20821647.6094   -5969542.69149  -4640802.30148                  20821645.9364
        51.7504         42.2504
  22583636.6854  -13384914.81649 -10412449.35947                  22583634.3624
        48.5004         30.7504
  21647551.2754   -8179746.44949  -6352078.53547                  21647548.2024
        49.0004         36.2504
  20652496.7364   -3502850.90649  -2717573.05548                  20652493.6914
        48.7504         41.2504
  20736811.0754   -4561550.89149  -3545592.40248                  20736805.7804
        50.7504         41.0004
  24809931.0764    6781450.15649   5266808.82047                  24809929.0734
        41.7504         25.7504
  24442287.6714   -6265894.44149  -4882375.34046                  24442286.9754
        42.7504         24.0004
  24054820.1764   -6229729.98049  -4836487.52046                  24054819.5454
        43.5004         23.5004
 04  7 12 23  8 15.0000000  0  8G 1G13G16G20G23G25G 4G27
  20818371.8614   -5986757.82049  -4654216.69148                  20818369.6254
        52.2504         42.5004
  22574132.2254  -13434860.99649 -10451368.44547                  22574129.2764
        48.5004         31.5004
  21644952.2214   -8193405.22349  -6362721.73847                  21644948.6544
        50.0004         36.5004
  20653321.1664   -3498517.80949  -2714196.62548                  20653318.0214
        49.7504         41.2504
  20734947.6114   -4571342.55549  -3553222.27348                  20734942.1114
        51.2504         41.2504
  24815050.8944    6808353.25049   5287772.19946                  24815048.7674
        42.7504         25.2504
  24439262.7724   -6281792.03949  -4894763.09846                  24439260.8314
        43.5004         22.5004
  24044789.3724   -6282438.67249  -4877559.18747                  24044790.0414
        43.5004         25.7504
 04  7 12 23  8 30.0000000  0  8G 1G13G16G20G23G25G 4G27
  20815105.4214   -6003923.60549  -4667592.62148                  20815102.8034
        52.2504         42.0004
  22564631.1864  -13484789.41049 -10490273.69547                  22564628.5954
        48.7504         31.7504
  21642380.7164   -8206918.71949  -6373251.73447                  21642377.3674
        50.2504         36.7504
  20654171.4614   -3494050.57049  -2710715.66848                  20654168.3194
        46.0004         41.0004
  20733096.1684   -4581070.51249  -3560802.49648                  20733091.1364
        47.5004         41.0004
  24820167.9774    6835245.15249   5308726.90246                  24820165.9084
        41.5004         25.0004
  24436260.4424   -6297566.68449  -4907055.04346                  24436259.7964
        42.5004         22.5004
  24034767.3494   -6335103.41449  -4918596.59446                  24034767.6324
        43.2504         25.5004
 04  7 12 23  8 45.0000000  0  8G 1G13G16G20G23G25G 4G27
  20811848.0514   -6021039.64549  -4680929.79748                  20811845.8934
        51.7504         41.5004
  22555133.7884  -13534699.62149 -10529164.74247                  22555131.0874
        48.7504         31.2504
  21639836.8294   -8220286.59449  -6383668.25847                  21639833.4204
        49.7504         36.7504
  20655047.1904   -3489449.09449  -2707130.10548                  20655044.2714
        49.5004         41.2504
  20731257.3754   -4590734.27049  -3568332.70748                  20731252.1244
        50.2504         41.0004
  24825283.0694    6862126.04749   5329673.02747                  24825281.8144
        43.0004         27.5004
  24433281.3944   -6313218.06249  -4919250.92646                  24433281.7214
        42.0004         22.7504
  24024754.5154   -6387723.70749  -4959599.34447                  24024753.9654
        43.2504         26.0004
 04  7 12 23  9  0.0000000  0  8G 1G13G16G20G23G25G 4G27
  20808600.9164   -6038105.28149  -4694227.69148                  20808598.5144
        52.0004         41.7504
  22545639.3744  -13584591.00049 -10568041.13347                  22545637.0684
        48.5004         32.2504
  21637321.2464   -8233508.25049  -6393970.85247                  21637317.6074
        50.0004         36.5004
  20655948.3954   -3484712.95749  -2703439.61348                  20655945.2014
        45.0004         41.0004
  20729430.8594   -4600333.20349  -3575812.39148                  20729425.3134
        46.2504         40.7504
  24830396.1634    6888996.27349   5350610.84847                  24830394.9664
        42.5004         25.7504
  24430327.2954   -6328745.71949  -4931350.41046                  24430325.6364
        42.2504         22.0004
  24014749.2394   -6440298.94549  -5000567.01247                  24014749.2224
        43.2504         25.7504
 04  7 12 23  9 15.0000000  0  8G 1G13G16G20G23G25G 4G27
  20805362.9234   -6055119.53549  -4707485.54348                  20805360.7734
        52.0004         41.5004
  22536149.0084  -13634462.58249 -10606902.07847                  22536146.8784
        48.7504         31.2504
  21634833.0264   -8246582.84849  -6404158.84447                  21634829.5674
        49.5004         37.2504
  20656875.2364   -3479841.26649  -2699643.50048                  20656872.5014
        48.5004         41.2504
  20727616.8924   -4609866.36749  -3583240.82848                  20727611.6724
        49.2504         41.0004
  24835507.3204    6915856.66049   5371540.98847                  24835506.2874
        42.7504         27.0004
  24427395.6894   -6344148.74249  -4943352.79346                  24427395.6294
        42.5004         22.5004
  24004753.6944   -6492828.32849  -5041498.93746                  24004753.1134
        43.5004         25.2504
 04  7 12 23  9 30.0000000  0  8G 1G13G16G20G23G25G 4G27
  20802134.2944   -6072084.95349  -4720705.34848                  20802132.4834
        52.0004         42.0004
  22526662.6984  -13684316.84449 -10645749.53147                  22526659.8074
        48.7504         32.0004
  21632372.3904   -8259513.09049  -6414234.35247                  21632368.9764
        49.2504         37.7504
  20657827.8344   -3474836.80549  -2695743.92248                  20657824.7344
        50.2504         41.0004
  20725814.6584   -4619336.37949  -3590620.05548                  20725809.5664
        49.7504         41.0004
  24840616.1324    6942704.56649   5392461.42246                  24840615.2804
        43.0004         24.2504
  24424488.3964   -6359430.05149  -4955260.30546                  24424487.2324
        43.7504         22.0004
  23994765.8574   -6545314.40249  -5082397.15246                  23994765.2004
        43.0004         25.5004
 04  7 12 23  9 45.0000000  0  8G 1G13G16G20G23G25G 4G27
  20798915.9294   -6088998.58249  -4733884.79348                  20798913.9654
        52.0004         42.0004
  22517179.2624  -13734150.85549 -10684581.21547                  22517176.6994
        48.7504         32.5004
  21629939.6844   -8272295.99649  -6424195.05947                  21629936.2624
        50.0004         37.0004
  20658805.6564   -3469696.85949  -2691738.78148                  20658802.7124
        49.0004         40.7504
  20724024.9714   -4628740.26249  -3597947.75448                  20724019.9744
        49.5004         41.2504
  24845724.1214    6969542.64849   5413374.18447                  24845722.4974
        43.5004         27.0004
  24421603.5154   -6374586.73849  -4967070.72346                  24421602.4364
        42.5004         22.2504
  23984787.2574   -6597754.18449  -5123259.25446                  23984785.9864
        44.2504         24.7504
 04  7 12 23 10  0.0000000  0  8G 1G13G16G20G23G25G 4G27
  20795707.1424   -6105861.63749  -4747024.83248                  20795705.1284
        52.0004         41.7504
  22507699.6594  -13783965.85949 -10723398.09047                  22507697.5064
        48.2504         32.7504
  21627535.2944   -8284933.03549  -6434042.09847                  21627531.6114
        50.2504         36.5004
  20659809.3354   -3464422.84449  -2687629.17648                  20659806.4154
        49.0004         41.5004
  20722247.7294   -4638079.25849  -3605224.89548                  20722242.7254
        49.0004         40.7504
  24850828.8244    6996369.55949   5434278.25847                  24850827.2774
        44.0004         27.0004
  24418742.6824   -6389620.27349  -4978785.15246                  24418741.4514
        43.2504         21.7504
  23974816.2654   -6650149.12949  -5164086.42647                  23974816.0524
        43.0004         26.2504
 04  7 12 23 10 15.0000000  0  8G 1G13G16G20G23G25G 4G27
  20792507.8504   -6122673.38749  -4760124.89848                  20792505.7004
        52.0004         41.5004
  22498224.4614  -13833761.20349 -10762199.63347                  22498221.9804
        48.7504         33.0004
  21625158.3104   -8297423.58649  -6443774.98847                  21625155.0164
        49.5004         36.7504
  20660838.3054   -3459014.26249  -2683414.69548                  20660835.6034
        48.7504         41.0004
  20720483.4034   -4647352.65649  -3612450.92248                  20720478.0654
        49.0004         41.2504
  24855931.2864    7023185.63749   5455173.86347                  24855930.4434
        43.7504         26.0004
  24415905.9804   -6404530.04749  -4990403.18046                  24415905.1724
        43.0004         22.5004
  23964853.8384   -6702498.35549  -5204877.96147                  23964854.7124
        43.7504         26.5004
 04  7 12 23 10 30.0000000  0  8G 1G13G16G20G23G25G 4G27
  20789318.5304   -6139434.06249  -4773185.16448                  20789316.0284
        52.2504         41.5004
  22488752.1724  -13883537.19949 -10800986.10547                  22488749.5564
        48.2504         33.0004
  21622809.0844   -8309767.91449  -6453393.94147                  21622805.4764
        51.0004         36.7504
  20661893.4324   -3453471.52049  -2679095.69548                  20661890.3984
        47.5004         40.5004
  20718731.0654   -4656560.83649  -3619626.12948                  20718725.8684
        49.0004         40.5004
  24861032.1184    7049990.67649   5476060.87946                  24861031.2904
        43.0004         24.5004
  24413092.3154   -6419316.62549  -5001925.21146                  24413091.2894
        42.7504         22.2504
  23954900.7594   -6754802.29749  -5245634.23846                  23954901.3464
        43.2504         25.5004
 04  7 12 23 10 45.0000000  0  8G 1G13G16G20G23G25G 4G27
  20786139.0514   -6156142.91049  -4786205.04748                  20786136.4034
        52.7504         41.7504
  22479283.4604  -13933292.96549 -10839756.81247                  22479281.6774
        48.0004         32.7504
  21620488.2354   -8321965.46949  -6462898.52047                  21620484.4184
        51.0004         37.2504
  20662973.7494   -3447794.16449  -2674671.79348                  20662970.8114
        50.7504         41.0004
  20716991.4164   -4665702.95749  -3626749.85948                  20716985.9674
        50.7504         40.7504
  24866131.5574    7076785.15249   5496939.65247                  24866130.7244
        44.5004         26.2504
  24410301.6374   -6433979.47349  -5013350.84046                  24410301.4864
        42.0004         23.0004
  23944956.6704   -6807060.23049  -5286354.64546                  23944956.4494
        43.5004         24.2504
 04  7 12 23 11  0.0000000  0  8G 1G13G16G20G23G25G 4G27
  20782969.5704   -6172799.85949  -4799184.48848                  20782966.8054
        52.2504         41.2504
  22469819.5774  -13983028.41849 -10878511.69547                  22469817.2204
        48.0004         32.5004
  21618194.5934   -8334016.21149  -6472288.70747                  21618191.2824
        50.2504         37.2504
  20664079.7074   -3441982.35249  -2670143.11348                  20664076.8084
        50.5004         40.7504
  20715264.3354   -4674779.01249  -3633822.10948                  20715258.5984
        50.7504         41.5004
  24871228.9954    7103568.79749   5517809.99246                  24871226.8954
        43.7504         24.2504
  24407534.3364   -6448518.68049  -5024680.08246                  24407534.3274
        40.5004         21.7504
  23935021.4364   -6859272.21949  -5327039.24646                  23935020.9684
        43.0004         25.5004
 04  7 12 23 11 15.0000000  0  8G 1G13G16G20G23G25G 4G27
  20779809.4034   -6189404.57049  -4812123.21948                  20779806.7794
        52.0004         41.5004
  22460358.8754  -14032743.17649 -10917250.45347                  22460356.1284
        48.0004         33.2504
  21615929.8814   -8345919.96149  -6481564.35247                  21615926.4394
        50.0004         36.5004
  20665211.3584   -3436035.90649  -2665509.53948                  20665208.1614
        50.7504         40.7504
  20713549.8024   -4683788.75049  -3640842.68748                  20713544.6214
        51.0004         40.7504
  24876322.7494    7130341.78549   5538672.05546                  24876322.1444
        43.5004         23.7504
  24404791.8704   -6462933.93449  -5035912.78146                  24404791.5814
        40.5004         22.7504
  23925094.2264   -6911437.81249  -5367687.73446                  23925093.8074
        42.5004         24.5004
 04  7 12 23 11 30.0000000  0  8G 1G13G16G20G23G25G 4G27
  20776659.0834   -6205958.20349  -4825022.14848                  20776657.2014
        52.0004         41.2504
  22450902.1154  -14082438.47749 -10955974.03947                  22450900.0674
        48.5004         32.5004
  21613692.1634   -8357677.87949  -6490726.36347                  21613688.7864
        49.7504         37.2504
  20666368.0934   -3429956.21949  -2660772.12948                  20666365.2894
        50.2504         40.2504
  20711847.8864   -4692733.14149  -3647812.34048                  20711842.5624
        51.2504         40.7504
  24881415.9574    7157102.81649   5559524.77046                  24881414.6254
        43.5004         23.7504
  24402071.9444   -6477226.74649  -5047050.04346                  24402071.7114
        42.5004         22.2504
  23915176.2544   -6963558.35249  -5408301.07446                  23915176.4194
        43.2504         24.5004
 04  7 12 23 11 45.0000000  0  8G 1G13G16G20G23G25G 4G27
  20773519.3044   -6222459.33649  -4837880.17648                  20773516.7984
        52.2504         42.0004
  22441449.6694  -14132112.86749 -10994681.34047                  22441447.3104
        48.7504         32.7504
  21611482.5404   -8369288.67249  -6499773.73847                  21611479.2474
        49.5004         36.0004
  20667550.6544   -3423741.98449  -2655929.87948                  20667547.9074
        50.2504         40.2504
  20710158.3944   -4701610.84849  -3654730.03148                  20710153.3144
        50.7504         40.7504
  24886505.0554    7183853.19949   5580369.21946                  24886504.7604
        40.5004         21.7504
  24399375.1404   -6491395.86749  -5058090.89846                  24399375.5674
        41.7504         22.2504
  23905266.5944   -7015632.38349  -5448878.18446                  23905266.9944
        42.5004         24.7504
 04  7 12 23 12  0.0000000  0  8G 1G13G16G20G23G25G 4G27
  20770389.0754   -6238909.05549  -4850698.14148                  20770386.6774
        52.2504         42.0004
  22432000.3964  -14181767.43749 -11033373.19547                  22431997.7994
        47.7504         32.5004
  21609300.8384   -8380753.63349  -6508707.46947                  21609297.5764
        50.0004         36.5004
  20668758.5214   -3417394.60249  -2650983.87948                  20668755.6454
        49.0004         40.5004
  20708481.1534   -4710423.02049  -3661596.66848                  20708476.3504
        50.0004         40.7504
  24891593.8744    7210591.68849   5601204.35246                  24891592.4254
        40.2504         21.2504
  24396702.5974   -6505442.50449  -5069036.35246                  24396701.7244
        41.0004         22.5004
  23895365.9884   -7067661.10249  -5489419.99646                  23895365.8064
        43.0004         25.5004
 04  7 12 23 12 15.0000000  0  8G 1G13G16G20G23G25G 4G27
  20767268.6424   -6255306.29749  -4863475.21148                  20767266.3084
        52.0004         41.5004
  22422556.1204  -14231401.05549 -11072048.71147                  22422553.2374
        48.7504         32.5004
  21607147.1314   -8392071.82849  -6517526.84047                  21607143.5954
        49.7504         36.2504
  20669991.8384   -3410913.27049  -2645933.48448                  20669988.9164
        50.0004         40.2504
  20706817.2144   -4719168.60549  -3668411.39848                  20706812.0994
        50.2504         41.2504
  24896679.7954    7237318.98849   5622030.76646                  24896678.8554
        40.2504         21.0004
  24394053.4154   -6519365.78949  -5079885.65246                  24394052.9654
        42.5004         22.5004
  23885474.1234   -7119643.45749  -5529925.68446                  23885474.4514
        43.7504         25.0004
 04  7 12 23 12 30.0000000  0  8G 1G13G16G20G23G25G 4G27
  20764158.4874   -6271651.49649  -4876211.72748                  20764156.0234
        52.7504         41.7504
  22413114.5274  -14281014.24649 -11110708.32047                  22413111.7084
        48.2504         33.5004
  21605021.2974   -8403243.82849  -6526232.28947                  21605017.6744
        50.0004         36.0004
  20671250.9314   -3404298.56649  -2640779.18048                  20671247.5604
        49.0004         40.2504
  20705165.7994   -4727848.05949  -3675174.61348                  20705160.6714
        49.5004         41.2504
  24901764.2364    7264034.45349   5642847.98446                  24901762.7214
        40.5004         21.5004
  24391426.9744   -6533166.43449  -5090639.44946                  24391426.6644
        41.7504         22.5004
  23875590.5704   -7171579.96549  -5570395.64146                  23875591.0754
        42.5004         25.2504
 04  7 12 23 12 45.0000000  0  8G 1G13G16G20G23G25G 4G27
  20761057.7944   -6287942.70349  -4888906.17248                  20761055.8704
        52.2504         41.7504
  22403678.0704  -14330605.09049 -11149350.51647                  22403675.4994
        49.0004         33.2504
  21602923.6874   -8414267.75849  -6534822.35947                  21602919.8954
        50.7504         36.5004
  20672535.3284   -3397548.79349  -2635519.62148                  20672532.2374
        46.7504         40.2504
  20703526.9504   -4736459.39149  -3681884.73848                  20703521.5934
        47.5004         41.2504
  24906845.4244    7290739.99649   5663657.44946                  24906844.2694
        38.0004         17.7504
  24388824.0514   -6546842.67249  -5101296.28546                  24388823.9224
        40.7504         22.2504
  23865716.2744   -7223468.73449  -5610828.38746                  23865716.7164
        42.5004         25.0004
 04  7 12 23 13  0.0000000  0  8G 1G13G16G20G23G25G 4G27
  20757967.9874   -6304181.39849  -4901559.70348                  20757965.7324
        52.5004         42.0004
  22394244.8754  -14380174.91449 -11187976.32847                  22394242.7764
        48.0004         32.7504
  21600853.3274   -8425145.16449  -6543298.26247                  21600849.9544
        50.0004         36.5004
  20673845.0734   -3390665.60249  -2630156.09848                  20673841.7724
        46.2504         40.0004
  20701900.7254   -4745004.11749  -3688542.96548                  20701895.4524
        47.7504         41.0004
  24911925.0014    7317433.93849   5684457.99246                  24911922.4344
        36.7504         17.5004
  24386245.6444   -6560396.11349  -5111857.40646                  24386244.7984
        42.2504         22.7504
  23855850.7744   -7275311.21949  -5651225.06646                  23855851.2014
        41.7504         24.7504
 04  7 12 23 13 15.0000000  0  8G 1G13G16G20G23G25G 4G27
  20754887.8124   -6320368.19149  -4914172.78548                  20754885.7514
        52.2504         42.0004
  22384815.6124  -14429724.51649 -11226586.37547                  22384813.1354
        48.2504         32.7504
  21598811.6374   -8435876.85249  -6551660.61347                  21598808.0154
        50.2504         36.0004
  20675180.1864   -3383649.82449  -2624689.27348                  20675176.8154
        49.2504         40.7504
  20700287.4344   -4753482.98849  -3695149.88748                  20700282.1354
        50.7504         41.0004
  24917001.5194    7344115.44548   5705248.62946                  24916999.9094
        34.5004         16.2504
  24383689.7994   -6573827.60549  -5122323.50446                  24383688.9234
        41.5004         22.0004
  23845993.7394   -7327108.26249  -5691586.33246                  23845994.6234
        41.7504         24.7504
 04  7 12 23 13 30.0000000  0  8G 1G13G16G20G23G25G 4G27
  20751817.7604   -6336501.87949  -4926744.49248                  20751815.4914
        52.0004         42.0004
  22375391.0144  -14479252.55149 -11265179.63347                  22375388.4434
        48.2504         32.7504
  21596797.2554   -8446461.78949  -6559908.60947                  21596793.5294
        50.0004         36.7504
  20676540.5274   -3376500.55149  -2619118.41448                  20676537.3964
        49.7504         40.5004
  20698686.5694   -4761894.77349  -3701704.52748                  20698681.4384
        50.0004         40.5004
  24922076.8034    7370785.55148   5726030.51246                  24922075.6904
        34.7504         15.5004
  24381157.2224   -6587136.37949  -5132693.99646                  24381155.8914
        42.5004         22.7504
  23836145.9364   -7378858.62949  -5731911.26247                  23836146.8694
        42.2504         25.7504
 04  7 12 23 13 45.0000000  0  8G 1G13G16G20G23G25G 4G27
  20748757.2454   -6352582.74649  -4939275.03548                  20748755.2134
        51.7504         41.5004
  22365970.3374  -14528759.44149 -11303756.41847                  22365967.6734
        48.7504         33.0004
  21594811.1644   -8456900.33249  -6568042.54347                  21594807.5144
        50.0004         36.7504
  20677926.0644   -3369218.40249  -2613444.02048                  20677923.2604
        47.2504         40.7504
  20697098.8304   -4770239.84449  -3708207.17248                  20697093.1914
        48.0004         41.0004
  24927150.8084    7397443.55548   5746802.94146                  24927148.5524
        35.7504         18.2504
  24378647.3174   -6600322.78549  -5142969.10946                  24378647.8114
        42.5004         22.7504
  23826308.1054   -7430562.71149  -5772200.09446                  23826308.2194
        42.5004         24.7504
 04  7 12 23 14  0.0000000  0  8G 1G13G16G20G23G25G 4G27
  20745707.5134   -6368610.00449  -4951763.79748                  20745705.4284
        52.0004         41.0004
  22356553.0294  -14578244.35549 -11342316.06647                  22356550.6594
        48.0004         32.0004
  21592852.2694   -8467191.94549  -6576061.96947                  21592848.8224
        50.0004         37.2504
  20679337.1604   -3361802.73049  -2607665.58248                  20679334.2224
        49.2504         40.2504
  20695523.2854   -4778517.48049  -3714657.28948                  20695518.1444
        49.5004         41.2504
  24932220.8344    7424090.12949   5767566.48846                  24932218.4564
        36.0004         14.7504
  24376161.8014   -6613386.18049  -5153148.40246                  24376161.0014
        41.7504         22.5004
  23816477.4324   -7482219.85949  -5812452.37546                  23816478.3974
        41.5004         25.2504
 04  7 12 23 14 15.0000000  0  8G 1G13G16G20G23G25G 4G27
  20742668.1594   -6384583.50049  -4964210.68448                  20742666.0524
        52.0004         41.2504
  22347140.9054  -14627707.15249 -11380858.48847                  22347138.2124
        48.5004         32.2504
  21590921.8694   -8477336.57849  -6583966.87947                  21590918.6664
        50.5004         36.7504
  20680773.9964   -3354253.68049  -2601783.21548                  20680770.7974
        49.0004         40.0004
  20693960.9114   -4786727.43049  -3721054.64848                  20693955.6924
        50.0004         41.2504
  24937290.9494    7450725.14549   5788321.00846                  24937287.5844
        38.2504         14.7504
  24373699.0624   -6626326.70749  -5163231.94146                  24373698.2094
        42.7504         23.0004
  23806656.1114   -7533829.87549  -5852667.89846                  23806656.9554
        42.0004         24.7504
 04  7 12 23 14 30.0000000  0  8G 1G13G16G20G23G25G 4G27
  20739638.3794   -6400504.19949  -4976616.41848                  20739636.3934
        52.0004         41.2504
  22337732.6714  -14677148.58249 -11419384.27047                  22337730.2794
        49.0004         32.7504
  21589019.1984   -8487335.25849  -6591758.05547                  21589015.7684
        50.5004         37.2504
  20682235.7374   -3346572.33649  -2595797.75448                  20682232.4564
        46.7504         40.5004
  20692411.8434   -4794870.74649  -3727400.09848                  20692406.1354
        47.2504         41.0004
  24942357.3374    7477347.59849   5809065.77346                  24942353.9004
        40.5004         17.0004
  24371260.2834   -6639145.63349  -5173220.72346                  24371259.8904
        43.5004         22.7504
  23796843.9254   -7585393.87949  -5892847.57047                  23796844.4004
        40.2504         26.7504
 04  7 12 23 14 45.0000000  0  8G 1G13G16G20G23G25G 4G27
  20736619.1664   -6416371.88349  -4988980.84448                  20736616.8194
        51.5004         41.2504
  22328327.6404  -14726568.65249 -11457893.39147                  22328326.1904
        48.0004         32.7504
  21587144.3504   -8497187.96549  -6599435.48447                  21587141.0664
        49.5004         37.7504
  20683722.6034   -3338758.78549  -2589709.28148                  20683719.8664
        49.5004         40.5004
  20690874.7684   -4802947.21149  -3733693.44148                  20690869.3504
        49.2504         41.2504
  24947419.7964    7503957.48849   5829800.76646                  24947417.6114
        40.0004         17.0004
  24368844.0824   -6651842.80549  -5183114.63346                  24368843.4284
        43.5004         23.7504
  23787040.2354   -7636911.63749  -5932991.24646                  23787040.6724
        40.2504         25.5004
 04  7 12 23 15  0.0000000  0  8G 1G13G16G20G23G25G 4G27
  20733609.4084   -6432186.10249  -5001303.60548                  20733607.1434
        52.0004         42.0004
  22318927.6784  -14775966.93049 -11496385.53147                  22318925.7454
        49.0004         32.5004
  21585297.3924   -8506894.30149  -6606998.85947                  21585293.7524
        50.2504         37.5004
  20685234.5054   -3330812.82449  -2583517.63348                  20685231.7784
        48.5004         40.5004
  20689350.4904   -4810956.51649  -3739934.45748                  20689345.1274
        49.0004         40.2504
  24952481.9034    7530554.86349   5850525.95346                  24952479.1994
        40.0004         17.0004
  24366450.8374   -6664418.01249  -5192913.48046                  24366450.1904
        43.2504         22.5004
  23777245.6444   -7688382.82849  -5973098.60546                  23777245.5724
        40.2504         25.5004
 04  7 12 23 15 15.0000000  0  8G 1G13G16G20G23G25G 4G27
  20730609.9964   -6447947.64849  -5013585.33648                  20730608.0574
        51.7504         42.0004
  22309531.6714  -14825344.10949 -11534861.23447                  22309529.4074
        48.5004         32.5004
  21583477.7794   -8516455.28549  -6614448.97347                  21583474.2744
        50.0004         36.7504
  20686771.6784   -3322735.40249  -2577223.53548                  20686768.6474
        50.0004         40.5004
  20687838.7964   -4818899.30949  -3746123.64848                  20687833.9504
        50.0004         40.5004
  24957539.2564    7557138.95749   5871240.82846                  24957537.7464
        40.5004         17.5004
  24364080.8624   -6676872.21949  -5202618.09446                  24364079.6714
        43.2504         23.5004
  23767459.6994   -7739808.20349  -6013170.28947                  23767460.3304
        40.0004         26.2504
 04  7 12 23 15 30.0000000  0  8G 1G13G16G20G23G25G 4G27
  20727621.2014   -6463656.05549  -5025825.65648                  20727618.8124
        52.2504         41.5004
  22300139.9424  -14874699.65249 -11573320.08647                  22300137.0724
        48.2504         32.0004
  21581686.2054   -8525870.52049  -6621785.51247                  21581682.6934
        50.5004         37.5004
  20688333.7034   -3314526.40249  -2570826.92248                  20688331.2224
        49.7504         40.5004
  20686340.5824   -4826775.11349  -3752260.64548                  20686335.1164
        51.5004         41.0004
  24962596.5454    7583710.02349   5891945.48446                  24962594.2834
        40.5004         17.0004
  24361734.0984   -6689205.32449  -5212228.30947                  24361734.0944
        43.5004         26.0004
  23757682.8014   -7791187.39149  -6053205.97746                  23757683.2764
        40.5004         25.5004
